<?xml version="1.0" encoding="UTF-8" standalone="no" ?>
<gpx xmlns="http://www.topografix.com/GPX/1/1" creator="MapSource 6.15.6" version="1.1" xmlns:xsi="http://www.w3.org/2001/XMLSchema-instance" xsi:schemaLocation="http://www.topografix.com/GPX/1/1 http://www.topografix.com/GPX/1/1/gpx.xsd">

  <metadata>
    <link href="http://www.garmin.com">
      <text>Garmin International</text>
    </link>
    <time>2009-09-18T06:18:28Z</time>
    <bounds maxlat="46.5633907" maxlon="9.8889713" minlat="46.5012014" minlon="9.7688400"/>
  </metadata>

  <wpt lat="46.5524637" lon="9.8789651">
    <time>2009-09-05T17:40:21Z</time>
    <name>BEVER</name>
    <sym>Waypoint</sym>
    <extensions>
      <gpxx:WaypointExtension xmlns:gpxx="http://www.garmin.com/xmlschemas/GpxExtensions/v3">
        <gpxx:DisplayMode>SymbolAndName</gpxx:DisplayMode>
      </gpxx:WaypointExtension>
    </extensions>
  </wpt>

  <wpt lat="46.5085700" lon="9.8174800">
    <name>CORVIGLIA</name>
    <sym>Restaurant</sym>
    <extensions>
      <gpxx:WaypointExtension xmlns:gpxx="http://www.garmin.com/xmlschemas/GpxExtensions/v3">
        <gpxx:DisplayMode>SymbolAndName</gpxx:DisplayMode>
      </gpxx:WaypointExtension>
    </extensions>
  </wpt>

  <wpt lat="46.5158000" lon="9.8243800">
    <name>MARGUNS</name>
    <sym>Restaurant</sym>
    <extensions>
      <gpxx:WaypointExtension xmlns:gpxx="http://www.garmin.com/xmlschemas/GpxExtensions/v3">
        <gpxx:DisplayMode>SymbolAndName</gpxx:DisplayMode>
      </gpxx:WaypointExtension>
    </extensions>
  </wpt>

  <wpt lat="46.5192743" lon="9.8603887">
    <time>2009-09-05T17:44:15Z</time>
    <name>START</name>
    <sym>Parking Area</sym>
    <extensions>
      <gpxx:WaypointExtension xmlns:gpxx="http://www.garmin.com/xmlschemas/GpxExtensions/v3">
        <gpxx:DisplayMode>SymbolAndName</gpxx:DisplayMode>
      </gpxx:WaypointExtension>
    </extensions>
  </wpt>

  <wpt lat="46.5097100" lon="9.7688400">
    <name>SUVRETTA</name>
    <sym>City (Small)</sym>
    <extensions>
      <gpxx:WaypointExtension xmlns:gpxx="http://www.garmin.com/xmlschemas/GpxExtensions/v3">
        <gpxx:DisplayMode>SymbolAndName</gpxx:DisplayMode>
      </gpxx:WaypointExtension>
    </extensions>
  </wpt>

  <trk>
    <name>Passo Suvretta</name>
    <extensions>
      <gpxx:TrackExtension xmlns:gpxx="http://www.garmin.com/xmlschemas/GpxExtensions/v3">
        <gpxx:DisplayColor>Red</gpxx:DisplayColor>
      </gpxx:TrackExtension>
    </extensions>
    <trkseg>
      <trkpt lat="46.5193186" lon="9.8604060">
        <ele>1653.6049805</ele>
        <time>2009-09-05T07:57:40Z</time>
      </trkpt>
      <trkpt lat="46.5192743" lon="9.8603887">
        <ele>1654.0856934</ele>
        <time>2009-09-05T07:57:42Z</time>
      </trkpt>
      <trkpt lat="46.5190647" lon="9.8603404">
        <ele>1653.6049805</ele>
        <time>2009-09-05T07:57:49Z</time>
      </trkpt>
      <trkpt lat="46.5186640" lon="9.8603499">
        <ele>1656.0080566</ele>
        <time>2009-09-05T07:58:02Z</time>
      </trkpt>
      <trkpt lat="46.5184305" lon="9.8603165">
        <ele>1658.8920898</ele>
        <time>2009-09-05T07:58:11Z</time>
      </trkpt>
      <trkpt lat="46.5183066" lon="9.8601500">
        <ele>1658.8920898</ele>
        <time>2009-09-05T07:58:18Z</time>
      </trkpt>
      <trkpt lat="46.5177071" lon="9.8602676">
        <ele>1660.3342285</ele>
        <time>2009-09-05T07:58:37Z</time>
      </trkpt>
      <trkpt lat="46.5171431" lon="9.8603430">
        <ele>1661.7763672</ele>
        <time>2009-09-05T07:58:54Z</time>
      </trkpt>
      <trkpt lat="46.5166076" lon="9.8603742">
        <ele>1663.2182617</ele>
        <time>2009-09-05T07:59:10Z</time>
      </trkpt>
      <trkpt lat="46.5161086" lon="9.8601456">
        <ele>1664.6601563</ele>
        <time>2009-09-05T07:59:25Z</time>
      </trkpt>
      <trkpt lat="46.5155602" lon="9.8598127">
        <ele>1667.5439453</ele>
        <time>2009-09-05T07:59:42Z</time>
      </trkpt>
      <trkpt lat="46.5149894" lon="9.8594414">
        <ele>1670.4279785</ele>
        <time>2009-09-05T08:00:01Z</time>
      </trkpt>
      <trkpt lat="46.5148753" lon="9.8593190">
        <ele>1670.4279785</ele>
        <time>2009-09-05T08:00:12Z</time>
      </trkpt>
      <trkpt lat="46.5148732" lon="9.8593175">
        <ele>1670.4279785</ele>
        <time>2009-09-05T08:00:18Z</time>
      </trkpt>
      <trkpt lat="46.5148776" lon="9.8592762">
        <ele>1671.3891602</ele>
        <time>2009-09-05T08:00:23Z</time>
      </trkpt>
      <trkpt lat="46.5149054" lon="9.8592670">
        <ele>1671.8698730</ele>
        <time>2009-09-05T08:00:30Z</time>
      </trkpt>
      <trkpt lat="46.5149603" lon="9.8591636">
        <ele>1673.3120117</ele>
        <time>2009-09-05T08:00:35Z</time>
      </trkpt>
      <trkpt lat="46.5150916" lon="9.8587978">
        <ele>1676.6767578</ele>
        <time>2009-09-05T08:00:49Z</time>
      </trkpt>
      <trkpt lat="46.5151416" lon="9.8584032">
        <ele>1680.0412598</ele>
        <time>2009-09-05T08:01:04Z</time>
      </trkpt>
      <trkpt lat="46.5151672" lon="9.8580784">
        <ele>1682.9250488</ele>
        <time>2009-09-05T08:01:16Z</time>
      </trkpt>
      <trkpt lat="46.5152180" lon="9.8577607">
        <ele>1686.2897949</ele>
        <time>2009-09-05T08:01:28Z</time>
      </trkpt>
      <trkpt lat="46.5153090" lon="9.8573755">
        <ele>1689.1735840</ele>
        <time>2009-09-05T08:01:42Z</time>
      </trkpt>
      <trkpt lat="46.5153871" lon="9.8569682">
        <ele>1692.0578613</ele>
        <time>2009-09-05T08:01:57Z</time>
      </trkpt>
      <trkpt lat="46.5154259" lon="9.8565757">
        <ele>1695.4223633</ele>
        <time>2009-09-05T08:02:11Z</time>
      </trkpt>
      <trkpt lat="46.5155421" lon="9.8562312">
        <ele>1698.3061523</ele>
        <time>2009-09-05T08:02:24Z</time>
      </trkpt>
      <trkpt lat="46.5156193" lon="9.8558450">
        <ele>1701.1901855</ele>
        <time>2009-09-05T08:02:38Z</time>
      </trkpt>
      <trkpt lat="46.5157768" lon="9.8555971">
        <ele>1703.5935059</ele>
        <time>2009-09-05T08:02:52Z</time>
      </trkpt>
      <trkpt lat="46.5157910" lon="9.8555808">
        <ele>1704.0742188</ele>
        <time>2009-09-05T08:03:08Z</time>
      </trkpt>
      <trkpt lat="46.5157951" lon="9.8555902">
        <ele>1703.5935059</ele>
        <time>2009-09-05T08:03:34Z</time>
      </trkpt>
      <trkpt lat="46.5157928" lon="9.8557305">
        <ele>1781.9409180</ele>
        <time>2009-09-05T08:04:03Z</time>
      </trkpt>
      <trkpt lat="46.5157699" lon="9.8557678">
        <ele>1643.0302734</ele>
        <time>2009-09-05T08:04:04Z</time>
      </trkpt>
      <trkpt lat="46.5157377" lon="9.8557128">
        <ele>1647.8371582</ele>
        <time>2009-09-05T08:04:07Z</time>
      </trkpt>
      <trkpt lat="46.5157372" lon="9.8557044">
        <ele>1652.1628418</ele>
        <time>2009-09-05T08:04:08Z</time>
      </trkpt>
      <trkpt lat="46.5157412" lon="9.8556897">
        <ele>1656.4887695</ele>
        <time>2009-09-05T08:04:09Z</time>
      </trkpt>
      <trkpt lat="46.5157507" lon="9.8556735">
        <ele>1660.3342285</ele>
        <time>2009-09-05T08:04:10Z</time>
      </trkpt>
      <trkpt lat="46.5157555" lon="9.8556329">
        <ele>1668.5053711</ele>
        <time>2009-09-05T08:04:12Z</time>
      </trkpt>
      <trkpt lat="46.5157498" lon="9.8556403">
        <ele>1671.8698730</ele>
        <time>2009-09-05T08:04:13Z</time>
      </trkpt>
      <trkpt lat="46.5157457" lon="9.8556580">
        <ele>1675.7150879</ele>
        <time>2009-09-05T08:04:14Z</time>
      </trkpt>
      <trkpt lat="46.5157397" lon="9.8556557">
        <ele>1678.5993652</ele>
        <time>2009-09-05T08:04:15Z</time>
      </trkpt>
      <trkpt lat="46.5157424" lon="9.8556610">
        <ele>1681.9638672</ele>
        <time>2009-09-05T08:04:16Z</time>
      </trkpt>
      <trkpt lat="46.5157471" lon="9.8556592">
        <ele>1685.3283691</ele>
        <time>2009-09-05T08:04:17Z</time>
      </trkpt>
      <trkpt lat="46.5157478" lon="9.8556629">
        <ele>1688.2124023</ele>
        <time>2009-09-05T08:04:18Z</time>
      </trkpt>
      <trkpt lat="46.5157583" lon="9.8556492">
        <ele>1693.9804688</ele>
        <time>2009-09-05T08:04:20Z</time>
      </trkpt>
      <trkpt lat="46.5157764" lon="9.8556407">
        <ele>1699.7482910</ele>
        <time>2009-09-05T08:04:22Z</time>
      </trkpt>
      <trkpt lat="46.5157700" lon="9.8556567">
        <ele>1705.0354004</ele>
        <time>2009-09-05T08:04:24Z</time>
      </trkpt>
      <trkpt lat="46.5157918" lon="9.8556292">
        <ele>1710.3227539</ele>
        <time>2009-09-05T08:04:26Z</time>
      </trkpt>
      <trkpt lat="46.5157846" lon="9.8556168">
        <ele>1714.6486816</ele>
        <time>2009-09-05T08:04:28Z</time>
      </trkpt>
      <trkpt lat="46.5157697" lon="9.8556079">
        <ele>1718.9746094</ele>
        <time>2009-09-05T08:04:30Z</time>
      </trkpt>
      <trkpt lat="46.5157665" lon="9.8555979">
        <ele>1722.3391113</ele>
        <time>2009-09-05T08:04:32Z</time>
      </trkpt>
      <trkpt lat="46.5157563" lon="9.8555728">
        <ele>1725.7038574</ele>
        <time>2009-09-05T08:04:34Z</time>
      </trkpt>
      <trkpt lat="46.5157633" lon="9.8555060">
        <ele>1730.0297852</ele>
        <time>2009-09-05T08:04:37Z</time>
      </trkpt>
      <trkpt lat="46.5157748" lon="9.8554564">
        <ele>1733.3942871</ele>
        <time>2009-09-05T08:04:39Z</time>
      </trkpt>
      <trkpt lat="46.5157908" lon="9.8553832">
        <ele>1737.2395020</ele>
        <time>2009-09-05T08:04:42Z</time>
      </trkpt>
      <trkpt lat="46.5158076" lon="9.8553081">
        <ele>1741.0849609</ele>
        <time>2009-09-05T08:04:45Z</time>
      </trkpt>
      <trkpt lat="46.5158091" lon="9.8552369">
        <ele>1743.9689941</ele>
        <time>2009-09-05T08:04:48Z</time>
      </trkpt>
      <trkpt lat="46.5158160" lon="9.8551348">
        <ele>1747.8142090</ele>
        <time>2009-09-05T08:04:52Z</time>
      </trkpt>
      <trkpt lat="46.5158311" lon="9.8550447">
        <ele>1750.6979980</ele>
        <time>2009-09-05T08:04:56Z</time>
      </trkpt>
      <trkpt lat="46.5158479" lon="9.8549174">
        <ele>1754.0627441</ele>
        <time>2009-09-05T08:05:01Z</time>
      </trkpt>
      <trkpt lat="46.5158653" lon="9.8547872">
        <ele>1756.9467773</ele>
        <time>2009-09-05T08:05:06Z</time>
      </trkpt>
      <trkpt lat="46.5159215" lon="9.8546570">
        <ele>1760.3112793</ele>
        <time>2009-09-05T08:05:13Z</time>
      </trkpt>
      <trkpt lat="46.5159918" lon="9.8544842">
        <ele>1763.1953125</ele>
        <time>2009-09-05T08:05:21Z</time>
      </trkpt>
      <trkpt lat="46.5159594" lon="9.8543804">
        <ele>1764.1564941</ele>
        <time>2009-09-05T08:05:26Z</time>
      </trkpt>
      <trkpt lat="46.5157955" lon="9.8543639">
        <ele>1767.5209961</ele>
        <time>2009-09-05T08:05:34Z</time>
      </trkpt>
      <trkpt lat="46.5156257" lon="9.8544477">
        <ele>1770.8857422</ele>
        <time>2009-09-05T08:05:44Z</time>
      </trkpt>
      <trkpt lat="46.5155365" lon="9.8544777">
        <ele>1773.7697754</ele>
        <time>2009-09-05T08:05:51Z</time>
      </trkpt>
      <trkpt lat="46.5154610" lon="9.8543875">
        <ele>1776.6538086</ele>
        <time>2009-09-05T08:06:00Z</time>
      </trkpt>
      <trkpt lat="46.5154602" lon="9.8543343">
        <ele>1777.6149902</ele>
        <time>2009-09-05T08:06:03Z</time>
      </trkpt>
      <trkpt lat="46.5154446" lon="9.8540234">
        <ele>1780.9797363</ele>
        <time>2009-09-05T08:06:18Z</time>
      </trkpt>
      <trkpt lat="46.5154441" lon="9.8537599">
        <ele>1782.9020996</ele>
        <time>2009-09-05T08:06:31Z</time>
      </trkpt>
      <trkpt lat="46.5154423" lon="9.8536970">
        <ele>1783.8635254</ele>
        <time>2009-09-05T08:06:34Z</time>
      </trkpt>
      <trkpt lat="46.5154521" lon="9.8533721">
        <ele>1786.2668457</ele>
        <time>2009-09-05T08:06:48Z</time>
      </trkpt>
      <trkpt lat="46.5154229" lon="9.8532312">
        <ele>1787.7087402</ele>
        <time>2009-09-05T08:06:55Z</time>
      </trkpt>
      <trkpt lat="46.5152812" lon="9.8529270">
        <ele>1790.5927734</ele>
        <time>2009-09-05T08:07:10Z</time>
      </trkpt>
      <trkpt lat="46.5152340" lon="9.8528358">
        <ele>1791.5541992</ele>
        <time>2009-09-05T08:07:15Z</time>
      </trkpt>
      <trkpt lat="46.5151986" lon="9.8527613">
        <ele>1792.0349121</ele>
        <time>2009-09-05T08:07:19Z</time>
      </trkpt>
      <trkpt lat="46.5150904" lon="9.8525704">
        <ele>1794.4379883</ele>
        <time>2009-09-05T08:07:32Z</time>
      </trkpt>
      <trkpt lat="46.5150567" lon="9.8524994">
        <ele>1795.3994141</ele>
        <time>2009-09-05T08:07:36Z</time>
      </trkpt>
      <trkpt lat="46.5150655" lon="9.8523141">
        <ele>1796.8413086</ele>
        <time>2009-09-05T08:07:46Z</time>
      </trkpt>
      <trkpt lat="46.5150778" lon="9.8522460">
        <ele>1797.3220215</ele>
        <time>2009-09-05T08:07:50Z</time>
      </trkpt>
      <trkpt lat="46.5150087" lon="9.8520773">
        <ele>1798.7639160</ele>
        <time>2009-09-05T08:07:58Z</time>
      </trkpt>
      <trkpt lat="46.5149282" lon="9.8519864">
        <ele>1800.2060547</ele>
        <time>2009-09-05T08:08:04Z</time>
      </trkpt>
      <trkpt lat="46.5147945" lon="9.8517433">
        <ele>1802.6091309</ele>
        <time>2009-09-05T08:08:18Z</time>
      </trkpt>
      <trkpt lat="46.5147034" lon="9.8515518">
        <ele>1805.0126953</ele>
        <time>2009-09-05T08:08:29Z</time>
      </trkpt>
      <trkpt lat="46.5147081" lon="9.8514688">
        <ele>1805.4934082</ele>
        <time>2009-09-05T08:08:34Z</time>
      </trkpt>
      <trkpt lat="46.5145420" lon="9.8511903">
        <ele>1807.4160156</ele>
        <time>2009-09-05T08:08:48Z</time>
      </trkpt>
      <trkpt lat="46.5144132" lon="9.8510075">
        <ele>1808.8579102</ele>
        <time>2009-09-05T08:09:01Z</time>
      </trkpt>
      <trkpt lat="46.5144755" lon="9.8509343">
        <ele>1810.2998047</ele>
        <time>2009-09-05T08:09:08Z</time>
      </trkpt>
      <trkpt lat="46.5146391" lon="9.8510901">
        <ele>1812.2224121</ele>
        <time>2009-09-05T08:09:21Z</time>
      </trkpt>
      <trkpt lat="46.5147928" lon="9.8512186">
        <ele>1814.1450195</ele>
        <time>2009-09-05T08:09:34Z</time>
      </trkpt>
      <trkpt lat="46.5148931" lon="9.8512850">
        <ele>1815.5871582</ele>
        <time>2009-09-05T08:09:42Z</time>
      </trkpt>
      <trkpt lat="46.5149453" lon="9.8513088">
        <ele>1816.5483398</ele>
        <time>2009-09-05T08:09:46Z</time>
      </trkpt>
      <trkpt lat="46.5151712" lon="9.8513850">
        <ele>1819.4323730</ele>
        <time>2009-09-05T08:10:03Z</time>
      </trkpt>
      <trkpt lat="46.5152188" lon="9.8514039">
        <ele>1819.9128418</ele>
        <time>2009-09-05T08:10:06Z</time>
      </trkpt>
      <trkpt lat="46.5154342" lon="9.8514962">
        <ele>1822.7971191</ele>
        <time>2009-09-05T08:10:22Z</time>
      </trkpt>
      <trkpt lat="46.5154628" lon="9.8515003">
        <ele>1823.2778320</ele>
        <time>2009-09-05T08:10:24Z</time>
      </trkpt>
      <trkpt lat="46.5155285" lon="9.8515133">
        <ele>1824.2390137</ele>
        <time>2009-09-05T08:10:29Z</time>
      </trkpt>
      <trkpt lat="46.5156825" lon="9.8515625">
        <ele>1826.1616211</ele>
        <time>2009-09-05T08:10:42Z</time>
      </trkpt>
      <trkpt lat="46.5158280" lon="9.8516884">
        <ele>1828.5649414</ele>
        <time>2009-09-05T08:10:53Z</time>
      </trkpt>
      <trkpt lat="46.5159995" lon="9.8517804">
        <ele>1830.9682617</ele>
        <time>2009-09-05T08:11:06Z</time>
      </trkpt>
      <trkpt lat="46.5160646" lon="9.8518203">
        <ele>1832.4101563</ele>
        <time>2009-09-05T08:11:12Z</time>
      </trkpt>
      <trkpt lat="46.5161045" lon="9.8518522">
        <ele>1832.8906250</ele>
        <time>2009-09-05T08:11:16Z</time>
      </trkpt>
      <trkpt lat="46.5161746" lon="9.8519059">
        <ele>1833.8520508</ele>
        <time>2009-09-05T08:11:22Z</time>
      </trkpt>
      <trkpt lat="46.5162238" lon="9.8519268">
        <ele>1834.3327637</ele>
        <time>2009-09-05T08:11:25Z</time>
      </trkpt>
      <trkpt lat="46.5163559" lon="9.8520964">
        <ele>1836.7360840</ele>
        <time>2009-09-05T08:11:38Z</time>
      </trkpt>
      <trkpt lat="46.5165113" lon="9.8521961">
        <ele>1838.6589355</ele>
        <time>2009-09-05T08:11:50Z</time>
      </trkpt>
      <trkpt lat="46.5166247" lon="9.8522269">
        <ele>1840.5812988</ele>
        <time>2009-09-05T08:12:00Z</time>
      </trkpt>
      <trkpt lat="46.5166856" lon="9.8522716">
        <ele>1841.5427246</ele>
        <time>2009-09-05T08:12:05Z</time>
      </trkpt>
      <trkpt lat="46.5167318" lon="9.8522991">
        <ele>1842.0234375</ele>
        <time>2009-09-05T08:12:09Z</time>
      </trkpt>
      <trkpt lat="46.5169222" lon="9.8524052">
        <ele>1844.9072266</ele>
        <time>2009-09-05T08:12:24Z</time>
      </trkpt>
      <trkpt lat="46.5169672" lon="9.8524425">
        <ele>1845.3879395</ele>
        <time>2009-09-05T08:12:28Z</time>
      </trkpt>
      <trkpt lat="46.5170254" lon="9.8524841">
        <ele>1846.3493652</ele>
        <time>2009-09-05T08:12:32Z</time>
      </trkpt>
      <trkpt lat="46.5170859" lon="9.8525071">
        <ele>1846.8298340</ele>
        <time>2009-09-05T08:12:37Z</time>
      </trkpt>
      <trkpt lat="46.5172292" lon="9.8526016">
        <ele>1849.2331543</ele>
        <time>2009-09-05T08:12:50Z</time>
      </trkpt>
      <trkpt lat="46.5173712" lon="9.8526791">
        <ele>1851.6364746</ele>
        <time>2009-09-05T08:13:01Z</time>
      </trkpt>
      <trkpt lat="46.5173894" lon="9.8526967">
        <ele>1852.1171875</ele>
        <time>2009-09-05T08:13:03Z</time>
      </trkpt>
      <trkpt lat="46.5174416" lon="9.8526862">
        <ele>1853.0786133</ele>
        <time>2009-09-05T08:13:08Z</time>
      </trkpt>
      <trkpt lat="46.5175083" lon="9.8526139">
        <ele>1854.0400391</ele>
        <time>2009-09-05T08:13:14Z</time>
      </trkpt>
      <trkpt lat="46.5176915" lon="9.8524973">
        <ele>1856.4431152</ele>
        <time>2009-09-05T08:13:28Z</time>
      </trkpt>
      <trkpt lat="46.5177782" lon="9.8524563">
        <ele>1857.8852539</ele>
        <time>2009-09-05T08:13:36Z</time>
      </trkpt>
      <trkpt lat="46.5178352" lon="9.8524282">
        <ele>1858.3657227</ele>
        <time>2009-09-05T08:13:39Z</time>
      </trkpt>
      <trkpt lat="46.5179521" lon="9.8523794">
        <ele>1860.2883301</ele>
        <time>2009-09-05T08:13:48Z</time>
      </trkpt>
      <trkpt lat="46.5180840" lon="9.8523158">
        <ele>1862.2109375</ele>
        <time>2009-09-05T08:14:00Z</time>
      </trkpt>
      <trkpt lat="46.5181057" lon="9.8522121">
        <ele>1862.2109375</ele>
        <time>2009-09-05T08:14:12Z</time>
      </trkpt>
      <trkpt lat="46.5180871" lon="9.8521847">
        <ele>1864.1335449</ele>
        <time>2009-09-05T08:15:08Z</time>
      </trkpt>
      <trkpt lat="46.5179809" lon="9.8521231">
        <ele>1865.5756836</ele>
        <time>2009-09-05T08:15:17Z</time>
      </trkpt>
      <trkpt lat="46.5178145" lon="9.8521017">
        <ele>1867.4980469</ele>
        <time>2009-09-05T08:15:30Z</time>
      </trkpt>
      <trkpt lat="46.5176688" lon="9.8520964">
        <ele>1869.9016113</ele>
        <time>2009-09-05T08:15:42Z</time>
      </trkpt>
      <trkpt lat="46.5175416" lon="9.8521286">
        <ele>1870.8630371</ele>
        <time>2009-09-05T08:15:50Z</time>
      </trkpt>
      <trkpt lat="46.5173295" lon="9.8521620">
        <ele>1873.2663574</ele>
        <time>2009-09-05T08:16:03Z</time>
      </trkpt>
      <trkpt lat="46.5173097" lon="9.8521467">
        <ele>1873.7468262</ele>
        <time>2009-09-05T08:16:05Z</time>
      </trkpt>
      <trkpt lat="46.5172554" lon="9.8521038">
        <ele>1874.7082520</ele>
        <time>2009-09-05T08:16:10Z</time>
      </trkpt>
      <trkpt lat="46.5171265" lon="9.8519100">
        <ele>1877.1115723</ele>
        <time>2009-09-05T08:16:23Z</time>
      </trkpt>
      <trkpt lat="46.5170732" lon="9.8518119">
        <ele>1878.0727539</ele>
        <time>2009-09-05T08:16:30Z</time>
      </trkpt>
      <trkpt lat="46.5169521" lon="9.8516109">
        <ele>1880.9567871</ele>
        <time>2009-09-05T08:16:44Z</time>
      </trkpt>
      <trkpt lat="46.5168294" lon="9.8513503">
        <ele>1883.8405762</ele>
        <time>2009-09-05T08:16:59Z</time>
      </trkpt>
      <trkpt lat="46.5167951" lon="9.8512242">
        <ele>1885.2827148</ele>
        <time>2009-09-05T08:17:07Z</time>
      </trkpt>
      <trkpt lat="46.5167720" lon="9.8510073">
        <ele>1887.2053223</ele>
        <time>2009-09-05T08:17:19Z</time>
      </trkpt>
      <trkpt lat="46.5166465" lon="9.8507203">
        <ele>1890.0893555</ele>
        <time>2009-09-05T08:17:35Z</time>
      </trkpt>
      <trkpt lat="46.5164891" lon="9.8504957">
        <ele>1892.4926758</ele>
        <time>2009-09-05T08:17:49Z</time>
      </trkpt>
      <trkpt lat="46.5164067" lon="9.8504063">
        <ele>1893.4538574</ele>
        <time>2009-09-05T08:17:56Z</time>
      </trkpt>
      <trkpt lat="46.5162994" lon="9.8502266">
        <ele>1895.8571777</ele>
        <time>2009-09-05T08:18:09Z</time>
      </trkpt>
      <trkpt lat="46.5162266" lon="9.8501176">
        <ele>1897.7797852</ele>
        <time>2009-09-05T08:18:16Z</time>
      </trkpt>
      <trkpt lat="46.5162005" lon="9.8500778">
        <ele>1898.2602539</ele>
        <time>2009-09-05T08:18:19Z</time>
      </trkpt>
      <trkpt lat="46.5161048" lon="9.8499642">
        <ele>1899.7023926</ele>
        <time>2009-09-05T08:18:28Z</time>
      </trkpt>
      <trkpt lat="46.5159656" lon="9.8498436">
        <ele>1901.6252441</ele>
        <time>2009-09-05T08:18:40Z</time>
      </trkpt>
      <trkpt lat="46.5158338" lon="9.8497245">
        <ele>1903.5478516</ele>
        <time>2009-09-05T08:18:51Z</time>
      </trkpt>
      <trkpt lat="46.5157852" lon="9.8494314">
        <ele>1906.4316406</ele>
        <time>2009-09-05T08:19:08Z</time>
      </trkpt>
      <trkpt lat="46.5157508" lon="9.8491886">
        <ele>1908.3542480</ele>
        <time>2009-09-05T08:19:22Z</time>
      </trkpt>
      <trkpt lat="46.5157004" lon="9.8490205">
        <ele>1910.2768555</ele>
        <time>2009-09-05T08:19:30Z</time>
      </trkpt>
      <trkpt lat="46.5156444" lon="9.8489206">
        <ele>1910.7575684</ele>
        <time>2009-09-05T08:19:44Z</time>
      </trkpt>
      <trkpt lat="46.5156418" lon="9.8489184">
        <ele>1910.7575684</ele>
        <time>2009-09-05T08:21:08Z</time>
      </trkpt>
      <trkpt lat="46.5156022" lon="9.8488966">
        <ele>1912.1994629</ele>
        <time>2009-09-05T08:21:11Z</time>
      </trkpt>
      <trkpt lat="46.5155275" lon="9.8488856">
        <ele>1912.1994629</ele>
        <time>2009-09-05T08:21:25Z</time>
      </trkpt>
      <trkpt lat="46.5153396" lon="9.8488654">
        <ele>1915.5642090</ele>
        <time>2009-09-05T08:21:37Z</time>
      </trkpt>
      <trkpt lat="46.5152520" lon="9.8487997">
        <ele>1916.0449219</ele>
        <time>2009-09-05T08:21:43Z</time>
      </trkpt>
      <trkpt lat="46.5152323" lon="9.8487307">
        <ele>1916.5256348</ele>
        <time>2009-09-05T08:21:47Z</time>
      </trkpt>
      <trkpt lat="46.5152268" lon="9.8486519">
        <ele>1917.0063477</ele>
        <time>2009-09-05T08:21:51Z</time>
      </trkpt>
      <trkpt lat="46.5151138" lon="9.8483888">
        <ele>1919.8901367</ele>
        <time>2009-09-05T08:22:05Z</time>
      </trkpt>
      <trkpt lat="46.5148670" lon="9.8481372">
        <ele>1922.2934570</ele>
        <time>2009-09-05T08:22:21Z</time>
      </trkpt>
      <trkpt lat="46.5147636" lon="9.8478855">
        <ele>1924.6967773</ele>
        <time>2009-09-05T08:22:35Z</time>
      </trkpt>
      <trkpt lat="46.5146812" lon="9.8475768">
        <ele>1925.6579590</ele>
        <time>2009-09-05T08:22:50Z</time>
      </trkpt>
      <trkpt lat="46.5144824" lon="9.8473669">
        <ele>1927.1000977</ele>
        <time>2009-09-05T08:23:04Z</time>
      </trkpt>
      <trkpt lat="46.5143802" lon="9.8470933">
        <ele>1929.5031738</ele>
        <time>2009-09-05T08:23:18Z</time>
      </trkpt>
      <trkpt lat="46.5142491" lon="9.8468202">
        <ele>1931.4257813</ele>
        <time>2009-09-05T08:23:31Z</time>
      </trkpt>
      <trkpt lat="46.5140652" lon="9.8465090">
        <ele>1933.8293457</ele>
        <time>2009-09-05T08:23:48Z</time>
      </trkpt>
      <trkpt lat="46.5138591" lon="9.8463122">
        <ele>1936.2326660</ele>
        <time>2009-09-05T08:24:02Z</time>
      </trkpt>
      <trkpt lat="46.5137447" lon="9.8462294">
        <ele>1937.1938477</ele>
        <time>2009-09-05T08:24:10Z</time>
      </trkpt>
      <trkpt lat="46.5136070" lon="9.8462782">
        <ele>1937.6745605</ele>
        <time>2009-09-05T08:24:23Z</time>
      </trkpt>
      <trkpt lat="46.5135562" lon="9.8463216">
        <ele>1939.5971680</ele>
        <time>2009-09-05T08:25:30Z</time>
      </trkpt>
      <trkpt lat="46.5134750" lon="9.8463391">
        <ele>1940.5583496</ele>
        <time>2009-09-05T08:25:35Z</time>
      </trkpt>
      <trkpt lat="46.5132634" lon="9.8461684">
        <ele>1942.4812012</ele>
        <time>2009-09-05T08:25:48Z</time>
      </trkpt>
      <trkpt lat="46.5131486" lon="9.8460377">
        <ele>1943.9230957</ele>
        <time>2009-09-05T08:25:57Z</time>
      </trkpt>
      <trkpt lat="46.5129757" lon="9.8458088">
        <ele>1945.3649902</ele>
        <time>2009-09-05T08:26:12Z</time>
      </trkpt>
      <trkpt lat="46.5128686" lon="9.8457083">
        <ele>1946.8068848</ele>
        <time>2009-09-05T08:26:21Z</time>
      </trkpt>
      <trkpt lat="46.5128109" lon="9.8456723">
        <ele>1947.7683105</ele>
        <time>2009-09-05T08:26:26Z</time>
      </trkpt>
      <trkpt lat="46.5126609" lon="9.8456431">
        <ele>1949.2104492</ele>
        <time>2009-09-05T08:26:38Z</time>
      </trkpt>
      <trkpt lat="46.5125592" lon="9.8456624">
        <ele>1950.1718750</ele>
        <time>2009-09-05T08:26:44Z</time>
      </trkpt>
      <trkpt lat="46.5123187" lon="9.8456472">
        <ele>1952.0942383</ele>
        <time>2009-09-05T08:26:59Z</time>
      </trkpt>
      <trkpt lat="46.5122144" lon="9.8456334">
        <ele>1953.0556641</ele>
        <time>2009-09-05T08:27:05Z</time>
      </trkpt>
      <trkpt lat="46.5120046" lon="9.8455516">
        <ele>1954.0170898</ele>
        <time>2009-09-05T08:27:19Z</time>
      </trkpt>
      <trkpt lat="46.5118497" lon="9.8455205">
        <ele>1955.9394531</ele>
        <time>2009-09-05T08:27:29Z</time>
      </trkpt>
      <trkpt lat="46.5116906" lon="9.8454416">
        <ele>1956.9008789</ele>
        <time>2009-09-05T08:27:39Z</time>
      </trkpt>
      <trkpt lat="46.5115358" lon="9.8452932">
        <ele>1958.8234863</ele>
        <time>2009-09-05T08:27:52Z</time>
      </trkpt>
      <trkpt lat="46.5112828" lon="9.8452412">
        <ele>1960.2653809</ele>
        <time>2009-09-05T08:28:07Z</time>
      </trkpt>
      <trkpt lat="46.5110834" lon="9.8451308">
        <ele>1961.7075195</ele>
        <time>2009-09-05T08:28:21Z</time>
      </trkpt>
      <trkpt lat="46.5108810" lon="9.8450890">
        <ele>1963.1494141</ele>
        <time>2009-09-05T08:28:32Z</time>
      </trkpt>
      <trkpt lat="46.5106442" lon="9.8451271">
        <ele>1965.0722656</ele>
        <time>2009-09-05T08:28:46Z</time>
      </trkpt>
      <trkpt lat="46.5104335" lon="9.8450868">
        <ele>1966.5141602</ele>
        <time>2009-09-05T08:29:00Z</time>
      </trkpt>
      <trkpt lat="46.5101988" lon="9.8450220">
        <ele>1967.9560547</ele>
        <time>2009-09-05T08:29:13Z</time>
      </trkpt>
      <trkpt lat="46.5099659" lon="9.8449686">
        <ele>1969.3981934</ele>
        <time>2009-09-05T08:29:27Z</time>
      </trkpt>
      <trkpt lat="46.5097487" lon="9.8449650">
        <ele>1971.8012695</ele>
        <time>2009-09-05T08:29:41Z</time>
      </trkpt>
      <trkpt lat="46.5094790" lon="9.8449408">
        <ele>1973.7238770</ele>
        <time>2009-09-05T08:29:57Z</time>
      </trkpt>
      <trkpt lat="46.5092355" lon="9.8448967">
        <ele>1975.1657715</ele>
        <time>2009-09-05T08:30:10Z</time>
      </trkpt>
      <trkpt lat="46.5090060" lon="9.8449448">
        <ele>1976.6079102</ele>
        <time>2009-09-05T08:30:24Z</time>
      </trkpt>
      <trkpt lat="46.5088215" lon="9.8450175">
        <ele>1978.5305176</ele>
        <time>2009-09-05T08:30:37Z</time>
      </trkpt>
      <trkpt lat="46.5086787" lon="9.8450474">
        <ele>1979.9724121</ele>
        <time>2009-09-05T08:30:48Z</time>
      </trkpt>
      <trkpt lat="46.5087080" lon="9.8449759">
        <ele>1980.9340820</ele>
        <time>2009-09-05T08:30:53Z</time>
      </trkpt>
      <trkpt lat="46.5087673" lon="9.8449554">
        <ele>1981.4145508</ele>
        <time>2009-09-05T08:30:57Z</time>
      </trkpt>
      <trkpt lat="46.5089442" lon="9.8448748">
        <ele>1983.8178711</ele>
        <time>2009-09-05T08:31:10Z</time>
      </trkpt>
      <trkpt lat="46.5091395" lon="9.8447666">
        <ele>1985.7404785</ele>
        <time>2009-09-05T08:31:23Z</time>
      </trkpt>
      <trkpt lat="46.5092378" lon="9.8447905">
        <ele>1986.7016602</ele>
        <time>2009-09-05T08:31:28Z</time>
      </trkpt>
      <trkpt lat="46.5092602" lon="9.8447978">
        <ele>1987.6630859</ele>
        <time>2009-09-05T08:31:31Z</time>
      </trkpt>
      <trkpt lat="46.5094133" lon="9.8447332">
        <ele>1989.5856934</ele>
        <time>2009-09-05T08:31:43Z</time>
      </trkpt>
      <trkpt lat="46.5094640" lon="9.8446815">
        <ele>1990.0664063</ele>
        <time>2009-09-05T08:31:47Z</time>
      </trkpt>
      <trkpt lat="46.5096477" lon="9.8445498">
        <ele>1991.9890137</ele>
        <time>2009-09-05T08:32:00Z</time>
      </trkpt>
      <trkpt lat="46.5096967" lon="9.8445287">
        <ele>1992.4697266</ele>
        <time>2009-09-05T08:32:03Z</time>
      </trkpt>
      <trkpt lat="46.5098331" lon="9.8444462">
        <ele>1994.3920898</ele>
        <time>2009-09-05T08:32:13Z</time>
      </trkpt>
      <trkpt lat="46.5099720" lon="9.8444169">
        <ele>1996.3151855</ele>
        <time>2009-09-05T08:32:25Z</time>
      </trkpt>
      <trkpt lat="46.5101930" lon="9.8443665">
        <ele>1998.7182617</ele>
        <time>2009-09-05T08:32:38Z</time>
      </trkpt>
      <trkpt lat="46.5104084" lon="9.8442886">
        <ele>2000.1604004</ele>
        <time>2009-09-05T08:32:51Z</time>
      </trkpt>
      <trkpt lat="46.5104483" lon="9.8443133">
        <ele>2001.1215820</ele>
        <time>2009-09-05T08:32:54Z</time>
      </trkpt>
      <trkpt lat="46.5105257" lon="9.8442992">
        <ele>2001.6022949</ele>
        <time>2009-09-05T08:33:00Z</time>
      </trkpt>
      <trkpt lat="46.5107240" lon="9.8442442">
        <ele>2004.4860840</ele>
        <time>2009-09-05T08:33:13Z</time>
      </trkpt>
      <trkpt lat="46.5108106" lon="9.8441644">
        <ele>2006.4086914</ele>
        <time>2009-09-05T08:33:21Z</time>
      </trkpt>
      <trkpt lat="46.5107349" lon="9.8440083">
        <ele>2007.3701172</ele>
        <time>2009-09-05T08:33:32Z</time>
      </trkpt>
      <trkpt lat="46.5105558" lon="9.8440304">
        <ele>2009.2927246</ele>
        <time>2009-09-05T08:33:46Z</time>
      </trkpt>
      <trkpt lat="46.5103450" lon="9.8439185">
        <ele>2011.2153320</ele>
        <time>2009-09-05T08:34:00Z</time>
      </trkpt>
      <trkpt lat="46.5101559" lon="9.8439026">
        <ele>2012.1767578</ele>
        <time>2009-09-05T08:34:13Z</time>
      </trkpt>
      <trkpt lat="46.5099730" lon="9.8439033">
        <ele>2013.6186523</ele>
        <time>2009-09-05T08:34:25Z</time>
      </trkpt>
      <trkpt lat="46.5099111" lon="9.8438849">
        <ele>2014.5800781</ele>
        <time>2009-09-05T08:34:30Z</time>
      </trkpt>
      <trkpt lat="46.5096915" lon="9.8438478">
        <ele>2016.0219727</ele>
        <time>2009-09-05T08:34:44Z</time>
      </trkpt>
      <trkpt lat="46.5095026" lon="9.8438276">
        <ele>2017.4638672</ele>
        <time>2009-09-05T08:34:57Z</time>
      </trkpt>
      <trkpt lat="46.5093446" lon="9.8438158">
        <ele>2018.9060059</ele>
        <time>2009-09-05T08:35:08Z</time>
      </trkpt>
      <trkpt lat="46.5092319" lon="9.8438398">
        <ele>2019.8671875</ele>
        <time>2009-09-05T08:35:15Z</time>
      </trkpt>
      <trkpt lat="46.5089809" lon="9.8437739">
        <ele>2021.7897949</ele>
        <time>2009-09-05T08:35:31Z</time>
      </trkpt>
      <trkpt lat="46.5088488" lon="9.8436736">
        <ele>2022.7512207</ele>
        <time>2009-09-05T08:35:41Z</time>
      </trkpt>
      <trkpt lat="46.5086179" lon="9.8435853">
        <ele>2024.6738281</ele>
        <time>2009-09-05T08:35:57Z</time>
      </trkpt>
      <trkpt lat="46.5083598" lon="9.8435293">
        <ele>2026.5964355</ele>
        <time>2009-09-05T08:36:11Z</time>
      </trkpt>
      <trkpt lat="46.5081787" lon="9.8435636">
        <ele>2027.5576172</ele>
        <time>2009-09-05T08:36:22Z</time>
      </trkpt>
      <trkpt lat="46.5081151" lon="9.8436225">
        <ele>2028.0385742</ele>
        <time>2009-09-05T08:36:28Z</time>
      </trkpt>
      <trkpt lat="46.5079517" lon="9.8438373">
        <ele>2029.9611816</ele>
        <time>2009-09-05T08:36:44Z</time>
      </trkpt>
      <trkpt lat="46.5076248" lon="9.8437627">
        <ele>2030.9226074</ele>
        <time>2009-09-05T08:36:59Z</time>
      </trkpt>
      <trkpt lat="46.5074375" lon="9.8434371">
        <ele>2031.4030762</ele>
        <time>2009-09-05T08:37:11Z</time>
      </trkpt>
      <trkpt lat="46.5072145" lon="9.8432944">
        <ele>2032.3645020</ele>
        <time>2009-09-05T08:37:22Z</time>
      </trkpt>
      <trkpt lat="46.5070083" lon="9.8432894">
        <ele>2034.2871094</ele>
        <time>2009-09-05T08:37:35Z</time>
      </trkpt>
      <trkpt lat="46.5068649" lon="9.8432964">
        <ele>2035.7290039</ele>
        <time>2009-09-05T08:37:44Z</time>
      </trkpt>
      <trkpt lat="46.5069017" lon="9.8431728">
        <ele>2036.6901855</ele>
        <time>2009-09-05T08:37:55Z</time>
      </trkpt>
      <trkpt lat="46.5070558" lon="9.8431515">
        <ele>2038.6130371</ele>
        <time>2009-09-05T08:38:05Z</time>
      </trkpt>
      <trkpt lat="46.5072283" lon="9.8430976">
        <ele>2041.0161133</ele>
        <time>2009-09-05T08:38:16Z</time>
      </trkpt>
      <trkpt lat="46.5074242" lon="9.8430333">
        <ele>2042.4582520</ele>
        <time>2009-09-05T08:38:28Z</time>
      </trkpt>
      <trkpt lat="46.5076831" lon="9.8430020">
        <ele>2045.3422852</ele>
        <time>2009-09-05T08:38:42Z</time>
      </trkpt>
      <trkpt lat="46.5078565" lon="9.8429958">
        <ele>2047.2648926</ele>
        <time>2009-09-05T08:38:53Z</time>
      </trkpt>
      <trkpt lat="46.5080425" lon="9.8430288">
        <ele>2049.6682129</ele>
        <time>2009-09-05T08:39:05Z</time>
      </trkpt>
      <trkpt lat="46.5081430" lon="9.8430369">
        <ele>2051.5908203</ele>
        <time>2009-09-05T08:39:14Z</time>
      </trkpt>
      <trkpt lat="46.5083336" lon="9.8429593">
        <ele>2053.0327148</ele>
        <time>2009-09-05T08:39:26Z</time>
      </trkpt>
      <trkpt lat="46.5083914" lon="9.8429086">
        <ele>2053.9941406</ele>
        <time>2009-09-05T08:39:30Z</time>
      </trkpt>
      <trkpt lat="46.5084314" lon="9.8428184">
        <ele>2054.9553223</ele>
        <time>2009-09-05T08:39:35Z</time>
      </trkpt>
      <trkpt lat="46.5084609" lon="9.8426883">
        <ele>2055.4360352</ele>
        <time>2009-09-05T08:39:39Z</time>
      </trkpt>
      <trkpt lat="46.5085579" lon="9.8425594">
        <ele>2057.3586426</ele>
        <time>2009-09-05T08:39:49Z</time>
      </trkpt>
      <trkpt lat="46.5087138" lon="9.8425878">
        <ele>2059.2812500</ele>
        <time>2009-09-05T08:40:02Z</time>
      </trkpt>
      <trkpt lat="46.5088093" lon="9.8427246">
        <ele>2061.2041016</ele>
        <time>2009-09-05T08:40:12Z</time>
      </trkpt>
      <trkpt lat="46.5088655" lon="9.8427032">
        <ele>2061.2041016</ele>
        <time>2009-09-05T08:40:17Z</time>
      </trkpt>
      <trkpt lat="46.5088888" lon="9.8426084">
        <ele>2061.6848145</ele>
        <time>2009-09-05T08:40:22Z</time>
      </trkpt>
      <trkpt lat="46.5087355" lon="9.8424319">
        <ele>2063.6071777</ele>
        <time>2009-09-05T08:40:35Z</time>
      </trkpt>
      <trkpt lat="46.5085136" lon="9.8423202">
        <ele>2065.0493164</ele>
        <time>2009-09-05T08:40:50Z</time>
      </trkpt>
      <trkpt lat="46.5083138" lon="9.8423441">
        <ele>2066.9719238</ele>
        <time>2009-09-05T08:41:04Z</time>
      </trkpt>
      <trkpt lat="46.5081971" lon="9.8423780">
        <ele>2067.9331055</ele>
        <time>2009-09-05T08:41:12Z</time>
      </trkpt>
      <trkpt lat="46.5079854" lon="9.8424463">
        <ele>2070.3364258</ele>
        <time>2009-09-05T08:41:28Z</time>
      </trkpt>
      <trkpt lat="46.5078686" lon="9.8424654">
        <ele>2071.2976074</ele>
        <time>2009-09-05T08:41:36Z</time>
      </trkpt>
      <trkpt lat="46.5076559" lon="9.8423765">
        <ele>2073.7009277</ele>
        <time>2009-09-05T08:41:52Z</time>
      </trkpt>
      <trkpt lat="46.5074508" lon="9.8422656">
        <ele>2075.1428223</ele>
        <time>2009-09-05T08:42:06Z</time>
      </trkpt>
      <trkpt lat="46.5074026" lon="9.8422326">
        <ele>2075.6235352</ele>
        <time>2009-09-05T08:42:10Z</time>
      </trkpt>
      <trkpt lat="46.5073086" lon="9.8421771">
        <ele>2076.1044922</ele>
        <time>2009-09-05T08:42:16Z</time>
      </trkpt>
      <trkpt lat="46.5070896" lon="9.8419753">
        <ele>2078.5078125</ele>
        <time>2009-09-05T08:42:32Z</time>
      </trkpt>
      <trkpt lat="46.5070787" lon="9.8419650">
        <ele>2078.9882813</ele>
        <time>2009-09-05T08:42:33Z</time>
      </trkpt>
      <trkpt lat="46.5068830" lon="9.8418461">
        <ele>2081.3916016</ele>
        <time>2009-09-05T08:42:47Z</time>
      </trkpt>
      <trkpt lat="46.5067113" lon="9.8417693">
        <ele>2083.3142090</ele>
        <time>2009-09-05T08:42:59Z</time>
      </trkpt>
      <trkpt lat="46.5065311" lon="9.8415547">
        <ele>2084.7563477</ele>
        <time>2009-09-05T08:43:13Z</time>
      </trkpt>
      <trkpt lat="46.5063595" lon="9.8413286">
        <ele>2086.1982422</ele>
        <time>2009-09-05T08:43:27Z</time>
      </trkpt>
      <trkpt lat="46.5062057" lon="9.8411438">
        <ele>2087.6401367</ele>
        <time>2009-09-05T08:43:39Z</time>
      </trkpt>
      <trkpt lat="46.5060677" lon="9.8409079">
        <ele>2088.6015625</ele>
        <time>2009-09-05T08:43:51Z</time>
      </trkpt>
      <trkpt lat="46.5059502" lon="9.8405837">
        <ele>2088.6015625</ele>
        <time>2009-09-05T08:44:06Z</time>
      </trkpt>
      <trkpt lat="46.5057533" lon="9.8406182">
        <ele>2085.2368164</ele>
        <time>2009-09-05T08:44:14Z</time>
      </trkpt>
      <trkpt lat="46.5057077" lon="9.8406351">
        <ele>2085.7175293</ele>
        <time>2009-09-05T08:44:16Z</time>
      </trkpt>
      <trkpt lat="46.5056563" lon="9.8407090">
        <ele>2085.7175293</ele>
        <time>2009-09-05T08:44:22Z</time>
      </trkpt>
      <trkpt lat="46.5056774" lon="9.8406973">
        <ele>2085.7175293</ele>
        <time>2009-09-05T08:44:25Z</time>
      </trkpt>
      <trkpt lat="46.5057935" lon="9.8406265">
        <ele>2086.6787109</ele>
        <time>2009-09-05T08:44:33Z</time>
      </trkpt>
      <trkpt lat="46.5059537" lon="9.8405974">
        <ele>2088.1208496</ele>
        <time>2009-09-05T08:44:44Z</time>
      </trkpt>
      <trkpt lat="46.5059975" lon="9.8403905">
        <ele>2088.6015625</ele>
        <time>2009-09-05T08:44:54Z</time>
      </trkpt>
      <trkpt lat="46.5060599" lon="9.8401974">
        <ele>2089.5627441</ele>
        <time>2009-09-05T08:45:04Z</time>
      </trkpt>
      <trkpt lat="46.5062961" lon="9.8400916">
        <ele>2090.5239258</ele>
        <time>2009-09-05T08:45:19Z</time>
      </trkpt>
      <trkpt lat="46.5066260" lon="9.8401700">
        <ele>2090.5239258</ele>
        <time>2009-09-05T08:45:35Z</time>
      </trkpt>
      <trkpt lat="46.5068940" lon="9.8401578">
        <ele>2090.0434570</ele>
        <time>2009-09-05T08:45:48Z</time>
      </trkpt>
      <trkpt lat="46.5071085" lon="9.8403367">
        <ele>2093.4082031</ele>
        <time>2009-09-05T08:46:01Z</time>
      </trkpt>
      <trkpt lat="46.5073195" lon="9.8405111">
        <ele>2096.7727051</ele>
        <time>2009-09-05T08:46:15Z</time>
      </trkpt>
      <trkpt lat="46.5073337" lon="9.8405262">
        <ele>2097.2534180</ele>
        <time>2009-09-05T08:46:16Z</time>
      </trkpt>
      <trkpt lat="46.5074161" lon="9.8406184">
        <ele>2098.2145996</ele>
        <time>2009-09-05T08:46:22Z</time>
      </trkpt>
      <trkpt lat="46.5074795" lon="9.8407085">
        <ele>2099.6567383</ele>
        <time>2009-09-05T08:46:28Z</time>
      </trkpt>
      <trkpt lat="46.5077045" lon="9.8408243">
        <ele>2103.0212402</ele>
        <time>2009-09-05T08:46:43Z</time>
      </trkpt>
      <trkpt lat="46.5079841" lon="9.8407771">
        <ele>2104.4631348</ele>
        <time>2009-09-05T08:46:59Z</time>
      </trkpt>
      <trkpt lat="46.5082231" lon="9.8406446">
        <ele>2104.9438477</ele>
        <time>2009-09-05T08:47:13Z</time>
      </trkpt>
      <trkpt lat="46.5083042" lon="9.8405209">
        <ele>2103.5019531</ele>
        <time>2009-09-05T08:47:16Z</time>
      </trkpt>
      <trkpt lat="46.5086297" lon="9.8402720">
        <ele>2104.4631348</ele>
        <time>2009-09-05T08:47:28Z</time>
      </trkpt>
      <trkpt lat="46.5088323" lon="9.8402100">
        <ele>2105.9050293</ele>
        <time>2009-09-05T08:47:42Z</time>
      </trkpt>
      <trkpt lat="46.5088701" lon="9.8401992">
        <ele>2106.8664551</ele>
        <time>2009-09-05T08:47:45Z</time>
      </trkpt>
      <trkpt lat="46.5090369" lon="9.8401770">
        <ele>2109.2700195</ele>
        <time>2009-09-05T08:47:57Z</time>
      </trkpt>
      <trkpt lat="46.5090934" lon="9.8400820">
        <ele>2110.7119141</ele>
        <time>2009-09-05T08:48:04Z</time>
      </trkpt>
      <trkpt lat="46.5090698" lon="9.8398174">
        <ele>2112.1538086</ele>
        <time>2009-09-05T08:48:17Z</time>
      </trkpt>
      <trkpt lat="46.5090572" lon="9.8397195">
        <ele>2113.1152344</ele>
        <time>2009-09-05T08:48:23Z</time>
      </trkpt>
      <trkpt lat="46.5089955" lon="9.8396168">
        <ele>2114.5571289</ele>
        <time>2009-09-05T08:48:30Z</time>
      </trkpt>
      <trkpt lat="46.5089406" lon="9.8395286">
        <ele>2115.0378418</ele>
        <time>2009-09-05T08:48:35Z</time>
      </trkpt>
      <trkpt lat="46.5088674" lon="9.8392662">
        <ele>2116.9604492</ele>
        <time>2009-09-05T08:48:50Z</time>
      </trkpt>
      <trkpt lat="46.5088521" lon="9.8391946">
        <ele>2117.4409180</ele>
        <time>2009-09-05T08:48:54Z</time>
      </trkpt>
      <trkpt lat="46.5087703" lon="9.8390729">
        <ele>2118.4023438</ele>
        <time>2009-09-05T08:49:02Z</time>
      </trkpt>
      <trkpt lat="46.5086542" lon="9.8389881">
        <ele>2119.8442383</ele>
        <time>2009-09-05T08:49:13Z</time>
      </trkpt>
      <trkpt lat="46.5086083" lon="9.8389979">
        <ele>2120.8056641</ele>
        <time>2009-09-05T08:49:17Z</time>
      </trkpt>
      <trkpt lat="46.5085236" lon="9.8390535">
        <ele>2121.2861328</ele>
        <time>2009-09-05T08:49:23Z</time>
      </trkpt>
      <trkpt lat="46.5084396" lon="9.8391749">
        <ele>2124.1704102</ele>
        <time>2009-09-05T08:49:34Z</time>
      </trkpt>
      <trkpt lat="46.5084023" lon="9.8391559">
        <ele>2124.1704102</ele>
        <time>2009-09-05T08:49:37Z</time>
      </trkpt>
      <trkpt lat="46.5083614" lon="9.8390939">
        <ele>2124.6511230</ele>
        <time>2009-09-05T08:49:41Z</time>
      </trkpt>
      <trkpt lat="46.5083702" lon="9.8390198">
        <ele>2124.6511230</ele>
        <time>2009-09-05T08:49:45Z</time>
      </trkpt>
      <trkpt lat="46.5085233" lon="9.8388799">
        <ele>2126.0930176</ele>
        <time>2009-09-05T08:49:59Z</time>
      </trkpt>
      <trkpt lat="46.5087740" lon="9.8387178">
        <ele>2126.5737305</ele>
        <time>2009-09-05T08:50:16Z</time>
      </trkpt>
      <trkpt lat="46.5089444" lon="9.8385667">
        <ele>2128.9768066</ele>
        <time>2009-09-05T08:50:33Z</time>
      </trkpt>
      <trkpt lat="46.5090155" lon="9.8385339">
        <ele>2129.9382324</ele>
        <time>2009-09-05T08:50:40Z</time>
      </trkpt>
      <trkpt lat="46.5090457" lon="9.8385171">
        <ele>2130.8996582</ele>
        <time>2009-09-05T08:50:43Z</time>
      </trkpt>
      <trkpt lat="46.5091090" lon="9.8385049">
        <ele>2131.3801270</ele>
        <time>2009-09-05T08:50:48Z</time>
      </trkpt>
      <trkpt lat="46.5092716" lon="9.8385194">
        <ele>2134.7448730</ele>
        <time>2009-09-05T08:51:03Z</time>
      </trkpt>
      <trkpt lat="46.5093910" lon="9.8385515">
        <ele>2137.6286621</ele>
        <time>2009-09-05T08:51:14Z</time>
      </trkpt>
      <trkpt lat="46.5094808" lon="9.8385499">
        <ele>2139.0705566</ele>
        <time>2009-09-05T08:51:21Z</time>
      </trkpt>
      <trkpt lat="46.5095071" lon="9.8385492">
        <ele>2139.5512695</ele>
        <time>2009-09-05T08:51:24Z</time>
      </trkpt>
      <trkpt lat="46.5095802" lon="9.8385235">
        <ele>2140.9934082</ele>
        <time>2009-09-05T08:51:31Z</time>
      </trkpt>
      <trkpt lat="46.5096719" lon="9.8384700">
        <ele>2141.9548340</ele>
        <time>2009-09-05T08:51:40Z</time>
      </trkpt>
      <trkpt lat="46.5097100" lon="9.8384670">
        <ele>2142.4355469</ele>
        <time>2009-09-05T08:51:44Z</time>
      </trkpt>
      <trkpt lat="46.5097719" lon="9.8384252">
        <ele>2142.9160156</ele>
        <time>2009-09-05T08:51:50Z</time>
      </trkpt>
      <trkpt lat="46.5098135" lon="9.8384393">
        <ele>2143.8774414</ele>
        <time>2009-09-05T08:51:54Z</time>
      </trkpt>
      <trkpt lat="46.5098678" lon="9.8384013">
        <ele>2144.8386230</ele>
        <time>2009-09-05T08:52:00Z</time>
      </trkpt>
      <trkpt lat="46.5099382" lon="9.8384162">
        <ele>2146.2807617</ele>
        <time>2009-09-05T08:52:08Z</time>
      </trkpt>
      <trkpt lat="46.5099792" lon="9.8383961">
        <ele>2146.7612305</ele>
        <time>2009-09-05T08:52:12Z</time>
      </trkpt>
      <trkpt lat="46.5100430" lon="9.8384094">
        <ele>2147.2419434</ele>
        <time>2009-09-05T08:52:18Z</time>
      </trkpt>
      <trkpt lat="46.5100776" lon="9.8383994">
        <ele>2148.2031250</ele>
        <time>2009-09-05T08:52:22Z</time>
      </trkpt>
      <trkpt lat="46.5101152" lon="9.8384356">
        <ele>2149.1645508</ele>
        <time>2009-09-05T08:52:27Z</time>
      </trkpt>
      <trkpt lat="46.5101564" lon="9.8384594">
        <ele>2150.1259766</ele>
        <time>2009-09-05T08:52:32Z</time>
      </trkpt>
      <trkpt lat="46.5102798" lon="9.8385708">
        <ele>2152.0483398</ele>
        <time>2009-09-05T08:52:47Z</time>
      </trkpt>
      <trkpt lat="46.5102968" lon="9.8386256">
        <ele>2153.0097656</ele>
        <time>2009-09-05T08:52:51Z</time>
      </trkpt>
      <trkpt lat="46.5104143" lon="9.8387292">
        <ele>2155.4130859</ele>
        <time>2009-09-05T08:53:05Z</time>
      </trkpt>
      <trkpt lat="46.5104834" lon="9.8388571">
        <ele>2157.8166504</ele>
        <time>2009-09-05T08:53:19Z</time>
      </trkpt>
      <trkpt lat="46.5105080" lon="9.8388901">
        <ele>2158.7778320</ele>
        <time>2009-09-05T08:53:22Z</time>
      </trkpt>
      <trkpt lat="46.5105640" lon="9.8389134">
        <ele>2159.2585449</ele>
        <time>2009-09-05T08:53:26Z</time>
      </trkpt>
      <trkpt lat="46.5105873" lon="9.8389543">
        <ele>2159.7390137</ele>
        <time>2009-09-05T08:53:30Z</time>
      </trkpt>
      <trkpt lat="46.5106329" lon="9.8389914">
        <ele>2160.7004395</ele>
        <time>2009-09-05T08:53:35Z</time>
      </trkpt>
      <trkpt lat="46.5107008" lon="9.8390803">
        <ele>2162.6230469</ele>
        <time>2009-09-05T08:53:43Z</time>
      </trkpt>
      <trkpt lat="46.5107297" lon="9.8391125">
        <ele>2164.0649414</ele>
        <time>2009-09-05T08:53:48Z</time>
      </trkpt>
      <trkpt lat="46.5107443" lon="9.8391393">
        <ele>2164.0649414</ele>
        <time>2009-09-05T08:53:50Z</time>
      </trkpt>
      <trkpt lat="46.5108534" lon="9.8392138">
        <ele>2166.4682617</ele>
        <time>2009-09-05T08:54:03Z</time>
      </trkpt>
      <trkpt lat="46.5108907" lon="9.8392502">
        <ele>2167.4294434</ele>
        <time>2009-09-05T08:54:08Z</time>
      </trkpt>
      <trkpt lat="46.5109811" lon="9.8393083">
        <ele>2168.8715820</ele>
        <time>2009-09-05T08:54:18Z</time>
      </trkpt>
      <trkpt lat="46.5110002" lon="9.8393410">
        <ele>2169.8327637</ele>
        <time>2009-09-05T08:54:22Z</time>
      </trkpt>
      <trkpt lat="46.5110361" lon="9.8393619">
        <ele>2171.2746582</ele>
        <time>2009-09-05T08:54:27Z</time>
      </trkpt>
      <trkpt lat="46.5111335" lon="9.8394293">
        <ele>2173.1977539</ele>
        <time>2009-09-05T08:54:40Z</time>
      </trkpt>
      <trkpt lat="46.5111933" lon="9.8394596">
        <ele>2174.6396484</ele>
        <time>2009-09-05T08:54:48Z</time>
      </trkpt>
      <trkpt lat="46.5112965" lon="9.8394926">
        <ele>2176.5622559</ele>
        <time>2009-09-05T08:55:01Z</time>
      </trkpt>
      <trkpt lat="46.5114081" lon="9.8395248">
        <ele>2178.9653320</ele>
        <time>2009-09-05T08:55:14Z</time>
      </trkpt>
      <trkpt lat="46.5114472" lon="9.8395187">
        <ele>2179.9267578</ele>
        <time>2009-09-05T08:55:19Z</time>
      </trkpt>
      <trkpt lat="46.5114778" lon="9.8395423">
        <ele>2180.8881836</ele>
        <time>2009-09-05T08:55:23Z</time>
      </trkpt>
      <trkpt lat="46.5114951" lon="9.8395342">
        <ele>2181.3686523</ele>
        <time>2009-09-05T08:55:25Z</time>
      </trkpt>
      <trkpt lat="46.5116215" lon="9.8395492">
        <ele>2183.2912598</ele>
        <time>2009-09-05T08:55:38Z</time>
      </trkpt>
      <trkpt lat="46.5116605" lon="9.8395311">
        <ele>2183.7719727</ele>
        <time>2009-09-05T08:55:42Z</time>
      </trkpt>
      <trkpt lat="46.5117173" lon="9.8395117">
        <ele>2184.7333984</ele>
        <time>2009-09-05T08:55:49Z</time>
      </trkpt>
      <trkpt lat="46.5117525" lon="9.8395098">
        <ele>2185.2138672</ele>
        <time>2009-09-05T08:55:53Z</time>
      </trkpt>
      <trkpt lat="46.5118452" lon="9.8394445">
        <ele>2187.1364746</ele>
        <time>2009-09-05T08:56:06Z</time>
      </trkpt>
      <trkpt lat="46.5119525" lon="9.8393805">
        <ele>2189.0593262</ele>
        <time>2009-09-05T08:56:19Z</time>
      </trkpt>
      <trkpt lat="46.5119883" lon="9.8393256">
        <ele>2189.5400391</ele>
        <time>2009-09-05T08:56:23Z</time>
      </trkpt>
      <trkpt lat="46.5120112" lon="9.8393295">
        <ele>2190.5012207</ele>
        <time>2009-09-05T08:56:26Z</time>
      </trkpt>
      <trkpt lat="46.5120521" lon="9.8392966">
        <ele>2190.9819336</ele>
        <time>2009-09-05T08:56:31Z</time>
      </trkpt>
      <trkpt lat="46.5121165" lon="9.8393421">
        <ele>2191.4626465</ele>
        <time>2009-09-05T08:56:37Z</time>
      </trkpt>
      <trkpt lat="46.5122453" lon="9.8393762">
        <ele>2193.3852539</ele>
        <time>2009-09-05T08:56:51Z</time>
      </trkpt>
      <trkpt lat="46.5122657" lon="9.8393843">
        <ele>2193.8659668</ele>
        <time>2009-09-05T08:56:54Z</time>
      </trkpt>
      <trkpt lat="46.5122807" lon="9.8393764">
        <ele>2194.3464355</ele>
        <time>2009-09-05T08:56:56Z</time>
      </trkpt>
      <trkpt lat="46.5123129" lon="9.8393780">
        <ele>2195.3078613</ele>
        <time>2009-09-05T08:57:00Z</time>
      </trkpt>
      <trkpt lat="46.5123673" lon="9.8393626">
        <ele>2195.7885742</ele>
        <time>2009-09-05T08:57:05Z</time>
      </trkpt>
      <trkpt lat="46.5124188" lon="9.8393594">
        <ele>2196.7497559</ele>
        <time>2009-09-05T08:57:11Z</time>
      </trkpt>
      <trkpt lat="46.5124976" lon="9.8393337">
        <ele>2198.1916504</ele>
        <time>2009-09-05T08:57:20Z</time>
      </trkpt>
      <trkpt lat="46.5125387" lon="9.8393503">
        <ele>2198.6723633</ele>
        <time>2009-09-05T08:57:25Z</time>
      </trkpt>
      <trkpt lat="46.5125880" lon="9.8393305">
        <ele>2200.1145020</ele>
        <time>2009-09-05T08:57:30Z</time>
      </trkpt>
      <trkpt lat="46.5126310" lon="9.8393379">
        <ele>2200.5949707</ele>
        <time>2009-09-05T08:57:35Z</time>
      </trkpt>
      <trkpt lat="46.5126981" lon="9.8393472">
        <ele>2201.0756836</ele>
        <time>2009-09-05T08:57:41Z</time>
      </trkpt>
      <trkpt lat="46.5127458" lon="9.8393337">
        <ele>2202.0368652</ele>
        <time>2009-09-05T08:57:46Z</time>
      </trkpt>
      <trkpt lat="46.5128008" lon="9.8393539">
        <ele>2202.9982910</ele>
        <time>2009-09-05T08:57:53Z</time>
      </trkpt>
      <trkpt lat="46.5128293" lon="9.8393500">
        <ele>2203.4790039</ele>
        <time>2009-09-05T08:57:56Z</time>
      </trkpt>
      <trkpt lat="46.5128852" lon="9.8392466">
        <ele>2204.4404297</ele>
        <time>2009-09-05T08:58:04Z</time>
      </trkpt>
      <trkpt lat="46.5128921" lon="9.8392281">
        <ele>2204.9211426</ele>
        <time>2009-09-05T08:58:06Z</time>
      </trkpt>
      <trkpt lat="46.5128804" lon="9.8391866">
        <ele>2204.9211426</ele>
        <time>2009-09-05T08:58:09Z</time>
      </trkpt>
      <trkpt lat="46.5127166" lon="9.8389937">
        <ele>2206.8437500</ele>
        <time>2009-09-05T08:58:27Z</time>
      </trkpt>
      <trkpt lat="46.5126764" lon="9.8389310">
        <ele>2207.8051758</ele>
        <time>2009-09-05T08:58:35Z</time>
      </trkpt>
      <trkpt lat="46.5126921" lon="9.8388159">
        <ele>2208.2856445</ele>
        <time>2009-09-05T08:58:43Z</time>
      </trkpt>
      <trkpt lat="46.5127493" lon="9.8387757">
        <ele>2209.2470703</ele>
        <time>2009-09-05T08:58:50Z</time>
      </trkpt>
      <trkpt lat="46.5127904" lon="9.8387908">
        <ele>2210.2082520</ele>
        <time>2009-09-05T08:58:55Z</time>
      </trkpt>
      <trkpt lat="46.5128207" lon="9.8387888">
        <ele>2211.1696777</ele>
        <time>2009-09-05T08:58:59Z</time>
      </trkpt>
      <trkpt lat="46.5128422" lon="9.8387794">
        <ele>2211.1696777</ele>
        <time>2009-09-05T08:59:02Z</time>
      </trkpt>
      <trkpt lat="46.5128670" lon="9.8387965">
        <ele>2211.6503906</ele>
        <time>2009-09-05T08:59:05Z</time>
      </trkpt>
      <trkpt lat="46.5129290" lon="9.8387844">
        <ele>2213.0922852</ele>
        <time>2009-09-05T08:59:17Z</time>
      </trkpt>
      <trkpt lat="46.5129882" lon="9.8388056">
        <ele>2214.0534668</ele>
        <time>2009-09-05T08:59:26Z</time>
      </trkpt>
      <trkpt lat="46.5131271" lon="9.8388489">
        <ele>2215.4956055</ele>
        <time>2009-09-05T08:59:41Z</time>
      </trkpt>
      <trkpt lat="46.5131463" lon="9.8388379">
        <ele>2215.9760742</ele>
        <time>2009-09-05T08:59:43Z</time>
      </trkpt>
      <trkpt lat="46.5132654" lon="9.8387871">
        <ele>2217.4179688</ele>
        <time>2009-09-05T08:59:56Z</time>
      </trkpt>
      <trkpt lat="46.5133913" lon="9.8386818">
        <ele>2219.3408203</ele>
        <time>2009-09-05T09:00:10Z</time>
      </trkpt>
      <trkpt lat="46.5134706" lon="9.8386059">
        <ele>2220.7829590</ele>
        <time>2009-09-05T09:00:19Z</time>
      </trkpt>
      <trkpt lat="46.5135146" lon="9.8385878">
        <ele>2221.2634277</ele>
        <time>2009-09-05T09:00:23Z</time>
      </trkpt>
      <trkpt lat="46.5136652" lon="9.8385304">
        <ele>2222.7055664</ele>
        <time>2009-09-05T09:00:37Z</time>
      </trkpt>
      <trkpt lat="46.5136772" lon="9.8385256">
        <ele>2223.1862793</ele>
        <time>2009-09-05T09:00:38Z</time>
      </trkpt>
      <trkpt lat="46.5137887" lon="9.8385244">
        <ele>2225.1086426</ele>
        <time>2009-09-05T09:00:52Z</time>
      </trkpt>
      <trkpt lat="46.5138777" lon="9.8385315">
        <ele>2226.5507813</ele>
        <time>2009-09-05T09:01:01Z</time>
      </trkpt>
      <trkpt lat="46.5139347" lon="9.8385050">
        <ele>2227.0314941</ele>
        <time>2009-09-05T09:01:07Z</time>
      </trkpt>
      <trkpt lat="46.5140317" lon="9.8384641">
        <ele>2228.9538574</ele>
        <time>2009-09-05T09:01:17Z</time>
      </trkpt>
      <trkpt lat="46.5140537" lon="9.8384645">
        <ele>2229.4345703</ele>
        <time>2009-09-05T09:01:19Z</time>
      </trkpt>
      <trkpt lat="46.5141416" lon="9.8383873">
        <ele>2230.8767090</ele>
        <time>2009-09-05T09:01:30Z</time>
      </trkpt>
      <trkpt lat="46.5142719" lon="9.8384102">
        <ele>2233.2797852</ele>
        <time>2009-09-05T09:01:44Z</time>
      </trkpt>
      <trkpt lat="46.5143372" lon="9.8384281">
        <ele>2234.2412109</ele>
        <time>2009-09-05T09:01:51Z</time>
      </trkpt>
      <trkpt lat="46.5143759" lon="9.8384582">
        <ele>2235.2023926</ele>
        <time>2009-09-05T09:01:55Z</time>
      </trkpt>
      <trkpt lat="46.5145722" lon="9.8384424">
        <ele>2238.0866699</ele>
        <time>2009-09-05T09:02:12Z</time>
      </trkpt>
      <trkpt lat="46.5146707" lon="9.8383418">
        <ele>2239.0478516</ele>
        <time>2009-09-05T09:02:22Z</time>
      </trkpt>
      <trkpt lat="46.5147366" lon="9.8382512">
        <ele>2240.0092773</ele>
        <time>2009-09-05T09:02:31Z</time>
      </trkpt>
      <trkpt lat="46.5148601" lon="9.8381267">
        <ele>2240.9704590</ele>
        <time>2009-09-05T09:02:42Z</time>
      </trkpt>
      <trkpt lat="46.5148820" lon="9.8380775">
        <ele>2241.4511719</ele>
        <time>2009-09-05T09:02:45Z</time>
      </trkpt>
      <trkpt lat="46.5150363" lon="9.8379381">
        <ele>2242.8930664</ele>
        <time>2009-09-05T09:02:58Z</time>
      </trkpt>
      <trkpt lat="46.5151960" lon="9.8378136">
        <ele>2244.3349609</ele>
        <time>2009-09-05T09:03:12Z</time>
      </trkpt>
      <trkpt lat="46.5153173" lon="9.8376895">
        <ele>2245.2963867</ele>
        <time>2009-09-05T09:03:24Z</time>
      </trkpt>
      <trkpt lat="46.5154769" lon="9.8374953">
        <ele>2245.7770996</ele>
        <time>2009-09-05T09:03:39Z</time>
      </trkpt>
      <trkpt lat="46.5156247" lon="9.8372462">
        <ele>2247.2189941</ele>
        <time>2009-09-05T09:03:54Z</time>
      </trkpt>
      <trkpt lat="46.5156595" lon="9.8370993">
        <ele>2247.6997070</ele>
        <time>2009-09-05T09:04:02Z</time>
      </trkpt>
      <trkpt lat="46.5157138" lon="9.8367405">
        <ele>2247.6997070</ele>
        <time>2009-09-05T09:04:16Z</time>
      </trkpt>
      <trkpt lat="46.5157640" lon="9.8362472">
        <ele>2245.2963867</ele>
        <time>2009-09-05T09:04:31Z</time>
      </trkpt>
      <trkpt lat="46.5157762" lon="9.8355802">
        <ele>2242.8930664</ele>
        <time>2009-09-05T09:04:46Z</time>
      </trkpt>
      <trkpt lat="46.5158232" lon="9.8349781">
        <ele>2240.4897461</ele>
        <time>2009-09-05T09:04:58Z</time>
      </trkpt>
      <trkpt lat="46.5159210" lon="9.8344980">
        <ele>2240.0092773</ele>
        <time>2009-09-05T09:05:07Z</time>
      </trkpt>
      <trkpt lat="46.5160363" lon="9.8340343">
        <ele>2240.9704590</ele>
        <time>2009-09-05T09:05:18Z</time>
      </trkpt>
      <trkpt lat="46.5161194" lon="9.8334656">
        <ele>2241.4511719</ele>
        <time>2009-09-05T09:05:33Z</time>
      </trkpt>
      <trkpt lat="46.5161347" lon="9.8331186">
        <ele>2243.8544922</ele>
        <time>2009-09-05T09:05:46Z</time>
      </trkpt>
      <trkpt lat="46.5160983" lon="9.8327466">
        <ele>2246.2578125</ele>
        <time>2009-09-05T09:06:01Z</time>
      </trkpt>
      <trkpt lat="46.5160877" lon="9.8323798">
        <ele>2248.1801758</ele>
        <time>2009-09-05T09:06:16Z</time>
      </trkpt>
      <trkpt lat="46.5160496" lon="9.8320287">
        <ele>2249.6223145</ele>
        <time>2009-09-05T09:06:31Z</time>
      </trkpt>
      <trkpt lat="46.5160508" lon="9.8317908">
        <ele>2251.5449219</ele>
        <time>2009-09-05T09:06:42Z</time>
      </trkpt>
      <trkpt lat="46.5160490" lon="9.8316740">
        <ele>2252.5063477</ele>
        <time>2009-09-05T09:06:47Z</time>
      </trkpt>
      <trkpt lat="46.5161117" lon="9.8312844">
        <ele>2253.9484863</ele>
        <time>2009-09-05T09:07:02Z</time>
      </trkpt>
      <trkpt lat="46.5162749" lon="9.8309389">
        <ele>2253.4677734</ele>
        <time>2009-09-05T09:07:13Z</time>
      </trkpt>
      <trkpt lat="46.5164251" lon="9.8305995">
        <ele>2253.4677734</ele>
        <time>2009-09-05T09:07:26Z</time>
      </trkpt>
      <trkpt lat="46.5165164" lon="9.8302787">
        <ele>2254.4289551</ele>
        <time>2009-09-05T09:07:39Z</time>
      </trkpt>
      <trkpt lat="46.5164218" lon="9.8297883">
        <ele>2252.9870605</ele>
        <time>2009-09-05T09:07:52Z</time>
      </trkpt>
      <trkpt lat="46.5163746" lon="9.8296496">
        <ele>2252.5063477</ele>
        <time>2009-09-05T09:07:55Z</time>
      </trkpt>
      <trkpt lat="46.5161118" lon="9.8289492">
        <ele>2251.5449219</ele>
        <time>2009-09-05T09:08:06Z</time>
      </trkpt>
      <trkpt lat="46.5160829" lon="9.8286756">
        <ele>2253.4677734</ele>
        <time>2009-09-05T09:08:16Z</time>
      </trkpt>
      <trkpt lat="46.5160689" lon="9.8286285">
        <ele>2252.9870605</ele>
        <time>2009-09-05T09:08:18Z</time>
      </trkpt>
      <trkpt lat="46.5160715" lon="9.8284809">
        <ele>2254.4289551</ele>
        <time>2009-09-05T09:08:24Z</time>
      </trkpt>
      <trkpt lat="46.5161202" lon="9.8281030">
        <ele>2256.8322754</ele>
        <time>2009-09-05T09:08:39Z</time>
      </trkpt>
      <trkpt lat="46.5160875" lon="9.8278765">
        <ele>2258.2741699</ele>
        <time>2009-09-05T09:08:49Z</time>
      </trkpt>
      <trkpt lat="46.5160545" lon="9.8275324">
        <ele>2259.7160645</ele>
        <time>2009-09-05T09:09:03Z</time>
      </trkpt>
      <trkpt lat="46.5160601" lon="9.8274308">
        <ele>2259.7160645</ele>
        <time>2009-09-05T09:09:07Z</time>
      </trkpt>
      <trkpt lat="46.5160930" lon="9.8270092">
        <ele>2261.6389160</ele>
        <time>2009-09-05T09:09:25Z</time>
      </trkpt>
      <trkpt lat="46.5161608" lon="9.8266171">
        <ele>2264.0419922</ele>
        <time>2009-09-05T09:09:42Z</time>
      </trkpt>
      <trkpt lat="46.5161743" lon="9.8264358">
        <ele>2264.5227051</ele>
        <time>2009-09-05T09:09:50Z</time>
      </trkpt>
      <trkpt lat="46.5161982" lon="9.8263582">
        <ele>2265.0034180</ele>
        <time>2009-09-05T09:09:54Z</time>
      </trkpt>
      <trkpt lat="46.5162431" lon="9.8260571">
        <ele>2266.9260254</ele>
        <time>2009-09-05T09:10:08Z</time>
      </trkpt>
      <trkpt lat="46.5163245" lon="9.8257317">
        <ele>2268.3681641</ele>
        <time>2009-09-05T09:10:23Z</time>
      </trkpt>
      <trkpt lat="46.5163559" lon="9.8256694">
        <ele>2269.3295898</ele>
        <time>2009-09-05T09:10:27Z</time>
      </trkpt>
      <trkpt lat="46.5164398" lon="9.8254974">
        <ele>2271.7326660</ele>
        <time>2009-09-05T09:10:38Z</time>
      </trkpt>
      <trkpt lat="46.5164703" lon="9.8253958">
        <ele>2272.2133789</ele>
        <time>2009-09-05T09:10:45Z</time>
      </trkpt>
      <trkpt lat="46.5165364" lon="9.8253505">
        <ele>2273.1748047</ele>
        <time>2009-09-05T09:11:02Z</time>
      </trkpt>
      <trkpt lat="46.5165234" lon="9.8253512">
        <ele>2272.6940918</ele>
        <time>2009-09-05T09:11:22Z</time>
      </trkpt>
      <trkpt lat="46.5165170" lon="9.8253443">
        <ele>2272.6940918</ele>
        <time>2009-09-05T09:11:24Z</time>
      </trkpt>
      <trkpt lat="46.5164771" lon="9.8252397">
        <ele>2272.6940918</ele>
        <time>2009-09-05T09:11:30Z</time>
      </trkpt>
      <trkpt lat="46.5164377" lon="9.8250301">
        <ele>2274.6166992</ele>
        <time>2009-09-05T09:11:41Z</time>
      </trkpt>
      <trkpt lat="46.5164686" lon="9.8249905">
        <ele>2275.0971680</ele>
        <time>2009-09-05T09:11:45Z</time>
      </trkpt>
      <trkpt lat="46.5164995" lon="9.8249299">
        <ele>2275.5778809</ele>
        <time>2009-09-05T09:11:51Z</time>
      </trkpt>
      <trkpt lat="46.5163568" lon="9.8247372">
        <ele>2276.5393066</ele>
        <time>2009-09-05T09:12:05Z</time>
      </trkpt>
      <trkpt lat="46.5163285" lon="9.8246962">
        <ele>2277.0200195</ele>
        <time>2009-09-05T09:12:08Z</time>
      </trkpt>
      <trkpt lat="46.5162874" lon="9.8244524">
        <ele>2278.9423828</ele>
        <time>2009-09-05T09:12:22Z</time>
      </trkpt>
      <trkpt lat="46.5162721" lon="9.8243723">
        <ele>2279.9038086</ele>
        <time>2009-09-05T09:12:28Z</time>
      </trkpt>
      <trkpt lat="46.5162794" lon="9.8243452">
        <ele>2279.9038086</ele>
        <time>2009-09-05T09:12:30Z</time>
      </trkpt>
      <trkpt lat="46.5162433" lon="9.8241170">
        <ele>2281.8264160</ele>
        <time>2009-09-05T09:12:44Z</time>
      </trkpt>
      <trkpt lat="46.5162264" lon="9.8240624">
        <ele>2282.3071289</ele>
        <time>2009-09-05T09:12:48Z</time>
      </trkpt>
      <trkpt lat="46.5162399" lon="9.8239804">
        <ele>2283.2683105</ele>
        <time>2009-09-05T09:12:54Z</time>
      </trkpt>
      <trkpt lat="46.5162467" lon="9.8239182">
        <ele>2283.7490234</ele>
        <time>2009-09-05T09:12:58Z</time>
      </trkpt>
      <trkpt lat="46.5162380" lon="9.8238462">
        <ele>2284.2299805</ele>
        <time>2009-09-05T09:13:03Z</time>
      </trkpt>
      <trkpt lat="46.5162322" lon="9.8237996">
        <ele>2284.2299805</ele>
        <time>2009-09-05T09:13:05Z</time>
      </trkpt>
      <trkpt lat="46.5162414" lon="9.8237578">
        <ele>2284.7106934</ele>
        <time>2009-09-05T09:13:08Z</time>
      </trkpt>
      <trkpt lat="46.5162547" lon="9.8235349">
        <ele>2286.1525879</ele>
        <time>2009-09-05T09:13:23Z</time>
      </trkpt>
      <trkpt lat="46.5162790" lon="9.8234971">
        <ele>2286.6330566</ele>
        <time>2009-09-05T09:13:27Z</time>
      </trkpt>
      <trkpt lat="46.5162759" lon="9.8232169">
        <ele>2288.5559082</ele>
        <time>2009-09-05T09:13:44Z</time>
      </trkpt>
      <trkpt lat="46.5162875" lon="9.8229573">
        <ele>2290.4782715</ele>
        <time>2009-09-05T09:14:00Z</time>
      </trkpt>
      <trkpt lat="46.5162749" lon="9.8228544">
        <ele>2291.4396973</ele>
        <time>2009-09-05T09:14:06Z</time>
      </trkpt>
      <trkpt lat="46.5162454" lon="9.8226949">
        <ele>2292.8815918</ele>
        <time>2009-09-05T09:14:15Z</time>
      </trkpt>
      <trkpt lat="46.5162548" lon="9.8226230">
        <ele>2293.3623047</ele>
        <time>2009-09-05T09:14:20Z</time>
      </trkpt>
      <trkpt lat="46.5162432" lon="9.8225280">
        <ele>2294.3234863</ele>
        <time>2009-09-05T09:14:25Z</time>
      </trkpt>
      <trkpt lat="46.5162663" lon="9.8224555">
        <ele>2294.8041992</ele>
        <time>2009-09-05T09:14:30Z</time>
      </trkpt>
      <trkpt lat="46.5162683" lon="9.8223758">
        <ele>2295.2849121</ele>
        <time>2009-09-05T09:14:35Z</time>
      </trkpt>
      <trkpt lat="46.5162642" lon="9.8221746">
        <ele>2296.7268066</ele>
        <time>2009-09-05T09:14:50Z</time>
      </trkpt>
      <trkpt lat="46.5162615" lon="9.8220643">
        <ele>2297.6882324</ele>
        <time>2009-09-05T09:14:56Z</time>
      </trkpt>
      <trkpt lat="46.5162560" lon="9.8219773">
        <ele>2298.6494141</ele>
        <time>2009-09-05T09:15:02Z</time>
      </trkpt>
      <trkpt lat="46.5162726" lon="9.8219006">
        <ele>2299.1301270</ele>
        <time>2009-09-05T09:15:08Z</time>
      </trkpt>
      <trkpt lat="46.5162711" lon="9.8218566">
        <ele>2300.0917969</ele>
        <time>2009-09-05T09:15:11Z</time>
      </trkpt>
      <trkpt lat="46.5162528" lon="9.8216731">
        <ele>2301.5336914</ele>
        <time>2009-09-05T09:15:24Z</time>
      </trkpt>
      <trkpt lat="46.5162508" lon="9.8216533">
        <ele>2301.0529785</ele>
        <time>2009-09-05T09:15:25Z</time>
      </trkpt>
      <trkpt lat="46.5162170" lon="9.8214982">
        <ele>2302.4948730</ele>
        <time>2009-09-05T09:15:34Z</time>
      </trkpt>
      <trkpt lat="46.5162113" lon="9.8213096">
        <ele>2304.4174805</ele>
        <time>2009-09-05T09:15:45Z</time>
      </trkpt>
      <trkpt lat="46.5162326" lon="9.8212295">
        <ele>2305.8593750</ele>
        <time>2009-09-05T09:15:52Z</time>
      </trkpt>
      <trkpt lat="46.5162754" lon="9.8211632">
        <ele>2306.8208008</ele>
        <time>2009-09-05T09:15:58Z</time>
      </trkpt>
      <trkpt lat="46.5162868" lon="9.8210936">
        <ele>2308.2626953</ele>
        <time>2009-09-05T09:16:03Z</time>
      </trkpt>
      <trkpt lat="46.5162809" lon="9.8210243">
        <ele>2308.2626953</ele>
        <time>2009-09-05T09:16:07Z</time>
      </trkpt>
      <trkpt lat="46.5162551" lon="9.8209348">
        <ele>2309.7045898</ele>
        <time>2009-09-05T09:16:13Z</time>
      </trkpt>
      <trkpt lat="46.5162748" lon="9.8208452">
        <ele>2311.1467285</ele>
        <time>2009-09-05T09:16:19Z</time>
      </trkpt>
      <trkpt lat="46.5162616" lon="9.8208190">
        <ele>2311.6274414</ele>
        <time>2009-09-05T09:16:21Z</time>
      </trkpt>
      <trkpt lat="46.5162985" lon="9.8206884">
        <ele>2313.5498047</ele>
        <time>2009-09-05T09:16:32Z</time>
      </trkpt>
      <trkpt lat="46.5163388" lon="9.8205714">
        <ele>2314.9919434</ele>
        <time>2009-09-05T09:16:42Z</time>
      </trkpt>
      <trkpt lat="46.5163579" lon="9.8205372">
        <ele>2315.4726563</ele>
        <time>2009-09-05T09:16:45Z</time>
      </trkpt>
      <trkpt lat="46.5163352" lon="9.8203092">
        <ele>2317.3952637</ele>
        <time>2009-09-05T09:17:01Z</time>
      </trkpt>
      <trkpt lat="46.5163246" lon="9.8202413">
        <ele>2317.8759766</ele>
        <time>2009-09-05T09:17:06Z</time>
      </trkpt>
      <trkpt lat="46.5162818" lon="9.8200078">
        <ele>2319.7985840</ele>
        <time>2009-09-05T09:17:21Z</time>
      </trkpt>
      <trkpt lat="46.5162818" lon="9.8199477">
        <ele>2320.2792969</ele>
        <time>2009-09-05T09:17:25Z</time>
      </trkpt>
      <trkpt lat="46.5162717" lon="9.8198900">
        <ele>2320.2792969</ele>
        <time>2009-09-05T09:17:29Z</time>
      </trkpt>
      <trkpt lat="46.5162559" lon="9.8198305">
        <ele>2320.7600098</ele>
        <time>2009-09-05T09:17:33Z</time>
      </trkpt>
      <trkpt lat="46.5162042" lon="9.8196001">
        <ele>2322.6826172</ele>
        <time>2009-09-05T09:17:48Z</time>
      </trkpt>
      <trkpt lat="46.5161656" lon="9.8194612">
        <ele>2325.0856934</ele>
        <time>2009-09-05T09:18:00Z</time>
      </trkpt>
      <trkpt lat="46.5161690" lon="9.8192576">
        <ele>2327.0085449</ele>
        <time>2009-09-05T09:18:13Z</time>
      </trkpt>
      <trkpt lat="46.5161936" lon="9.8192015">
        <ele>2327.4890137</ele>
        <time>2009-09-05T09:18:18Z</time>
      </trkpt>
      <trkpt lat="46.5161800" lon="9.8191347">
        <ele>2328.4504395</ele>
        <time>2009-09-05T09:18:23Z</time>
      </trkpt>
      <trkpt lat="46.5161944" lon="9.8190853">
        <ele>2328.9309082</ele>
        <time>2009-09-05T09:18:28Z</time>
      </trkpt>
      <trkpt lat="46.5161792" lon="9.8190393">
        <ele>2329.8923340</ele>
        <time>2009-09-05T09:18:32Z</time>
      </trkpt>
      <trkpt lat="46.5161894" lon="9.8190198">
        <ele>2329.8923340</ele>
        <time>2009-09-05T09:18:34Z</time>
      </trkpt>
      <trkpt lat="46.5162137" lon="9.8188865">
        <ele>2331.3342285</ele>
        <time>2009-09-05T09:18:45Z</time>
      </trkpt>
      <trkpt lat="46.5162112" lon="9.8188625">
        <ele>2331.8149414</ele>
        <time>2009-09-05T09:18:47Z</time>
      </trkpt>
      <trkpt lat="46.5162132" lon="9.8188106">
        <ele>2332.2958984</ele>
        <time>2009-09-05T09:18:51Z</time>
      </trkpt>
      <trkpt lat="46.5162384" lon="9.8187482">
        <ele>2333.2570801</ele>
        <time>2009-09-05T09:18:56Z</time>
      </trkpt>
      <trkpt lat="46.5162540" lon="9.8186781">
        <ele>2333.7377930</ele>
        <time>2009-09-05T09:19:01Z</time>
      </trkpt>
      <trkpt lat="46.5162443" lon="9.8186148">
        <ele>2334.2185059</ele>
        <time>2009-09-05T09:19:05Z</time>
      </trkpt>
      <trkpt lat="46.5162369" lon="9.8185484">
        <ele>2334.6992188</ele>
        <time>2009-09-05T09:19:10Z</time>
      </trkpt>
      <trkpt lat="46.5162175" lon="9.8185188">
        <ele>2335.1796875</ele>
        <time>2009-09-05T09:19:14Z</time>
      </trkpt>
      <trkpt lat="46.5162270" lon="9.8184743">
        <ele>2336.1411133</ele>
        <time>2009-09-05T09:19:18Z</time>
      </trkpt>
      <trkpt lat="46.5161908" lon="9.8183551">
        <ele>2337.5830078</ele>
        <time>2009-09-05T09:19:29Z</time>
      </trkpt>
      <trkpt lat="46.5162026" lon="9.8183252">
        <ele>2338.0637207</ele>
        <time>2009-09-05T09:19:31Z</time>
      </trkpt>
      <trkpt lat="46.5161852" lon="9.8182617">
        <ele>2338.5444336</ele>
        <time>2009-09-05T09:19:35Z</time>
      </trkpt>
      <trkpt lat="46.5161913" lon="9.8182165">
        <ele>2339.9863281</ele>
        <time>2009-09-05T09:19:39Z</time>
      </trkpt>
      <trkpt lat="46.5161688" lon="9.8181637">
        <ele>2339.9863281</ele>
        <time>2009-09-05T09:19:43Z</time>
      </trkpt>
      <trkpt lat="46.5161786" lon="9.8181002">
        <ele>2340.9475098</ele>
        <time>2009-09-05T09:19:49Z</time>
      </trkpt>
      <trkpt lat="46.5161849" lon="9.8179264">
        <ele>2343.3508301</ele>
        <time>2009-09-05T09:20:02Z</time>
      </trkpt>
      <trkpt lat="46.5161825" lon="9.8178869">
        <ele>2343.8315430</ele>
        <time>2009-09-05T09:20:05Z</time>
      </trkpt>
      <trkpt lat="46.5161871" lon="9.8178326">
        <ele>2344.3120117</ele>
        <time>2009-09-05T09:20:09Z</time>
      </trkpt>
      <trkpt lat="46.5161803" lon="9.8176571">
        <ele>2345.2734375</ele>
        <time>2009-09-05T09:20:21Z</time>
      </trkpt>
      <trkpt lat="46.5161666" lon="9.8176039">
        <ele>2345.2734375</ele>
        <time>2009-09-05T09:20:24Z</time>
      </trkpt>
      <trkpt lat="46.5161848" lon="9.8175485">
        <ele>2345.7541504</ele>
        <time>2009-09-05T09:20:28Z</time>
      </trkpt>
      <trkpt lat="46.5161951" lon="9.8173872">
        <ele>2347.6767578</ele>
        <time>2009-09-05T09:20:39Z</time>
      </trkpt>
      <trkpt lat="46.5162046" lon="9.8173354">
        <ele>2348.1574707</ele>
        <time>2009-09-05T09:20:42Z</time>
      </trkpt>
      <trkpt lat="46.5162226" lon="9.8172913">
        <ele>2348.6381836</ele>
        <time>2009-09-05T09:20:46Z</time>
      </trkpt>
      <trkpt lat="46.5162125" lon="9.8170961">
        <ele>2351.0415039</ele>
        <time>2009-09-05T09:21:01Z</time>
      </trkpt>
      <trkpt lat="46.5162057" lon="9.8170679">
        <ele>2351.5222168</ele>
        <time>2009-09-05T09:21:03Z</time>
      </trkpt>
      <trkpt lat="46.5162008" lon="9.8170165">
        <ele>2352.0026855</ele>
        <time>2009-09-05T09:21:08Z</time>
      </trkpt>
      <trkpt lat="46.5162005" lon="9.8169451">
        <ele>2353.4448242</ele>
        <time>2009-09-05T09:21:14Z</time>
      </trkpt>
      <trkpt lat="46.5161695" lon="9.8168251">
        <ele>2354.4060059</ele>
        <time>2009-09-05T09:21:22Z</time>
      </trkpt>
      <trkpt lat="46.5161659" lon="9.8167712">
        <ele>2355.3674316</ele>
        <time>2009-09-05T09:21:26Z</time>
      </trkpt>
      <trkpt lat="46.5161230" lon="9.8166476">
        <ele>2356.8093262</ele>
        <time>2009-09-05T09:21:38Z</time>
      </trkpt>
      <trkpt lat="46.5160803" lon="9.8165571">
        <ele>2358.2512207</ele>
        <time>2009-09-05T09:21:46Z</time>
      </trkpt>
      <trkpt lat="46.5160852" lon="9.8165195">
        <ele>2358.2512207</ele>
        <time>2009-09-05T09:21:49Z</time>
      </trkpt>
      <trkpt lat="46.5160814" lon="9.8163913">
        <ele>2359.2126465</ele>
        <time>2009-09-05T09:21:58Z</time>
      </trkpt>
      <trkpt lat="46.5161033" lon="9.8162447">
        <ele>2360.6545410</ele>
        <time>2009-09-05T09:22:11Z</time>
      </trkpt>
      <trkpt lat="46.5160942" lon="9.8162205">
        <ele>2361.1352539</ele>
        <time>2009-09-05T09:22:13Z</time>
      </trkpt>
      <trkpt lat="46.5161132" lon="9.8161057">
        <ele>2362.0964355</ele>
        <time>2009-09-05T09:22:21Z</time>
      </trkpt>
      <trkpt lat="46.5161078" lon="9.8160224">
        <ele>2363.0578613</ele>
        <time>2009-09-05T09:22:29Z</time>
      </trkpt>
      <trkpt lat="46.5161010" lon="9.8158817">
        <ele>2364.0192871</ele>
        <time>2009-09-05T09:22:40Z</time>
      </trkpt>
      <trkpt lat="46.5161673" lon="9.8157469">
        <ele>2365.4614258</ele>
        <time>2009-09-05T09:22:57Z</time>
      </trkpt>
      <trkpt lat="46.5161979" lon="9.8156937">
        <ele>2365.9418945</ele>
        <time>2009-09-05T09:23:27Z</time>
      </trkpt>
      <trkpt lat="46.5162811" lon="9.8155396">
        <ele>2367.8645020</ele>
        <time>2009-09-05T09:23:40Z</time>
      </trkpt>
      <trkpt lat="46.5162995" lon="9.8154676">
        <ele>2368.3452148</ele>
        <time>2009-09-05T09:23:45Z</time>
      </trkpt>
      <trkpt lat="46.5163188" lon="9.8154592">
        <ele>2369.3066406</ele>
        <time>2009-09-05T09:23:48Z</time>
      </trkpt>
      <trkpt lat="46.5163334" lon="9.8154408">
        <ele>2369.3066406</ele>
        <time>2009-09-05T09:23:50Z</time>
      </trkpt>
      <trkpt lat="46.5163648" lon="9.8153784">
        <ele>2370.2678223</ele>
        <time>2009-09-05T09:23:56Z</time>
      </trkpt>
      <trkpt lat="46.5164704" lon="9.8152145">
        <ele>2372.6711426</ele>
        <time>2009-09-05T09:24:11Z</time>
      </trkpt>
      <trkpt lat="46.5165262" lon="9.8150449">
        <ele>2374.1130371</ele>
        <time>2009-09-05T09:24:24Z</time>
      </trkpt>
      <trkpt lat="46.5165600" lon="9.8149416">
        <ele>2375.5549316</ele>
        <time>2009-09-05T09:24:34Z</time>
      </trkpt>
      <trkpt lat="46.5166015" lon="9.8147568">
        <ele>2376.9970703</ele>
        <time>2009-09-05T09:24:49Z</time>
      </trkpt>
      <trkpt lat="46.5166520" lon="9.8146386">
        <ele>2378.9194336</ele>
        <time>2009-09-05T09:25:01Z</time>
      </trkpt>
      <trkpt lat="46.5166957" lon="9.8144984">
        <ele>2381.8037109</ele>
        <time>2009-09-05T09:25:13Z</time>
      </trkpt>
      <trkpt lat="46.5167635" lon="9.8143710">
        <ele>2384.2070313</ele>
        <time>2009-09-05T09:25:26Z</time>
      </trkpt>
      <trkpt lat="46.5168478" lon="9.8142544">
        <ele>2386.1296387</ele>
        <time>2009-09-05T09:25:41Z</time>
      </trkpt>
      <trkpt lat="46.5169067" lon="9.8141918">
        <ele>2387.0908203</ele>
        <time>2009-09-05T09:25:53Z</time>
      </trkpt>
      <trkpt lat="46.5169856" lon="9.8141534">
        <ele>2389.0134277</ele>
        <time>2009-09-05T09:26:08Z</time>
      </trkpt>
      <trkpt lat="46.5170443" lon="9.8140986">
        <ele>2390.9360352</ele>
        <time>2009-09-05T09:26:22Z</time>
      </trkpt>
      <trkpt lat="46.5171390" lon="9.8139694">
        <ele>2393.8200684</ele>
        <time>2009-09-05T09:26:42Z</time>
      </trkpt>
      <trkpt lat="46.5172038" lon="9.8138741">
        <ele>2397.1848145</ele>
        <time>2009-09-05T09:27:04Z</time>
      </trkpt>
      <trkpt lat="46.5172764" lon="9.8138076">
        <ele>2399.1074219</ele>
        <time>2009-09-05T09:27:21Z</time>
      </trkpt>
      <trkpt lat="46.5173426" lon="9.8136285">
        <ele>2401.9912109</ele>
        <time>2009-09-05T09:27:46Z</time>
      </trkpt>
      <trkpt lat="46.5172675" lon="9.8134712">
        <ele>2403.9140625</ele>
        <time>2009-09-05T09:28:09Z</time>
      </trkpt>
      <trkpt lat="46.5172107" lon="9.8133070">
        <ele>2406.7978516</ele>
        <time>2009-09-05T09:28:33Z</time>
      </trkpt>
      <trkpt lat="46.5172285" lon="9.8131865">
        <ele>2409.2011719</ele>
        <time>2009-09-05T09:28:54Z</time>
      </trkpt>
      <trkpt lat="46.5172451" lon="9.8130452">
        <ele>2412.0852051</ele>
        <time>2009-09-05T09:29:13Z</time>
      </trkpt>
      <trkpt lat="46.5173050" lon="9.8129042">
        <ele>2415.4499512</ele>
        <time>2009-09-05T09:29:34Z</time>
      </trkpt>
      <trkpt lat="46.5173328" lon="9.8128305">
        <ele>2417.8530273</ele>
        <time>2009-09-05T09:29:55Z</time>
      </trkpt>
      <trkpt lat="46.5173565" lon="9.8127746">
        <ele>2419.2951660</ele>
        <time>2009-09-05T09:30:10Z</time>
      </trkpt>
      <trkpt lat="46.5174253" lon="9.8126303">
        <ele>2422.1789551</ele>
        <time>2009-09-05T09:30:33Z</time>
      </trkpt>
      <trkpt lat="46.5174840" lon="9.8124542">
        <ele>2424.5822754</ele>
        <time>2009-09-05T09:30:57Z</time>
      </trkpt>
      <trkpt lat="46.5175414" lon="9.8123310">
        <ele>2426.9855957</ele>
        <time>2009-09-05T09:31:16Z</time>
      </trkpt>
      <trkpt lat="46.5175795" lon="9.8122056">
        <ele>2430.3503418</ele>
        <time>2009-09-05T09:31:36Z</time>
      </trkpt>
      <trkpt lat="46.5176251" lon="9.8120712">
        <ele>2432.7534180</ele>
        <time>2009-09-05T09:31:57Z</time>
      </trkpt>
      <trkpt lat="46.5176928" lon="9.8119220">
        <ele>2435.1567383</ele>
        <time>2009-09-05T09:32:19Z</time>
      </trkpt>
      <trkpt lat="46.5177834" lon="9.8118762">
        <ele>2437.0793457</ele>
        <time>2009-09-05T09:32:38Z</time>
      </trkpt>
      <trkpt lat="46.5178797" lon="9.8118465">
        <ele>2439.0019531</ele>
        <time>2009-09-05T09:32:53Z</time>
      </trkpt>
      <trkpt lat="46.5179908" lon="9.8118612">
        <ele>2439.9633789</ele>
        <time>2009-09-05T09:33:11Z</time>
      </trkpt>
      <trkpt lat="46.5181031" lon="9.8118764">
        <ele>2442.3666992</ele>
        <time>2009-09-05T09:33:28Z</time>
      </trkpt>
      <trkpt lat="46.5181881" lon="9.8119135">
        <ele>2444.2893066</ele>
        <time>2009-09-05T09:33:44Z</time>
      </trkpt>
      <trkpt lat="46.5182844" lon="9.8118968">
        <ele>2446.6926270</ele>
        <time>2009-09-05T09:33:58Z</time>
      </trkpt>
      <trkpt lat="46.5183711" lon="9.8118122">
        <ele>2448.1345215</ele>
        <time>2009-09-05T09:34:10Z</time>
      </trkpt>
      <trkpt lat="46.5184363" lon="9.8117449">
        <ele>2450.0573730</ele>
        <time>2009-09-05T09:34:24Z</time>
      </trkpt>
      <trkpt lat="46.5184971" lon="9.8115658">
        <ele>2451.9797363</ele>
        <time>2009-09-05T09:34:43Z</time>
      </trkpt>
      <trkpt lat="46.5185043" lon="9.8115078">
        <ele>2452.4604492</ele>
        <time>2009-09-05T09:34:48Z</time>
      </trkpt>
      <trkpt lat="46.5184872" lon="9.8112779">
        <ele>2452.9411621</ele>
        <time>2009-09-05T09:35:05Z</time>
      </trkpt>
      <trkpt lat="46.5184775" lon="9.8111021">
        <ele>2453.4218750</ele>
        <time>2009-09-05T09:35:18Z</time>
      </trkpt>
      <trkpt lat="46.5185136" lon="9.8109556">
        <ele>2453.4218750</ele>
        <time>2009-09-05T09:35:28Z</time>
      </trkpt>
      <trkpt lat="46.5185881" lon="9.8107973">
        <ele>2456.3056641</ele>
        <time>2009-09-05T09:35:48Z</time>
      </trkpt>
      <trkpt lat="46.5186705" lon="9.8106547">
        <ele>2459.1896973</ele>
        <time>2009-09-05T09:36:08Z</time>
      </trkpt>
      <trkpt lat="46.5187249" lon="9.8104443">
        <ele>2462.0737305</ele>
        <time>2009-09-05T09:36:28Z</time>
      </trkpt>
      <trkpt lat="46.5187383" lon="9.8104013">
        <ele>2462.0737305</ele>
        <time>2009-09-05T09:36:32Z</time>
      </trkpt>
      <trkpt lat="46.5187254" lon="9.8103057">
        <ele>2462.0737305</ele>
        <time>2009-09-05T09:36:39Z</time>
      </trkpt>
      <trkpt lat="46.5186603" lon="9.8101960">
        <ele>2463.0351563</ele>
        <time>2009-09-05T09:36:53Z</time>
      </trkpt>
      <trkpt lat="46.5186002" lon="9.8100554">
        <ele>2465.4384766</ele>
        <time>2009-09-05T09:37:12Z</time>
      </trkpt>
      <trkpt lat="46.5185688" lon="9.8098750">
        <ele>2468.3222656</ele>
        <time>2009-09-05T09:37:35Z</time>
      </trkpt>
      <trkpt lat="46.5185365" lon="9.8097033">
        <ele>2471.2060547</ele>
        <time>2009-09-05T09:37:56Z</time>
      </trkpt>
      <trkpt lat="46.5184690" lon="9.8094862">
        <ele>2473.6093750</ele>
        <time>2009-09-05T09:38:16Z</time>
      </trkpt>
      <trkpt lat="46.5184409" lon="9.8093694">
        <ele>2475.5319824</ele>
        <time>2009-09-05T09:38:32Z</time>
      </trkpt>
      <trkpt lat="46.5184030" lon="9.8092959">
        <ele>2475.5319824</ele>
        <time>2009-09-05T09:38:46Z</time>
      </trkpt>
      <trkpt lat="46.5183383" lon="9.8092031">
        <ele>2476.0129395</ele>
        <time>2009-09-05T09:39:03Z</time>
      </trkpt>
      <trkpt lat="46.5182328" lon="9.8091117">
        <ele>2476.9743652</ele>
        <time>2009-09-05T09:39:14Z</time>
      </trkpt>
      <trkpt lat="46.5181091" lon="9.8090789">
        <ele>2478.8967285</ele>
        <time>2009-09-05T09:39:26Z</time>
      </trkpt>
      <trkpt lat="46.5179738" lon="9.8090966">
        <ele>2481.3000488</ele>
        <time>2009-09-05T09:39:39Z</time>
      </trkpt>
      <trkpt lat="46.5179332" lon="9.8091075">
        <ele>2482.2614746</ele>
        <time>2009-09-05T09:39:43Z</time>
      </trkpt>
      <trkpt lat="46.5178961" lon="9.8091047">
        <ele>2482.7419434</ele>
        <time>2009-09-05T09:39:46Z</time>
      </trkpt>
      <trkpt lat="46.5178029" lon="9.8091303">
        <ele>2483.7033691</ele>
        <time>2009-09-05T09:39:55Z</time>
      </trkpt>
      <trkpt lat="46.5176044" lon="9.8091083">
        <ele>2484.6647949</ele>
        <time>2009-09-05T09:40:11Z</time>
      </trkpt>
      <trkpt lat="46.5175966" lon="9.8090952">
        <ele>2484.6647949</ele>
        <time>2009-09-05T09:40:12Z</time>
      </trkpt>
      <trkpt lat="46.5175687" lon="9.8090424">
        <ele>2485.1452637</ele>
        <time>2009-09-05T09:40:17Z</time>
      </trkpt>
      <trkpt lat="46.5175476" lon="9.8089603">
        <ele>2484.6647949</ele>
        <time>2009-09-05T09:40:22Z</time>
      </trkpt>
      <trkpt lat="46.5175190" lon="9.8088371">
        <ele>2485.1452637</ele>
        <time>2009-09-05T09:40:30Z</time>
      </trkpt>
      <trkpt lat="46.5175301" lon="9.8087398">
        <ele>2486.5871582</ele>
        <time>2009-09-05T09:40:36Z</time>
      </trkpt>
      <trkpt lat="46.5175343" lon="9.8086311">
        <ele>2487.0678711</ele>
        <time>2009-09-05T09:40:43Z</time>
      </trkpt>
      <trkpt lat="46.5175313" lon="9.8085857">
        <ele>2487.0678711</ele>
        <time>2009-09-05T09:40:46Z</time>
      </trkpt>
      <trkpt lat="46.5175245" lon="9.8085085">
        <ele>2488.0292969</ele>
        <time>2009-09-05T09:40:50Z</time>
      </trkpt>
      <trkpt lat="46.5174992" lon="9.8084613">
        <ele>2488.5100098</ele>
        <time>2009-09-05T09:40:54Z</time>
      </trkpt>
      <trkpt lat="46.5174800" lon="9.8083971">
        <ele>2488.9904785</ele>
        <time>2009-09-05T09:41:00Z</time>
      </trkpt>
      <trkpt lat="46.5174350" lon="9.8082933">
        <ele>2490.9130859</ele>
        <time>2009-09-05T09:41:08Z</time>
      </trkpt>
      <trkpt lat="46.5174281" lon="9.8081246">
        <ele>2492.3554688</ele>
        <time>2009-09-05T09:41:19Z</time>
      </trkpt>
      <trkpt lat="46.5174171" lon="9.8080317">
        <ele>2493.3166504</ele>
        <time>2009-09-05T09:41:25Z</time>
      </trkpt>
      <trkpt lat="46.5173225" lon="9.8079354">
        <ele>2494.7585449</ele>
        <time>2009-09-05T09:41:39Z</time>
      </trkpt>
      <trkpt lat="46.5173006" lon="9.8079321">
        <ele>2495.7199707</ele>
        <time>2009-09-05T09:41:44Z</time>
      </trkpt>
      <trkpt lat="46.5171613" lon="9.8078997">
        <ele>2499.0844727</ele>
        <time>2009-09-05T09:41:58Z</time>
      </trkpt>
      <trkpt lat="46.5170552" lon="9.8078677">
        <ele>2501.9682617</ele>
        <time>2009-09-05T09:42:09Z</time>
      </trkpt>
      <trkpt lat="46.5169862" lon="9.8078273">
        <ele>2503.4104004</ele>
        <time>2009-09-05T09:42:18Z</time>
      </trkpt>
      <trkpt lat="46.5169309" lon="9.8077938">
        <ele>2503.8911133</ele>
        <time>2009-09-05T09:42:23Z</time>
      </trkpt>
      <trkpt lat="46.5168123" lon="9.8077815">
        <ele>2504.8522949</ele>
        <time>2009-09-05T09:42:37Z</time>
      </trkpt>
      <trkpt lat="46.5166900" lon="9.8078222">
        <ele>2504.8522949</ele>
        <time>2009-09-05T09:42:48Z</time>
      </trkpt>
      <trkpt lat="46.5166301" lon="9.8078528">
        <ele>2504.8522949</ele>
        <time>2009-09-05T09:42:53Z</time>
      </trkpt>
      <trkpt lat="46.5165863" lon="9.8078979">
        <ele>2505.3330078</ele>
        <time>2009-09-05T09:42:57Z</time>
      </trkpt>
      <trkpt lat="46.5165676" lon="9.8079623">
        <ele>2505.3330078</ele>
        <time>2009-09-05T09:43:01Z</time>
      </trkpt>
      <trkpt lat="46.5165668" lon="9.8079913">
        <ele>2505.8134766</ele>
        <time>2009-09-05T09:43:03Z</time>
      </trkpt>
      <trkpt lat="46.5164504" lon="9.8081018">
        <ele>2507.2556152</ele>
        <time>2009-09-05T09:43:15Z</time>
      </trkpt>
      <trkpt lat="46.5162589" lon="9.8081330">
        <ele>2507.2556152</ele>
        <time>2009-09-05T09:43:29Z</time>
      </trkpt>
      <trkpt lat="46.5160719" lon="9.8080950">
        <ele>2509.6589355</ele>
        <time>2009-09-05T09:43:43Z</time>
      </trkpt>
      <trkpt lat="46.5160438" lon="9.8080973">
        <ele>2510.1396484</ele>
        <time>2009-09-05T09:43:45Z</time>
      </trkpt>
      <trkpt lat="46.5159832" lon="9.8080832">
        <ele>2511.1010742</ele>
        <time>2009-09-05T09:43:49Z</time>
      </trkpt>
      <trkpt lat="46.5159430" lon="9.8080646">
        <ele>2512.0622559</ele>
        <time>2009-09-05T09:43:53Z</time>
      </trkpt>
      <trkpt lat="46.5158984" lon="9.8080811">
        <ele>2512.0622559</ele>
        <time>2009-09-05T09:43:57Z</time>
      </trkpt>
      <trkpt lat="46.5158344" lon="9.8080727">
        <ele>2512.5429688</ele>
        <time>2009-09-05T09:44:03Z</time>
      </trkpt>
      <trkpt lat="46.5156924" lon="9.8080399">
        <ele>2514.4655762</ele>
        <time>2009-09-05T09:44:16Z</time>
      </trkpt>
      <trkpt lat="46.5155972" lon="9.8080124">
        <ele>2514.9462891</ele>
        <time>2009-09-05T09:44:23Z</time>
      </trkpt>
      <trkpt lat="46.5155406" lon="9.8079921">
        <ele>2515.9074707</ele>
        <time>2009-09-05T09:44:28Z</time>
      </trkpt>
      <trkpt lat="46.5153994" lon="9.8079562">
        <ele>2517.3493652</ele>
        <time>2009-09-05T09:44:42Z</time>
      </trkpt>
      <trkpt lat="46.5152096" lon="9.8079187">
        <ele>2518.7915039</ele>
        <time>2009-09-05T09:44:57Z</time>
      </trkpt>
      <trkpt lat="46.5150483" lon="9.8078377">
        <ele>2520.2333984</ele>
        <time>2009-09-05T09:45:13Z</time>
      </trkpt>
      <trkpt lat="46.5150202" lon="9.8078219">
        <ele>2520.7141113</ele>
        <time>2009-09-05T09:45:16Z</time>
      </trkpt>
      <trkpt lat="46.5149175" lon="9.8077666">
        <ele>2521.1945801</ele>
        <time>2009-09-05T09:45:25Z</time>
      </trkpt>
      <trkpt lat="46.5147404" lon="9.8077340">
        <ele>2522.6367188</ele>
        <time>2009-09-05T09:45:39Z</time>
      </trkpt>
      <trkpt lat="46.5145599" lon="9.8076559">
        <ele>2523.1174316</ele>
        <time>2009-09-05T09:45:54Z</time>
      </trkpt>
      <trkpt lat="46.5143870" lon="9.8074913">
        <ele>2523.5979004</ele>
        <time>2009-09-05T09:46:09Z</time>
      </trkpt>
      <trkpt lat="46.5142952" lon="9.8073637">
        <ele>2523.5979004</ele>
        <time>2009-09-05T09:46:16Z</time>
      </trkpt>
      <trkpt lat="46.5140650" lon="9.8073430">
        <ele>2522.1560059</ele>
        <time>2009-09-05T09:46:28Z</time>
      </trkpt>
      <trkpt lat="46.5139511" lon="9.8075001">
        <ele>2523.1174316</ele>
        <time>2009-09-05T09:46:38Z</time>
      </trkpt>
      <trkpt lat="46.5139383" lon="9.8075351">
        <ele>2523.5979004</ele>
        <time>2009-09-05T09:46:40Z</time>
      </trkpt>
      <trkpt lat="46.5138755" lon="9.8076650">
        <ele>2523.5979004</ele>
        <time>2009-09-05T09:46:47Z</time>
      </trkpt>
      <trkpt lat="46.5137014" lon="9.8079674">
        <ele>2523.5979004</ele>
        <time>2009-09-05T09:47:02Z</time>
      </trkpt>
      <trkpt lat="46.5135247" lon="9.8081448">
        <ele>2525.0400391</ele>
        <time>2009-09-05T09:47:15Z</time>
      </trkpt>
      <trkpt lat="46.5134877" lon="9.8081731">
        <ele>2525.5207520</ele>
        <time>2009-09-05T09:47:18Z</time>
      </trkpt>
      <trkpt lat="46.5132845" lon="9.8083013">
        <ele>2526.0014648</ele>
        <time>2009-09-05T09:47:31Z</time>
      </trkpt>
      <trkpt lat="46.5130555" lon="9.8083816">
        <ele>2525.5207520</ele>
        <time>2009-09-05T09:47:44Z</time>
      </trkpt>
      <trkpt lat="46.5130104" lon="9.8084032">
        <ele>2525.5207520</ele>
        <time>2009-09-05T09:47:48Z</time>
      </trkpt>
      <trkpt lat="46.5129406" lon="9.8084092">
        <ele>2526.0014648</ele>
        <time>2009-09-05T09:48:00Z</time>
      </trkpt>
      <trkpt lat="46.5127825" lon="9.8084873">
        <ele>2526.0014648</ele>
        <time>2009-09-05T09:48:28Z</time>
      </trkpt>
      <trkpt lat="46.5125878" lon="9.8085732">
        <ele>2526.9628906</ele>
        <time>2009-09-05T09:48:41Z</time>
      </trkpt>
      <trkpt lat="46.5125519" lon="9.8085996">
        <ele>2527.9240723</ele>
        <time>2009-09-05T09:48:44Z</time>
      </trkpt>
      <trkpt lat="46.5124731" lon="9.8086458">
        <ele>2529.3659668</ele>
        <time>2009-09-05T09:48:56Z</time>
      </trkpt>
      <trkpt lat="46.5123578" lon="9.8087002">
        <ele>2532.2500000</ele>
        <time>2009-09-05T09:49:13Z</time>
      </trkpt>
      <trkpt lat="46.5123502" lon="9.8087036">
        <ele>2532.7304688</ele>
        <time>2009-09-05T09:49:14Z</time>
      </trkpt>
      <trkpt lat="46.5122479" lon="9.8087740">
        <ele>2534.6533203</ele>
        <time>2009-09-05T09:49:30Z</time>
      </trkpt>
      <trkpt lat="46.5121678" lon="9.8088357">
        <ele>2536.5756836</ele>
        <time>2009-09-05T09:49:45Z</time>
      </trkpt>
      <trkpt lat="46.5120731" lon="9.8089172">
        <ele>2538.0178223</ele>
        <time>2009-09-05T09:49:58Z</time>
      </trkpt>
      <trkpt lat="46.5119699" lon="9.8090084">
        <ele>2538.9790039</ele>
        <time>2009-09-05T09:50:12Z</time>
      </trkpt>
      <trkpt lat="46.5118383" lon="9.8090939">
        <ele>2540.9018555</ele>
        <time>2009-09-05T09:50:29Z</time>
      </trkpt>
      <trkpt lat="46.5117253" lon="9.8091410">
        <ele>2543.7858887</ele>
        <time>2009-09-05T09:50:45Z</time>
      </trkpt>
      <trkpt lat="46.5116257" lon="9.8091864">
        <ele>2546.1892090</ele>
        <time>2009-09-05T09:50:59Z</time>
      </trkpt>
      <trkpt lat="46.5115193" lon="9.8092173">
        <ele>2548.1115723</ele>
        <time>2009-09-05T09:51:14Z</time>
      </trkpt>
      <trkpt lat="46.5114174" lon="9.8092696">
        <ele>2549.5537109</ele>
        <time>2009-09-05T09:51:29Z</time>
      </trkpt>
      <trkpt lat="46.5113751" lon="9.8092921">
        <ele>2550.5148926</ele>
        <time>2009-09-05T09:51:42Z</time>
      </trkpt>
      <trkpt lat="46.5112457" lon="9.8094280">
        <ele>2548.5922852</ele>
        <time>2009-09-05T09:51:57Z</time>
      </trkpt>
      <trkpt lat="46.5110970" lon="9.8095700">
        <ele>2551.4763184</ele>
        <time>2009-09-05T09:52:07Z</time>
      </trkpt>
      <trkpt lat="46.5109406" lon="9.8096871">
        <ele>2554.3601074</ele>
        <time>2009-09-05T09:52:20Z</time>
      </trkpt>
      <trkpt lat="46.5108469" lon="9.8099075">
        <ele>2552.9182129</ele>
        <time>2009-09-05T09:52:30Z</time>
      </trkpt>
      <trkpt lat="46.5108504" lon="9.8103908">
        <ele>2550.0344238</ele>
        <time>2009-09-05T09:52:43Z</time>
      </trkpt>
      <trkpt lat="46.5108722" lon="9.8109232">
        <ele>2547.1503906</ele>
        <time>2009-09-05T09:52:54Z</time>
      </trkpt>
      <trkpt lat="46.5108741" lon="9.8114059">
        <ele>2543.3051758</ele>
        <time>2009-09-05T09:53:02Z</time>
      </trkpt>
      <trkpt lat="46.5108851" lon="9.8120058">
        <ele>2542.8244629</ele>
        <time>2009-09-05T09:53:15Z</time>
      </trkpt>
      <trkpt lat="46.5108910" lon="9.8127878">
        <ele>2539.9404297</ele>
        <time>2009-09-05T09:53:27Z</time>
      </trkpt>
      <trkpt lat="46.5108960" lon="9.8129350">
        <ele>2538.4985352</ele>
        <time>2009-09-05T09:53:29Z</time>
      </trkpt>
      <trkpt lat="46.5108122" lon="9.8132805">
        <ele>2538.4985352</ele>
        <time>2009-09-05T09:53:34Z</time>
      </trkpt>
      <trkpt lat="46.5106174" lon="9.8136172">
        <ele>2536.5756836</ele>
        <time>2009-09-05T09:53:39Z</time>
      </trkpt>
      <trkpt lat="46.5102155" lon="9.8143418">
        <ele>2535.6145020</ele>
        <time>2009-09-05T09:53:50Z</time>
      </trkpt>
      <trkpt lat="46.5099659" lon="9.8147635">
        <ele>2533.2111816</ele>
        <time>2009-09-05T09:53:56Z</time>
      </trkpt>
      <trkpt lat="46.5098512" lon="9.8149569">
        <ele>2534.6533203</ele>
        <time>2009-09-05T09:53:59Z</time>
      </trkpt>
      <trkpt lat="46.5096093" lon="9.8153284">
        <ele>2532.7304688</ele>
        <time>2009-09-05T09:54:08Z</time>
      </trkpt>
      <trkpt lat="46.5094431" lon="9.8155774">
        <ele>2529.3659668</ele>
        <time>2009-09-05T09:54:15Z</time>
      </trkpt>
      <trkpt lat="46.5092974" lon="9.8158097">
        <ele>2526.0014648</ele>
        <time>2009-09-05T09:54:19Z</time>
      </trkpt>
      <trkpt lat="46.5091261" lon="9.8161299">
        <ele>2524.5595703</ele>
        <time>2009-09-05T09:54:29Z</time>
      </trkpt>
      <trkpt lat="46.5090949" lon="9.8161217">
        <ele>2523.5979004</ele>
        <time>2009-09-05T09:54:40Z</time>
      </trkpt>
      <trkpt lat="46.5090544" lon="9.8159896">
        <ele>2524.0788574</ele>
        <time>2009-09-05T09:54:56Z</time>
      </trkpt>
      <trkpt lat="46.5090059" lon="9.8158485">
        <ele>2524.5595703</ele>
        <time>2009-09-05T09:55:09Z</time>
      </trkpt>
      <trkpt lat="46.5089491" lon="9.8156423">
        <ele>2526.9628906</ele>
        <time>2009-09-05T09:55:25Z</time>
      </trkpt>
      <trkpt lat="46.5089770" lon="9.8154840">
        <ele>2528.8852539</ele>
        <time>2009-09-05T09:55:40Z</time>
      </trkpt>
      <trkpt lat="46.5090771" lon="9.8154910">
        <ele>2530.3273926</ele>
        <time>2009-09-05T09:55:53Z</time>
      </trkpt>
      <trkpt lat="46.5091979" lon="9.8154621">
        <ele>2532.2500000</ele>
        <time>2009-09-05T09:56:10Z</time>
      </trkpt>
      <trkpt lat="46.5092532" lon="9.8154048">
        <ele>2533.6918945</ele>
        <time>2009-09-05T09:56:19Z</time>
      </trkpt>
      <trkpt lat="46.5093037" lon="9.8152099">
        <ele>2536.0952148</ele>
        <time>2009-09-05T09:56:35Z</time>
      </trkpt>
      <trkpt lat="46.5092296" lon="9.8150620">
        <ele>2538.0178223</ele>
        <time>2009-09-05T09:56:51Z</time>
      </trkpt>
      <trkpt lat="46.5091130" lon="9.8150040">
        <ele>2540.4211426</ele>
        <time>2009-09-05T09:57:09Z</time>
      </trkpt>
      <trkpt lat="46.5089882" lon="9.8149003">
        <ele>2542.3439941</ele>
        <time>2009-09-05T09:57:28Z</time>
      </trkpt>
      <trkpt lat="46.5089392" lon="9.8147609">
        <ele>2544.7470703</ele>
        <time>2009-09-05T09:57:48Z</time>
      </trkpt>
      <trkpt lat="46.5090225" lon="9.8146581">
        <ele>2547.6311035</ele>
        <time>2009-09-05T09:58:09Z</time>
      </trkpt>
      <trkpt lat="46.5090473" lon="9.8146060">
        <ele>2549.0729980</ele>
        <time>2009-09-05T09:58:27Z</time>
      </trkpt>
      <trkpt lat="46.5090487" lon="9.8145090">
        <ele>2551.4763184</ele>
        <time>2009-09-05T09:58:43Z</time>
      </trkpt>
      <trkpt lat="46.5089582" lon="9.8144421">
        <ele>2553.3989258</ele>
        <time>2009-09-05T09:59:00Z</time>
      </trkpt>
      <trkpt lat="46.5088607" lon="9.8143430">
        <ele>2555.8020020</ele>
        <time>2009-09-05T09:59:19Z</time>
      </trkpt>
      <trkpt lat="46.5088082" lon="9.8142087">
        <ele>2558.2055664</ele>
        <time>2009-09-05T09:59:38Z</time>
      </trkpt>
      <trkpt lat="46.5088533" lon="9.8140054">
        <ele>2560.1281738</ele>
        <time>2009-09-05T09:59:58Z</time>
      </trkpt>
      <trkpt lat="46.5088799" lon="9.8137767">
        <ele>2562.5314941</ele>
        <time>2009-09-05T10:00:18Z</time>
      </trkpt>
      <trkpt lat="46.5088809" lon="9.8135700">
        <ele>2564.4541016</ele>
        <time>2009-09-05T10:00:37Z</time>
      </trkpt>
      <trkpt lat="46.5089193" lon="9.8134061">
        <ele>2566.3767090</ele>
        <time>2009-09-05T10:00:54Z</time>
      </trkpt>
      <trkpt lat="46.5089185" lon="9.8132110">
        <ele>2568.2993164</ele>
        <time>2009-09-05T10:01:11Z</time>
      </trkpt>
      <trkpt lat="46.5089267" lon="9.8129909">
        <ele>2571.6638184</ele>
        <time>2009-09-05T10:01:31Z</time>
      </trkpt>
      <trkpt lat="46.5089537" lon="9.8127762">
        <ele>2574.5480957</ele>
        <time>2009-09-05T10:01:52Z</time>
      </trkpt>
      <trkpt lat="46.5089727" lon="9.8125757">
        <ele>2575.9899902</ele>
        <time>2009-09-05T10:02:09Z</time>
      </trkpt>
      <trkpt lat="46.5089753" lon="9.8124584">
        <ele>2577.4318848</ele>
        <time>2009-09-05T10:02:16Z</time>
      </trkpt>
      <trkpt lat="46.5088766" lon="9.8122592">
        <ele>2578.3933105</ele>
        <time>2009-09-05T10:02:30Z</time>
      </trkpt>
      <trkpt lat="46.5088126" lon="9.8122163">
        <ele>2579.3544922</ele>
        <time>2009-09-05T10:02:35Z</time>
      </trkpt>
      <trkpt lat="46.5087277" lon="9.8120843">
        <ele>2579.3544922</ele>
        <time>2009-09-05T10:02:45Z</time>
      </trkpt>
      <trkpt lat="46.5086923" lon="9.8120361">
        <ele>2580.3159180</ele>
        <time>2009-09-05T10:02:49Z</time>
      </trkpt>
      <trkpt lat="46.5086624" lon="9.8119906">
        <ele>2585.1223145</ele>
        <time>2009-09-05T10:02:53Z</time>
      </trkpt>
      <trkpt lat="46.5086541" lon="9.8119644">
        <ele>2579.8352051</ele>
        <time>2009-09-05T10:02:55Z</time>
      </trkpt>
      <trkpt lat="46.5086593" lon="9.8119298">
        <ele>2579.3544922</ele>
        <time>2009-09-05T10:02:57Z</time>
      </trkpt>
      <trkpt lat="46.5086634" lon="9.8119034">
        <ele>2580.3159180</ele>
        <time>2009-09-05T10:02:59Z</time>
      </trkpt>
      <trkpt lat="46.5086121" lon="9.8117935">
        <ele>2581.7578125</ele>
        <time>2009-09-05T10:03:07Z</time>
      </trkpt>
      <trkpt lat="46.5085613" lon="9.8117269">
        <ele>2582.2385254</ele>
        <time>2009-09-05T10:03:13Z</time>
      </trkpt>
      <trkpt lat="46.5084521" lon="9.8115491">
        <ele>2582.7189941</ele>
        <time>2009-09-05T10:03:28Z</time>
      </trkpt>
      <trkpt lat="46.5083488" lon="9.8113398">
        <ele>2585.1223145</ele>
        <time>2009-09-05T10:03:43Z</time>
      </trkpt>
      <trkpt lat="46.5083037" lon="9.8113117">
        <ele>2585.6030273</ele>
        <time>2009-09-05T10:03:47Z</time>
      </trkpt>
      <trkpt lat="46.5082606" lon="9.8112902">
        <ele>2585.6030273</ele>
        <time>2009-09-05T10:03:51Z</time>
      </trkpt>
      <trkpt lat="46.5082090" lon="9.8111803">
        <ele>2586.5642090</ele>
        <time>2009-09-05T10:03:57Z</time>
      </trkpt>
      <trkpt lat="46.5082157" lon="9.8109830">
        <ele>2587.0449219</ele>
        <time>2009-09-05T10:04:08Z</time>
      </trkpt>
      <trkpt lat="46.5082331" lon="9.8106752">
        <ele>2589.4484863</ele>
        <time>2009-09-05T10:04:26Z</time>
      </trkpt>
      <trkpt lat="46.5082469" lon="9.8105044">
        <ele>2590.4096680</ele>
        <time>2009-09-05T10:04:36Z</time>
      </trkpt>
      <trkpt lat="46.5082291" lon="9.8104250">
        <ele>2590.4096680</ele>
        <time>2009-09-05T10:04:41Z</time>
      </trkpt>
      <trkpt lat="46.5081413" lon="9.8102439">
        <ele>2591.8518066</ele>
        <time>2009-09-05T10:04:55Z</time>
      </trkpt>
      <trkpt lat="46.5080881" lon="9.8102045">
        <ele>2592.3325195</ele>
        <time>2009-09-05T10:05:00Z</time>
      </trkpt>
      <trkpt lat="46.5079823" lon="9.8100339">
        <ele>2592.8129883</ele>
        <time>2009-09-05T10:05:12Z</time>
      </trkpt>
      <trkpt lat="46.5079605" lon="9.8099802">
        <ele>2593.2937012</ele>
        <time>2009-09-05T10:05:16Z</time>
      </trkpt>
      <trkpt lat="46.5078025" lon="9.8097944">
        <ele>2594.7355957</ele>
        <time>2009-09-05T10:05:33Z</time>
      </trkpt>
      <trkpt lat="46.5077388" lon="9.8096082">
        <ele>2595.6970215</ele>
        <time>2009-09-05T10:05:45Z</time>
      </trkpt>
      <trkpt lat="46.5077240" lon="9.8094246">
        <ele>2596.6582031</ele>
        <time>2009-09-05T10:05:56Z</time>
      </trkpt>
      <trkpt lat="46.5077087" lon="9.8092246">
        <ele>2598.5810547</ele>
        <time>2009-09-05T10:06:07Z</time>
      </trkpt>
      <trkpt lat="46.5076950" lon="9.8090001">
        <ele>2600.5034180</ele>
        <time>2009-09-05T10:06:23Z</time>
      </trkpt>
      <trkpt lat="46.5076852" lon="9.8088100">
        <ele>2601.9453125</ele>
        <time>2009-09-05T10:06:36Z</time>
      </trkpt>
      <trkpt lat="46.5076854" lon="9.8087352">
        <ele>2603.3872070</ele>
        <time>2009-09-05T10:06:41Z</time>
      </trkpt>
      <trkpt lat="46.5076559" lon="9.8086633">
        <ele>2603.8681641</ele>
        <time>2009-09-05T10:06:46Z</time>
      </trkpt>
      <trkpt lat="46.5076377" lon="9.8086267">
        <ele>2604.3486328</ele>
        <time>2009-09-05T10:06:49Z</time>
      </trkpt>
      <trkpt lat="46.5076206" lon="9.8086084">
        <ele>2604.3486328</ele>
        <time>2009-09-05T10:06:52Z</time>
      </trkpt>
      <trkpt lat="46.5075982" lon="9.8085917">
        <ele>2604.8291016</ele>
        <time>2009-09-05T10:06:54Z</time>
      </trkpt>
      <trkpt lat="46.5075211" lon="9.8084992">
        <ele>2605.7905273</ele>
        <time>2009-09-05T10:07:04Z</time>
      </trkpt>
      <trkpt lat="46.5074476" lon="9.8084280">
        <ele>2607.2324219</ele>
        <time>2009-09-05T10:07:13Z</time>
      </trkpt>
      <trkpt lat="46.5073593" lon="9.8083049">
        <ele>2610.1166992</ele>
        <time>2009-09-05T10:07:25Z</time>
      </trkpt>
      <trkpt lat="46.5073191" lon="9.8082394">
        <ele>2611.5585938</ele>
        <time>2009-09-05T10:07:31Z</time>
      </trkpt>
      <trkpt lat="46.5072421" lon="9.8082247">
        <ele>2613.4814453</ele>
        <time>2009-09-05T10:07:38Z</time>
      </trkpt>
      <trkpt lat="46.5071998" lon="9.8081303">
        <ele>2613.9624023</ele>
        <time>2009-09-05T10:07:45Z</time>
      </trkpt>
      <trkpt lat="46.5071552" lon="9.8081290">
        <ele>2614.9233398</ele>
        <time>2009-09-05T10:07:49Z</time>
      </trkpt>
      <trkpt lat="46.5071084" lon="9.8081134">
        <ele>2615.4042969</ele>
        <time>2009-09-05T10:07:54Z</time>
      </trkpt>
      <trkpt lat="46.5070626" lon="9.8080920">
        <ele>2615.8847656</ele>
        <time>2009-09-05T10:07:59Z</time>
      </trkpt>
      <trkpt lat="46.5070286" lon="9.8081439">
        <ele>2616.8461914</ele>
        <time>2009-09-05T10:08:14Z</time>
      </trkpt>
      <trkpt lat="46.5069593" lon="9.8081402">
        <ele>2615.8847656</ele>
        <time>2009-09-05T10:09:46Z</time>
      </trkpt>
      <trkpt lat="46.5066266" lon="9.8081895">
        <ele>2613.9624023</ele>
        <time>2009-09-05T10:09:56Z</time>
      </trkpt>
      <trkpt lat="46.5064425" lon="9.8081187">
        <ele>2611.5585938</ele>
        <time>2009-09-05T10:10:00Z</time>
      </trkpt>
      <trkpt lat="46.5062617" lon="9.8079693">
        <ele>2609.6357422</ele>
        <time>2009-09-05T10:10:06Z</time>
      </trkpt>
      <trkpt lat="46.5062314" lon="9.8078982">
        <ele>2611.5585938</ele>
        <time>2009-09-05T10:10:10Z</time>
      </trkpt>
      <trkpt lat="46.5062178" lon="9.8078159">
        <ele>2611.5585938</ele>
        <time>2009-09-05T10:10:14Z</time>
      </trkpt>
      <trkpt lat="46.5061865" lon="9.8077437">
        <ele>2612.5200195</ele>
        <time>2009-09-05T10:10:19Z</time>
      </trkpt>
      <trkpt lat="46.5061138" lon="9.8073660">
        <ele>2611.5585938</ele>
        <time>2009-09-05T10:10:36Z</time>
      </trkpt>
      <trkpt lat="46.5060744" lon="9.8071444">
        <ele>2612.5200195</ele>
        <time>2009-09-05T10:10:42Z</time>
      </trkpt>
      <trkpt lat="46.5060133" lon="9.8068483">
        <ele>2613.0009766</ele>
        <time>2009-09-05T10:10:57Z</time>
      </trkpt>
      <trkpt lat="46.5059797" lon="9.8066409">
        <ele>2612.5200195</ele>
        <time>2009-09-05T10:11:06Z</time>
      </trkpt>
      <trkpt lat="46.5059690" lon="9.8065152">
        <ele>2612.0395508</ele>
        <time>2009-09-05T10:11:12Z</time>
      </trkpt>
      <trkpt lat="46.5059096" lon="9.8062782">
        <ele>2613.4814453</ele>
        <time>2009-09-05T10:11:23Z</time>
      </trkpt>
      <trkpt lat="46.5058743" lon="9.8061280">
        <ele>2613.0009766</ele>
        <time>2009-09-05T10:11:30Z</time>
      </trkpt>
      <trkpt lat="46.5058394" lon="9.8060289">
        <ele>2613.9624023</ele>
        <time>2009-09-05T10:11:36Z</time>
      </trkpt>
      <trkpt lat="46.5057895" lon="9.8058889">
        <ele>2614.4428711</ele>
        <time>2009-09-05T10:11:43Z</time>
      </trkpt>
      <trkpt lat="46.5057612" lon="9.8058315">
        <ele>2614.9233398</ele>
        <time>2009-09-05T10:11:47Z</time>
      </trkpt>
      <trkpt lat="46.5057408" lon="9.8057433">
        <ele>2615.8847656</ele>
        <time>2009-09-05T10:11:52Z</time>
      </trkpt>
      <trkpt lat="46.5056999" lon="9.8056185">
        <ele>2615.8847656</ele>
        <time>2009-09-05T10:11:59Z</time>
      </trkpt>
      <trkpt lat="46.5055818" lon="9.8055400">
        <ele>2618.7685547</ele>
        <time>2009-09-05T10:12:10Z</time>
      </trkpt>
      <trkpt lat="46.5054280" lon="9.8054293">
        <ele>2619.2495117</ele>
        <time>2009-09-05T10:12:24Z</time>
      </trkpt>
      <trkpt lat="46.5053813" lon="9.8053820">
        <ele>2619.7299805</ele>
        <time>2009-09-05T10:12:28Z</time>
      </trkpt>
      <trkpt lat="46.5053186" lon="9.8053307">
        <ele>2620.6914063</ele>
        <time>2009-09-05T10:12:34Z</time>
      </trkpt>
      <trkpt lat="46.5052759" lon="9.8053098">
        <ele>2622.1333008</ele>
        <time>2009-09-05T10:12:39Z</time>
      </trkpt>
      <trkpt lat="46.5051409" lon="9.8052294">
        <ele>2623.5751953</ele>
        <time>2009-09-05T10:13:03Z</time>
      </trkpt>
      <trkpt lat="46.5050805" lon="9.8051323">
        <ele>2626.9399414</ele>
        <time>2009-09-05T10:13:20Z</time>
      </trkpt>
      <trkpt lat="46.5050781" lon="9.8049717">
        <ele>2629.8237305</ele>
        <time>2009-09-05T10:13:43Z</time>
      </trkpt>
      <trkpt lat="46.5050935" lon="9.8048632">
        <ele>2633.1884766</ele>
        <time>2009-09-05T10:13:59Z</time>
      </trkpt>
      <trkpt lat="46.5050941" lon="9.8048567">
        <ele>2633.1884766</ele>
        <time>2009-09-05T10:14:00Z</time>
      </trkpt>
      <trkpt lat="46.5050935" lon="9.8045534">
        <ele>2636.0722656</ele>
        <time>2009-09-05T10:14:40Z</time>
      </trkpt>
      <trkpt lat="46.5050824" lon="9.8043082">
        <ele>2637.0336914</ele>
        <time>2009-09-05T10:15:04Z</time>
      </trkpt>
      <trkpt lat="46.5050771" lon="9.8042181">
        <ele>2638.9560547</ele>
        <time>2009-09-05T10:15:14Z</time>
      </trkpt>
      <trkpt lat="46.5050560" lon="9.8040125">
        <ele>2640.3979492</ele>
        <time>2009-09-05T10:15:38Z</time>
      </trkpt>
      <trkpt lat="46.5050556" lon="9.8038249">
        <ele>2642.8012695</ele>
        <time>2009-09-05T10:15:59Z</time>
      </trkpt>
      <trkpt lat="46.5050236" lon="9.8036540">
        <ele>2644.2436523</ele>
        <time>2009-09-05T10:16:17Z</time>
      </trkpt>
      <trkpt lat="46.5049789" lon="9.8034665">
        <ele>2647.1279297</ele>
        <time>2009-09-05T10:16:42Z</time>
      </trkpt>
      <trkpt lat="46.5049710" lon="9.8033584">
        <ele>2650.4921875</ele>
        <time>2009-09-05T10:17:00Z</time>
      </trkpt>
      <trkpt lat="46.5049276" lon="9.8031088">
        <ele>2651.4536133</ele>
        <time>2009-09-05T10:17:27Z</time>
      </trkpt>
      <trkpt lat="46.5049001" lon="9.8029560">
        <ele>2653.8569336</ele>
        <time>2009-09-05T10:17:49Z</time>
      </trkpt>
      <trkpt lat="46.5048802" lon="9.8027402">
        <ele>2656.2602539</ele>
        <time>2009-09-05T10:18:11Z</time>
      </trkpt>
      <trkpt lat="46.5048971" lon="9.8025814">
        <ele>2657.2211914</ele>
        <time>2009-09-05T10:18:30Z</time>
      </trkpt>
      <trkpt lat="46.5048447" lon="9.8023846">
        <ele>2659.1440430</ele>
        <time>2009-09-05T10:18:52Z</time>
      </trkpt>
      <trkpt lat="46.5047613" lon="9.8022453">
        <ele>2660.1054688</ele>
        <time>2009-09-05T10:19:08Z</time>
      </trkpt>
      <trkpt lat="46.5046243" lon="9.8021147">
        <ele>2660.5859375</ele>
        <time>2009-09-05T10:19:27Z</time>
      </trkpt>
      <trkpt lat="46.5045219" lon="9.8019877">
        <ele>2662.0278320</ele>
        <time>2009-09-05T10:19:48Z</time>
      </trkpt>
      <trkpt lat="46.5044609" lon="9.8018275">
        <ele>2664.4311523</ele>
        <time>2009-09-05T10:20:11Z</time>
      </trkpt>
      <trkpt lat="46.5043610" lon="9.8017076">
        <ele>2664.4311523</ele>
        <time>2009-09-05T10:20:25Z</time>
      </trkpt>
      <trkpt lat="46.5042625" lon="9.8015887">
        <ele>2665.3925781</ele>
        <time>2009-09-05T10:20:41Z</time>
      </trkpt>
      <trkpt lat="46.5041873" lon="9.8014668">
        <ele>2666.8344727</ele>
        <time>2009-09-05T10:20:58Z</time>
      </trkpt>
      <trkpt lat="46.5041671" lon="9.8013596">
        <ele>2667.3149414</ele>
        <time>2009-09-05T10:21:12Z</time>
      </trkpt>
      <trkpt lat="46.5041573" lon="9.8012713">
        <ele>2667.7958984</ele>
        <time>2009-09-05T10:21:20Z</time>
      </trkpt>
      <trkpt lat="46.5041422" lon="9.8011650">
        <ele>2668.2763672</ele>
        <time>2009-09-05T10:21:33Z</time>
      </trkpt>
      <trkpt lat="46.5041135" lon="9.8009729">
        <ele>2668.2763672</ele>
        <time>2009-09-05T10:21:46Z</time>
      </trkpt>
      <trkpt lat="46.5041028" lon="9.8008608">
        <ele>2668.7568359</ele>
        <time>2009-09-05T10:21:53Z</time>
      </trkpt>
      <trkpt lat="46.5040965" lon="9.8007614">
        <ele>2669.2377930</ele>
        <time>2009-09-05T10:21:59Z</time>
      </trkpt>
      <trkpt lat="46.5040826" lon="9.8005160">
        <ele>2670.1992188</ele>
        <time>2009-09-05T10:22:13Z</time>
      </trkpt>
      <trkpt lat="46.5040972" lon="9.8004462">
        <ele>2671.1601563</ele>
        <time>2009-09-05T10:22:18Z</time>
      </trkpt>
      <trkpt lat="46.5041495" lon="9.8001303">
        <ele>2671.1601563</ele>
        <time>2009-09-05T10:22:33Z</time>
      </trkpt>
      <trkpt lat="46.5040805" lon="9.7999230">
        <ele>2670.6796875</ele>
        <time>2009-09-05T10:22:43Z</time>
      </trkpt>
      <trkpt lat="46.5040443" lon="9.7996916">
        <ele>2673.0830078</ele>
        <time>2009-09-05T10:22:56Z</time>
      </trkpt>
      <trkpt lat="46.5040328" lon="9.7996113">
        <ele>2673.0830078</ele>
        <time>2009-09-05T10:23:00Z</time>
      </trkpt>
      <trkpt lat="46.5040216" lon="9.7995211">
        <ele>2673.5634766</ele>
        <time>2009-09-05T10:23:05Z</time>
      </trkpt>
      <trkpt lat="46.5040128" lon="9.7994586">
        <ele>2674.0439453</ele>
        <time>2009-09-05T10:23:09Z</time>
      </trkpt>
      <trkpt lat="46.5039913" lon="9.7993068">
        <ele>2674.5249023</ele>
        <time>2009-09-05T10:23:22Z</time>
      </trkpt>
      <trkpt lat="46.5039697" lon="9.7992062">
        <ele>2674.5249023</ele>
        <time>2009-09-05T10:23:38Z</time>
      </trkpt>
      <trkpt lat="46.5039709" lon="9.7991940">
        <ele>2674.0439453</ele>
        <time>2009-09-05T10:23:53Z</time>
      </trkpt>
      <trkpt lat="46.5039731" lon="9.7992259">
        <ele>2676.9287109</ele>
        <time>2009-09-05T10:41:37Z</time>
      </trkpt>
      <trkpt lat="46.5039620" lon="9.7991392">
        <ele>2675.9667969</ele>
        <time>2009-09-05T10:41:48Z</time>
      </trkpt>
      <trkpt lat="46.5039567" lon="9.7990016">
        <ele>2676.4477539</ele>
        <time>2009-09-05T10:42:01Z</time>
      </trkpt>
      <trkpt lat="46.5039471" lon="9.7989540">
        <ele>2676.4477539</ele>
        <time>2009-09-05T10:42:05Z</time>
      </trkpt>
      <trkpt lat="46.5039339" lon="9.7988523">
        <ele>2676.4477539</ele>
        <time>2009-09-05T10:42:11Z</time>
      </trkpt>
      <trkpt lat="46.5038843" lon="9.7987431">
        <ele>2675.9667969</ele>
        <time>2009-09-05T10:42:18Z</time>
      </trkpt>
      <trkpt lat="46.5038408" lon="9.7984012">
        <ele>2678.3706055</ele>
        <time>2009-09-05T10:42:33Z</time>
      </trkpt>
      <trkpt lat="46.5038394" lon="9.7983440">
        <ele>2679.3320313</ele>
        <time>2009-09-05T10:42:36Z</time>
      </trkpt>
      <trkpt lat="46.5038161" lon="9.7983126">
        <ele>2678.8510742</ele>
        <time>2009-09-05T10:42:39Z</time>
      </trkpt>
      <trkpt lat="46.5037483" lon="9.7982820">
        <ele>2678.3706055</ele>
        <time>2009-09-05T10:42:52Z</time>
      </trkpt>
      <trkpt lat="46.5037201" lon="9.7982513">
        <ele>2678.8510742</ele>
        <time>2009-09-05T10:42:55Z</time>
      </trkpt>
      <trkpt lat="46.5036629" lon="9.7982206">
        <ele>2678.8510742</ele>
        <time>2009-09-05T10:42:59Z</time>
      </trkpt>
      <trkpt lat="46.5034024" lon="9.7980253">
        <ele>2675.9667969</ele>
        <time>2009-09-05T10:43:14Z</time>
      </trkpt>
      <trkpt lat="46.5032433" lon="9.7978405">
        <ele>2672.6020508</ele>
        <time>2009-09-05T10:43:23Z</time>
      </trkpt>
      <trkpt lat="46.5030961" lon="9.7975912">
        <ele>2669.2377930</ele>
        <time>2009-09-05T10:43:33Z</time>
      </trkpt>
      <trkpt lat="46.5030746" lon="9.7975655">
        <ele>2669.2377930</ele>
        <time>2009-09-05T10:43:34Z</time>
      </trkpt>
      <trkpt lat="46.5029343" lon="9.7973718">
        <ele>2664.9116211</ele>
        <time>2009-09-05T10:43:41Z</time>
      </trkpt>
      <trkpt lat="46.5028229" lon="9.7971353">
        <ele>2665.8730469</ele>
        <time>2009-09-05T10:43:52Z</time>
      </trkpt>
      <trkpt lat="46.5028288" lon="9.7970625">
        <ele>2665.8730469</ele>
        <time>2009-09-05T10:44:03Z</time>
      </trkpt>
      <trkpt lat="46.5028385" lon="9.7968511">
        <ele>2664.9116211</ele>
        <time>2009-09-05T10:44:19Z</time>
      </trkpt>
      <trkpt lat="46.5028766" lon="9.7966015">
        <ele>2665.8730469</ele>
        <time>2009-09-05T10:44:34Z</time>
      </trkpt>
      <trkpt lat="46.5028903" lon="9.7965846">
        <ele>2665.3925781</ele>
        <time>2009-09-05T10:44:36Z</time>
      </trkpt>
      <trkpt lat="46.5029501" lon="9.7965216">
        <ele>2665.3925781</ele>
        <time>2009-09-05T10:44:50Z</time>
      </trkpt>
      <trkpt lat="46.5031176" lon="9.7963516">
        <ele>2663.9506836</ele>
        <time>2009-09-05T10:45:00Z</time>
      </trkpt>
      <trkpt lat="46.5031731" lon="9.7963158">
        <ele>2663.9506836</ele>
        <time>2009-09-05T10:45:09Z</time>
      </trkpt>
      <trkpt lat="46.5031727" lon="9.7962814">
        <ele>2663.4697266</ele>
        <time>2009-09-05T10:45:26Z</time>
      </trkpt>
      <trkpt lat="46.5031541" lon="9.7962503">
        <ele>2663.9506836</ele>
        <time>2009-09-05T10:45:30Z</time>
      </trkpt>
      <trkpt lat="46.5029498" lon="9.7960917">
        <ele>2666.3535156</ele>
        <time>2009-09-05T10:45:45Z</time>
      </trkpt>
      <trkpt lat="46.5028571" lon="9.7960198">
        <ele>2666.8344727</ele>
        <time>2009-09-05T10:45:51Z</time>
      </trkpt>
      <trkpt lat="46.5027897" lon="9.7960100">
        <ele>2665.8730469</ele>
        <time>2009-09-05T10:46:05Z</time>
      </trkpt>
      <trkpt lat="46.5027617" lon="9.7959900">
        <ele>2666.8344727</ele>
        <time>2009-09-05T10:46:08Z</time>
      </trkpt>
      <trkpt lat="46.5026788" lon="9.7959151">
        <ele>2667.7958984</ele>
        <time>2009-09-05T10:46:21Z</time>
      </trkpt>
      <trkpt lat="46.5026576" lon="9.7959053">
        <ele>2667.7958984</ele>
        <time>2009-09-05T10:46:23Z</time>
      </trkpt>
      <trkpt lat="46.5025903" lon="9.7957374">
        <ele>2670.1992188</ele>
        <time>2009-09-05T10:46:36Z</time>
      </trkpt>
      <trkpt lat="46.5026507" lon="9.7956535">
        <ele>2671.1601563</ele>
        <time>2009-09-05T10:46:50Z</time>
      </trkpt>
      <trkpt lat="46.5026566" lon="9.7955687">
        <ele>2670.1992188</ele>
        <time>2009-09-05T10:46:58Z</time>
      </trkpt>
      <trkpt lat="46.5026391" lon="9.7954296">
        <ele>2672.6020508</ele>
        <time>2009-09-05T10:47:15Z</time>
      </trkpt>
      <trkpt lat="46.5026498" lon="9.7953282">
        <ele>2671.6411133</ele>
        <time>2009-09-05T10:47:36Z</time>
      </trkpt>
      <trkpt lat="46.5026675" lon="9.7952747">
        <ele>2670.6796875</ele>
        <time>2009-09-05T10:47:38Z</time>
      </trkpt>
      <trkpt lat="46.5026510" lon="9.7951704">
        <ele>2671.1601563</ele>
        <time>2009-09-05T10:47:49Z</time>
      </trkpt>
      <trkpt lat="46.5026544" lon="9.7951632">
        <ele>2671.1601563</ele>
        <time>2009-09-05T10:48:12Z</time>
      </trkpt>
      <trkpt lat="46.5026995" lon="9.7950040">
        <ele>2670.1992188</ele>
        <time>2009-09-05T10:48:18Z</time>
      </trkpt>
      <trkpt lat="46.5027268" lon="9.7949180">
        <ele>2669.7182617</ele>
        <time>2009-09-05T10:48:21Z</time>
      </trkpt>
      <trkpt lat="46.5026182" lon="9.7947261">
        <ele>2666.3535156</ele>
        <time>2009-09-05T10:48:28Z</time>
      </trkpt>
      <trkpt lat="46.5025832" lon="9.7945058">
        <ele>2665.8730469</ele>
        <time>2009-09-05T10:48:32Z</time>
      </trkpt>
      <trkpt lat="46.5024829" lon="9.7940260">
        <ele>2666.8344727</ele>
        <time>2009-09-05T10:48:45Z</time>
      </trkpt>
      <trkpt lat="46.5023696" lon="9.7939307">
        <ele>2663.9506836</ele>
        <time>2009-09-05T10:48:50Z</time>
      </trkpt>
      <trkpt lat="46.5023347" lon="9.7939066">
        <ele>2662.9892578</ele>
        <time>2009-09-05T10:48:52Z</time>
      </trkpt>
      <trkpt lat="46.5022593" lon="9.7937448">
        <ele>2661.0664063</ele>
        <time>2009-09-05T10:48:57Z</time>
      </trkpt>
      <trkpt lat="46.5022146" lon="9.7936411">
        <ele>2661.0664063</ele>
        <time>2009-09-05T10:49:00Z</time>
      </trkpt>
      <trkpt lat="46.5021791" lon="9.7934089">
        <ele>2661.0664063</ele>
        <time>2009-09-05T10:49:09Z</time>
      </trkpt>
      <trkpt lat="46.5022632" lon="9.7931150">
        <ele>2659.6245117</ele>
        <time>2009-09-05T10:49:19Z</time>
      </trkpt>
      <trkpt lat="46.5022950" lon="9.7930057">
        <ele>2661.5473633</ele>
        <time>2009-09-05T10:49:23Z</time>
      </trkpt>
      <trkpt lat="46.5023187" lon="9.7928996">
        <ele>2659.6245117</ele>
        <time>2009-09-05T10:49:29Z</time>
      </trkpt>
      <trkpt lat="46.5023126" lon="9.7926108">
        <ele>2660.1054688</ele>
        <time>2009-09-05T10:49:43Z</time>
      </trkpt>
      <trkpt lat="46.5023104" lon="9.7925379">
        <ele>2661.0664063</ele>
        <time>2009-09-05T10:49:47Z</time>
      </trkpt>
      <trkpt lat="46.5024358" lon="9.7923583">
        <ele>2663.9506836</ele>
        <time>2009-09-05T10:50:00Z</time>
      </trkpt>
      <trkpt lat="46.5024392" lon="9.7922034">
        <ele>2666.3535156</ele>
        <time>2009-09-05T10:50:19Z</time>
      </trkpt>
      <trkpt lat="46.5024538" lon="9.7920904">
        <ele>2666.8344727</ele>
        <time>2009-09-05T10:50:33Z</time>
      </trkpt>
      <trkpt lat="46.5025112" lon="9.7919169">
        <ele>2669.2377930</ele>
        <time>2009-09-05T10:50:51Z</time>
      </trkpt>
      <trkpt lat="46.5025301" lon="9.7918493">
        <ele>2670.1992188</ele>
        <time>2009-09-05T10:50:55Z</time>
      </trkpt>
      <trkpt lat="46.5025253" lon="9.7916471">
        <ele>2671.1601563</ele>
        <time>2009-09-05T10:51:03Z</time>
      </trkpt>
      <trkpt lat="46.5024606" lon="9.7914721">
        <ele>2672.6020508</ele>
        <time>2009-09-05T10:51:18Z</time>
      </trkpt>
      <trkpt lat="46.5023953" lon="9.7913396">
        <ele>2674.5249023</ele>
        <time>2009-09-05T10:51:34Z</time>
      </trkpt>
      <trkpt lat="46.5023208" lon="9.7912401">
        <ele>2675.0053711</ele>
        <time>2009-09-05T10:51:47Z</time>
      </trkpt>
      <trkpt lat="46.5022724" lon="9.7911316">
        <ele>2676.4477539</ele>
        <time>2009-09-05T10:52:03Z</time>
      </trkpt>
      <trkpt lat="46.5021767" lon="9.7908886">
        <ele>2676.4477539</ele>
        <time>2009-09-05T10:52:17Z</time>
      </trkpt>
      <trkpt lat="46.5020565" lon="9.7906480">
        <ele>2677.8901367</ele>
        <time>2009-09-05T10:52:31Z</time>
      </trkpt>
      <trkpt lat="46.5019609" lon="9.7904417">
        <ele>2678.3706055</ele>
        <time>2009-09-05T10:52:42Z</time>
      </trkpt>
      <trkpt lat="46.5018493" lon="9.7902130">
        <ele>2678.3706055</ele>
        <time>2009-09-05T10:52:55Z</time>
      </trkpt>
      <trkpt lat="46.5017128" lon="9.7899428">
        <ele>2678.3706055</ele>
        <time>2009-09-05T10:53:10Z</time>
      </trkpt>
      <trkpt lat="46.5016028" lon="9.7896570">
        <ele>2676.4477539</ele>
        <time>2009-09-05T10:53:21Z</time>
      </trkpt>
      <trkpt lat="46.5015699" lon="9.7895474">
        <ele>2675.0053711</ele>
        <time>2009-09-05T10:53:25Z</time>
      </trkpt>
      <trkpt lat="46.5015449" lon="9.7893233">
        <ele>2672.1215820</ele>
        <time>2009-09-05T10:53:33Z</time>
      </trkpt>
      <trkpt lat="46.5015454" lon="9.7890591">
        <ele>2669.2377930</ele>
        <time>2009-09-05T10:53:41Z</time>
      </trkpt>
      <trkpt lat="46.5015334" lon="9.7890201">
        <ele>2668.7568359</ele>
        <time>2009-09-05T10:53:42Z</time>
      </trkpt>
      <trkpt lat="46.5015322" lon="9.7887671">
        <ele>2664.9116211</ele>
        <time>2009-09-05T10:53:49Z</time>
      </trkpt>
      <trkpt lat="46.5015286" lon="9.7887211">
        <ele>2664.9116211</ele>
        <time>2009-09-05T10:53:50Z</time>
      </trkpt>
      <trkpt lat="46.5014791" lon="9.7885646">
        <ele>2663.4697266</ele>
        <time>2009-09-05T10:53:54Z</time>
      </trkpt>
      <trkpt lat="46.5013741" lon="9.7882809">
        <ele>2660.5859375</ele>
        <time>2009-09-05T10:54:05Z</time>
      </trkpt>
      <trkpt lat="46.5013838" lon="9.7882666">
        <ele>2660.1054688</ele>
        <time>2009-09-05T10:54:20Z</time>
      </trkpt>
      <trkpt lat="46.5013667" lon="9.7879995">
        <ele>2658.1826172</ele>
        <time>2009-09-05T10:55:27Z</time>
      </trkpt>
      <trkpt lat="46.5013589" lon="9.7877606">
        <ele>2655.2988281</ele>
        <time>2009-09-05T10:55:35Z</time>
      </trkpt>
      <trkpt lat="46.5013408" lon="9.7875755">
        <ele>2651.9340820</ele>
        <time>2009-09-05T10:55:40Z</time>
      </trkpt>
      <trkpt lat="46.5013459" lon="9.7875436">
        <ele>2652.4150391</ele>
        <time>2009-09-05T10:55:53Z</time>
      </trkpt>
      <trkpt lat="46.5013461" lon="9.7874276">
        <ele>2651.9340820</ele>
        <time>2009-09-05T10:56:03Z</time>
      </trkpt>
      <trkpt lat="46.5013201" lon="9.7872215">
        <ele>2651.9340820</ele>
        <time>2009-09-05T10:56:19Z</time>
      </trkpt>
      <trkpt lat="46.5012854" lon="9.7869938">
        <ele>2650.4921875</ele>
        <time>2009-09-05T10:56:33Z</time>
      </trkpt>
      <trkpt lat="46.5012565" lon="9.7866470">
        <ele>2647.6083984</ele>
        <time>2009-09-05T10:56:45Z</time>
      </trkpt>
      <trkpt lat="46.5012541" lon="9.7865903">
        <ele>2646.6469727</ele>
        <time>2009-09-05T10:56:47Z</time>
      </trkpt>
      <trkpt lat="46.5012595" lon="9.7861899">
        <ele>2643.2817383</ele>
        <time>2009-09-05T10:56:56Z</time>
      </trkpt>
      <trkpt lat="46.5012530" lon="9.7861449">
        <ele>2643.2817383</ele>
        <time>2009-09-05T10:56:57Z</time>
      </trkpt>
      <trkpt lat="46.5012119" lon="9.7857376">
        <ele>2641.3593750</ele>
        <time>2009-09-05T10:57:09Z</time>
      </trkpt>
      <trkpt lat="46.5012014" lon="9.7856627">
        <ele>2640.8789063</ele>
        <time>2009-09-05T10:57:11Z</time>
      </trkpt>
      <trkpt lat="46.5012242" lon="9.7853519">
        <ele>2642.8012695</ele>
        <time>2009-09-05T10:57:26Z</time>
      </trkpt>
      <trkpt lat="46.5012387" lon="9.7850783">
        <ele>2643.7626953</ele>
        <time>2009-09-05T10:58:25Z</time>
      </trkpt>
      <trkpt lat="46.5013026" lon="9.7847327">
        <ele>2643.7626953</ele>
        <time>2009-09-05T10:58:38Z</time>
      </trkpt>
      <trkpt lat="46.5013814" lon="9.7844003">
        <ele>2643.7626953</ele>
        <time>2009-09-05T10:58:51Z</time>
      </trkpt>
      <trkpt lat="46.5014999" lon="9.7839080">
        <ele>2642.8012695</ele>
        <time>2009-09-05T10:59:04Z</time>
      </trkpt>
      <trkpt lat="46.5015949" lon="9.7836064">
        <ele>2642.3208008</ele>
        <time>2009-09-05T10:59:13Z</time>
      </trkpt>
      <trkpt lat="46.5016594" lon="9.7833249">
        <ele>2642.8012695</ele>
        <time>2009-09-05T10:59:24Z</time>
      </trkpt>
      <trkpt lat="46.5017211" lon="9.7829556">
        <ele>2643.7626953</ele>
        <time>2009-09-05T10:59:39Z</time>
      </trkpt>
      <trkpt lat="46.5018176" lon="9.7824562">
        <ele>2642.3208008</ele>
        <time>2009-09-05T10:59:54Z</time>
      </trkpt>
      <trkpt lat="46.5018272" lon="9.7823325">
        <ele>2639.9174805</ele>
        <time>2009-09-05T10:59:57Z</time>
      </trkpt>
      <trkpt lat="46.5018749" lon="9.7820105">
        <ele>2641.8398438</ele>
        <time>2009-09-05T11:00:07Z</time>
      </trkpt>
      <trkpt lat="46.5019719" lon="9.7815827">
        <ele>2641.8398438</ele>
        <time>2009-09-05T11:00:21Z</time>
      </trkpt>
      <trkpt lat="46.5019988" lon="9.7815068">
        <ele>2640.3979492</ele>
        <time>2009-09-05T11:00:23Z</time>
      </trkpt>
      <trkpt lat="46.5021034" lon="9.7811408">
        <ele>2640.8789063</ele>
        <time>2009-09-05T11:00:33Z</time>
      </trkpt>
      <trkpt lat="46.5022724" lon="9.7808431">
        <ele>2641.8398438</ele>
        <time>2009-09-05T11:00:47Z</time>
      </trkpt>
      <trkpt lat="46.5024613" lon="9.7806247">
        <ele>2644.2436523</ele>
        <time>2009-09-05T11:01:00Z</time>
      </trkpt>
      <trkpt lat="46.5026188" lon="9.7804967">
        <ele>2646.6469727</ele>
        <time>2009-09-05T11:01:09Z</time>
      </trkpt>
      <trkpt lat="46.5026296" lon="9.7804826">
        <ele>2646.6469727</ele>
        <time>2009-09-05T11:01:10Z</time>
      </trkpt>
      <trkpt lat="46.5026967" lon="9.7803900">
        <ele>2648.0888672</ele>
        <time>2009-09-05T11:01:17Z</time>
      </trkpt>
      <trkpt lat="46.5027682" lon="9.7802619">
        <ele>2649.5307617</ele>
        <time>2009-09-05T11:01:31Z</time>
      </trkpt>
      <trkpt lat="46.5028920" lon="9.7800857">
        <ele>2652.8955078</ele>
        <time>2009-09-05T11:02:04Z</time>
      </trkpt>
      <trkpt lat="46.5030183" lon="9.7799004">
        <ele>2655.7792969</ele>
        <time>2009-09-05T11:02:33Z</time>
      </trkpt>
      <trkpt lat="46.5031747" lon="9.7797653">
        <ele>2657.2211914</ele>
        <time>2009-09-05T11:02:55Z</time>
      </trkpt>
      <trkpt lat="46.5033357" lon="9.7796117">
        <ele>2660.1054688</ele>
        <time>2009-09-05T11:03:20Z</time>
      </trkpt>
      <trkpt lat="46.5034680" lon="9.7794963">
        <ele>2662.5087891</ele>
        <time>2009-09-05T11:03:40Z</time>
      </trkpt>
      <trkpt lat="46.5035892" lon="9.7793922">
        <ele>2664.9116211</ele>
        <time>2009-09-05T11:04:02Z</time>
      </trkpt>
      <trkpt lat="46.5036714" lon="9.7792481">
        <ele>2667.3149414</ele>
        <time>2009-09-05T11:04:22Z</time>
      </trkpt>
      <trkpt lat="46.5037652" lon="9.7791100">
        <ele>2670.1992188</ele>
        <time>2009-09-05T11:04:43Z</time>
      </trkpt>
      <trkpt lat="46.5038200" lon="9.7789898">
        <ele>2671.6411133</ele>
        <time>2009-09-05T11:04:59Z</time>
      </trkpt>
      <trkpt lat="46.5038148" lon="9.7789233">
        <ele>2672.1215820</ele>
        <time>2009-09-05T11:05:23Z</time>
      </trkpt>
      <trkpt lat="46.5038395" lon="9.7788052">
        <ele>2673.0830078</ele>
        <time>2009-09-05T11:05:39Z</time>
      </trkpt>
      <trkpt lat="46.5038581" lon="9.7786993">
        <ele>2673.0830078</ele>
        <time>2009-09-05T11:05:57Z</time>
      </trkpt>
      <trkpt lat="46.5038635" lon="9.7786865">
        <ele>2672.6020508</ele>
        <time>2009-09-05T11:06:01Z</time>
      </trkpt>
      <trkpt lat="46.5039064" lon="9.7784919">
        <ele>2673.5634766</ele>
        <time>2009-09-05T11:06:11Z</time>
      </trkpt>
      <trkpt lat="46.5039789" lon="9.7782138">
        <ele>2673.5634766</ele>
        <time>2009-09-05T11:06:22Z</time>
      </trkpt>
      <trkpt lat="46.5040670" lon="9.7778185">
        <ele>2673.0830078</ele>
        <time>2009-09-05T11:06:36Z</time>
      </trkpt>
      <trkpt lat="46.5041224" lon="9.7774440">
        <ele>2673.5634766</ele>
        <time>2009-09-05T11:06:47Z</time>
      </trkpt>
      <trkpt lat="46.5040930" lon="9.7772983">
        <ele>2671.6411133</ele>
        <time>2009-09-05T11:06:52Z</time>
      </trkpt>
      <trkpt lat="46.5040788" lon="9.7770425">
        <ele>2669.7182617</ele>
        <time>2009-09-05T11:06:57Z</time>
      </trkpt>
      <trkpt lat="46.5039702" lon="9.7767970">
        <ele>2671.1601563</ele>
        <time>2009-09-05T11:07:06Z</time>
      </trkpt>
      <trkpt lat="46.5039106" lon="9.7765224">
        <ele>2671.1601563</ele>
        <time>2009-09-05T11:07:16Z</time>
      </trkpt>
      <trkpt lat="46.5038645" lon="9.7762824">
        <ele>2672.1215820</ele>
        <time>2009-09-05T11:07:29Z</time>
      </trkpt>
      <trkpt lat="46.5038743" lon="9.7761515">
        <ele>2671.6411133</ele>
        <time>2009-09-05T11:07:48Z</time>
      </trkpt>
      <trkpt lat="46.5038807" lon="9.7761272">
        <ele>2672.1215820</ele>
        <time>2009-09-05T11:07:49Z</time>
      </trkpt>
      <trkpt lat="46.5038773" lon="9.7759417">
        <ele>2672.6020508</ele>
        <time>2009-09-05T11:08:00Z</time>
      </trkpt>
      <trkpt lat="46.5038925" lon="9.7758454">
        <ele>2673.5634766</ele>
        <time>2009-09-05T11:08:07Z</time>
      </trkpt>
      <trkpt lat="46.5039407" lon="9.7757086">
        <ele>2674.5249023</ele>
        <time>2009-09-05T11:08:18Z</time>
      </trkpt>
      <trkpt lat="46.5039947" lon="9.7755574">
        <ele>2674.0439453</ele>
        <time>2009-09-05T11:08:30Z</time>
      </trkpt>
      <trkpt lat="46.5040929" lon="9.7753479">
        <ele>2675.4863281</ele>
        <time>2009-09-05T11:08:42Z</time>
      </trkpt>
      <trkpt lat="46.5042176" lon="9.7751156">
        <ele>2675.9667969</ele>
        <time>2009-09-05T11:08:55Z</time>
      </trkpt>
      <trkpt lat="46.5043924" lon="9.7748648">
        <ele>2676.4477539</ele>
        <time>2009-09-05T11:09:10Z</time>
      </trkpt>
      <trkpt lat="46.5044560" lon="9.7747976">
        <ele>2676.4477539</ele>
        <time>2009-09-05T11:09:24Z</time>
      </trkpt>
      <trkpt lat="46.5045515" lon="9.7746411">
        <ele>2676.4477539</ele>
        <time>2009-09-05T11:09:36Z</time>
      </trkpt>
      <trkpt lat="46.5046502" lon="9.7744834">
        <ele>2677.4091797</ele>
        <time>2009-09-05T11:09:45Z</time>
      </trkpt>
      <trkpt lat="46.5047164" lon="9.7742638">
        <ele>2676.9287109</ele>
        <time>2009-09-05T11:09:55Z</time>
      </trkpt>
      <trkpt lat="46.5049080" lon="9.7740314">
        <ele>2676.9287109</ele>
        <time>2009-09-05T11:10:08Z</time>
      </trkpt>
      <trkpt lat="46.5049958" lon="9.7738115">
        <ele>2679.3320313</ele>
        <time>2009-09-05T11:10:18Z</time>
      </trkpt>
      <trkpt lat="46.5050451" lon="9.7735118">
        <ele>2678.8510742</ele>
        <time>2009-09-05T11:10:31Z</time>
      </trkpt>
      <trkpt lat="46.5050483" lon="9.7734592">
        <ele>2678.8510742</ele>
        <time>2009-09-05T11:10:34Z</time>
      </trkpt>
      <trkpt lat="46.5049888" lon="9.7734644">
        <ele>2677.4091797</ele>
        <time>2009-09-05T11:10:37Z</time>
      </trkpt>
      <trkpt lat="46.5049034" lon="9.7734562">
        <ele>2676.4477539</ele>
        <time>2009-09-05T11:10:46Z</time>
      </trkpt>
      <trkpt lat="46.5049299" lon="9.7734711">
        <ele>2676.4477539</ele>
        <time>2009-09-05T11:10:52Z</time>
      </trkpt>
      <trkpt lat="46.5049659" lon="9.7733953">
        <ele>2674.5249023</ele>
        <time>2009-09-05T11:10:55Z</time>
      </trkpt>
      <trkpt lat="46.5051250" lon="9.7731196">
        <ele>2671.1601563</ele>
        <time>2009-09-05T11:11:04Z</time>
      </trkpt>
      <trkpt lat="46.5053358" lon="9.7730025">
        <ele>2671.6411133</ele>
        <time>2009-09-05T11:11:14Z</time>
      </trkpt>
      <trkpt lat="46.5053461" lon="9.7730233">
        <ele>2671.1601563</ele>
        <time>2009-09-05T11:11:43Z</time>
      </trkpt>
      <trkpt lat="46.5053522" lon="9.7730163">
        <ele>2669.7182617</ele>
        <time>2009-09-05T11:11:48Z</time>
      </trkpt>
      <trkpt lat="46.5054320" lon="9.7729547">
        <ele>2668.2763672</ele>
        <time>2009-09-05T11:11:52Z</time>
      </trkpt>
      <trkpt lat="46.5056724" lon="9.7728047">
        <ele>2664.4311523</ele>
        <time>2009-09-05T11:12:00Z</time>
      </trkpt>
      <trkpt lat="46.5056999" lon="9.7727963">
        <ele>2664.4311523</ele>
        <time>2009-09-05T11:12:01Z</time>
      </trkpt>
      <trkpt lat="46.5058934" lon="9.7727161">
        <ele>2659.6245117</ele>
        <time>2009-09-05T11:12:06Z</time>
      </trkpt>
      <trkpt lat="46.5059226" lon="9.7727070">
        <ele>2659.1440430</ele>
        <time>2009-09-05T11:12:07Z</time>
      </trkpt>
      <trkpt lat="46.5060956" lon="9.7727096">
        <ele>2657.7021484</ele>
        <time>2009-09-05T11:12:14Z</time>
      </trkpt>
      <trkpt lat="46.5062821" lon="9.7726740">
        <ele>2654.8183594</ele>
        <time>2009-09-05T11:12:20Z</time>
      </trkpt>
      <trkpt lat="46.5063868" lon="9.7726179">
        <ele>2651.4536133</ele>
        <time>2009-09-05T11:12:23Z</time>
      </trkpt>
      <trkpt lat="46.5064258" lon="9.7725905">
        <ele>2651.4536133</ele>
        <time>2009-09-05T11:12:24Z</time>
      </trkpt>
      <trkpt lat="46.5065723" lon="9.7724526">
        <ele>2649.0502930</ele>
        <time>2009-09-05T11:12:29Z</time>
      </trkpt>
      <trkpt lat="46.5067541" lon="9.7723644">
        <ele>2647.6083984</ele>
        <time>2009-09-05T11:12:36Z</time>
      </trkpt>
      <trkpt lat="46.5068357" lon="9.7722431">
        <ele>2645.6855469</ele>
        <time>2009-09-05T11:12:41Z</time>
      </trkpt>
      <trkpt lat="46.5070147" lon="9.7720670">
        <ele>2642.3208008</ele>
        <time>2009-09-05T11:12:48Z</time>
      </trkpt>
      <trkpt lat="46.5071977" lon="9.7719401">
        <ele>2638.9560547</ele>
        <time>2009-09-05T11:12:53Z</time>
      </trkpt>
      <trkpt lat="46.5072335" lon="9.7719126">
        <ele>2638.4755859</ele>
        <time>2009-09-05T11:12:54Z</time>
      </trkpt>
      <trkpt lat="46.5073102" lon="9.7718546">
        <ele>2637.0336914</ele>
        <time>2009-09-05T11:12:56Z</time>
      </trkpt>
      <trkpt lat="46.5075074" lon="9.7716876">
        <ele>2634.6303711</ele>
        <time>2009-09-05T11:13:02Z</time>
      </trkpt>
      <trkpt lat="46.5077967" lon="9.7717361">
        <ele>2632.7075195</ele>
        <time>2009-09-05T11:13:12Z</time>
      </trkpt>
      <trkpt lat="46.5078580" lon="9.7716765">
        <ele>2630.3041992</ele>
        <time>2009-09-05T11:13:15Z</time>
      </trkpt>
      <trkpt lat="46.5079238" lon="9.7715766">
        <ele>2630.7851563</ele>
        <time>2009-09-05T11:13:21Z</time>
      </trkpt>
      <trkpt lat="46.5079169" lon="9.7714886">
        <ele>2631.2656250</ele>
        <time>2009-09-05T11:13:26Z</time>
      </trkpt>
      <trkpt lat="46.5079775" lon="9.7713639">
        <ele>2629.3432617</ele>
        <time>2009-09-05T11:13:32Z</time>
      </trkpt>
      <trkpt lat="46.5081445" lon="9.7710810">
        <ele>2626.9399414</ele>
        <time>2009-09-05T11:13:40Z</time>
      </trkpt>
      <trkpt lat="46.5082226" lon="9.7709385">
        <ele>2625.4980469</ele>
        <time>2009-09-05T11:13:43Z</time>
      </trkpt>
      <trkpt lat="46.5083522" lon="9.7707837">
        <ele>2624.0561523</ele>
        <time>2009-09-05T11:13:47Z</time>
      </trkpt>
      <trkpt lat="46.5085520" lon="9.7705741">
        <ele>2621.6528320</ele>
        <time>2009-09-05T11:13:55Z</time>
      </trkpt>
      <trkpt lat="46.5086559" lon="9.7704063">
        <ele>2620.2104492</ele>
        <time>2009-09-05T11:13:59Z</time>
      </trkpt>
      <trkpt lat="46.5086916" lon="9.7703259">
        <ele>2617.8076172</ele>
        <time>2009-09-05T11:14:01Z</time>
      </trkpt>
      <trkpt lat="46.5087820" lon="9.7702407">
        <ele>2617.3266602</ele>
        <time>2009-09-05T11:14:04Z</time>
      </trkpt>
      <trkpt lat="46.5089134" lon="9.7700255">
        <ele>2613.9624023</ele>
        <time>2009-09-05T11:14:10Z</time>
      </trkpt>
      <trkpt lat="46.5089321" lon="9.7700185">
        <ele>2613.9624023</ele>
        <time>2009-09-05T11:14:11Z</time>
      </trkpt>
      <trkpt lat="46.5089453" lon="9.7700047">
        <ele>2613.9624023</ele>
        <time>2009-09-05T11:14:12Z</time>
      </trkpt>
      <trkpt lat="46.5090655" lon="9.7698143">
        <ele>2612.5200195</ele>
        <time>2009-09-05T11:14:17Z</time>
      </trkpt>
      <trkpt lat="46.5091230" lon="9.7696946">
        <ele>2613.9624023</ele>
        <time>2009-09-05T11:14:20Z</time>
      </trkpt>
      <trkpt lat="46.5091304" lon="9.7695792">
        <ele>2614.4428711</ele>
        <time>2009-09-05T11:14:24Z</time>
      </trkpt>
      <trkpt lat="46.5091358" lon="9.7695261">
        <ele>2612.5200195</ele>
        <time>2009-09-05T11:14:44Z</time>
      </trkpt>
      <trkpt lat="46.5091370" lon="9.7695330">
        <ele>2611.5585938</ele>
        <time>2009-09-05T11:14:58Z</time>
      </trkpt>
      <trkpt lat="46.5091648" lon="9.7695609">
        <ele>2611.5585938</ele>
        <time>2009-09-05T11:22:22Z</time>
      </trkpt>
      <trkpt lat="46.5093177" lon="9.7696404">
        <ele>2609.6357422</ele>
        <time>2009-09-05T11:22:30Z</time>
      </trkpt>
      <trkpt lat="46.5095084" lon="9.7696930">
        <ele>2609.1552734</ele>
        <time>2009-09-05T11:22:40Z</time>
      </trkpt>
      <trkpt lat="46.5096533" lon="9.7697417">
        <ele>2605.3100586</ele>
        <time>2009-09-05T11:22:45Z</time>
      </trkpt>
      <trkpt lat="46.5097533" lon="9.7697992">
        <ele>2604.3486328</ele>
        <time>2009-09-05T11:22:47Z</time>
      </trkpt>
      <trkpt lat="46.5099485" lon="9.7698444">
        <ele>2602.4262695</ele>
        <time>2009-09-05T11:22:52Z</time>
      </trkpt>
      <trkpt lat="46.5101061" lon="9.7700073">
        <ele>2600.5034180</ele>
        <time>2009-09-05T11:22:58Z</time>
      </trkpt>
      <trkpt lat="46.5102954" lon="9.7701385">
        <ele>2597.1386719</ele>
        <time>2009-09-05T11:23:07Z</time>
      </trkpt>
      <trkpt lat="46.5103196" lon="9.7701470">
        <ele>2597.1386719</ele>
        <time>2009-09-05T11:23:08Z</time>
      </trkpt>
      <trkpt lat="46.5104127" lon="9.7701477">
        <ele>2596.1777344</ele>
        <time>2009-09-05T11:23:12Z</time>
      </trkpt>
      <trkpt lat="46.5104739" lon="9.7700846">
        <ele>2595.2163086</ele>
        <time>2009-09-05T11:23:16Z</time>
      </trkpt>
      <trkpt lat="46.5105096" lon="9.7700876">
        <ele>2594.2548828</ele>
        <time>2009-09-05T11:23:29Z</time>
      </trkpt>
      <trkpt lat="46.5105105" lon="9.7700877">
        <ele>2593.7744141</ele>
        <time>2009-09-05T11:23:31Z</time>
      </trkpt>
      <trkpt lat="46.5105686" lon="9.7702484">
        <ele>2592.8129883</ele>
        <time>2009-09-05T11:23:37Z</time>
      </trkpt>
      <trkpt lat="46.5106471" lon="9.7703161">
        <ele>2591.3710938</ele>
        <time>2009-09-05T11:23:42Z</time>
      </trkpt>
      <trkpt lat="46.5106984" lon="9.7703627">
        <ele>2590.4096680</ele>
        <time>2009-09-05T11:23:46Z</time>
      </trkpt>
      <trkpt lat="46.5107940" lon="9.7703213">
        <ele>2586.5642090</ele>
        <time>2009-09-05T11:23:51Z</time>
      </trkpt>
      <trkpt lat="46.5109353" lon="9.7702364">
        <ele>2583.1997070</ele>
        <time>2009-09-05T11:23:56Z</time>
      </trkpt>
      <trkpt lat="46.5110802" lon="9.7702085">
        <ele>2580.3159180</ele>
        <time>2009-09-05T11:24:00Z</time>
      </trkpt>
      <trkpt lat="46.5112532" lon="9.7702752">
        <ele>2577.9125977</ele>
        <time>2009-09-05T11:24:04Z</time>
      </trkpt>
      <trkpt lat="46.5113699" lon="9.7702845">
        <ele>2576.9514160</ele>
        <time>2009-09-05T11:24:07Z</time>
      </trkpt>
      <trkpt lat="46.5114865" lon="9.7702618">
        <ele>2575.5092773</ele>
        <time>2009-09-05T11:24:10Z</time>
      </trkpt>
      <trkpt lat="46.5115362" lon="9.7702778">
        <ele>2574.0673828</ele>
        <time>2009-09-05T11:24:11Z</time>
      </trkpt>
      <trkpt lat="46.5117337" lon="9.7702983">
        <ele>2571.6638184</ele>
        <time>2009-09-05T11:24:15Z</time>
      </trkpt>
      <trkpt lat="46.5118961" lon="9.7702618">
        <ele>2570.2219238</ele>
        <time>2009-09-05T11:24:18Z</time>
      </trkpt>
      <trkpt lat="46.5121419" lon="9.7703016">
        <ele>2570.2219238</ele>
        <time>2009-09-05T11:24:28Z</time>
      </trkpt>
      <trkpt lat="46.5123503" lon="9.7702422">
        <ele>2570.2219238</ele>
        <time>2009-09-05T11:24:39Z</time>
      </trkpt>
      <trkpt lat="46.5124907" lon="9.7702328">
        <ele>2568.2993164</ele>
        <time>2009-09-05T11:24:46Z</time>
      </trkpt>
      <trkpt lat="46.5126070" lon="9.7702336">
        <ele>2567.3378906</ele>
        <time>2009-09-05T11:24:58Z</time>
      </trkpt>
      <trkpt lat="46.5127176" lon="9.7702680">
        <ele>2565.4155273</ele>
        <time>2009-09-05T11:25:11Z</time>
      </trkpt>
      <trkpt lat="46.5129870" lon="9.7703563">
        <ele>2562.0507813</ele>
        <time>2009-09-05T11:25:21Z</time>
      </trkpt>
      <trkpt lat="46.5130277" lon="9.7703754">
        <ele>2562.0507813</ele>
        <time>2009-09-05T11:25:22Z</time>
      </trkpt>
      <trkpt lat="46.5133073" lon="9.7704424">
        <ele>2562.5314941</ele>
        <time>2009-09-05T11:25:33Z</time>
      </trkpt>
      <trkpt lat="46.5134827" lon="9.7705666">
        <ele>2561.5703125</ele>
        <time>2009-09-05T11:25:41Z</time>
      </trkpt>
      <trkpt lat="46.5136203" lon="9.7706352">
        <ele>2561.5703125</ele>
        <time>2009-09-05T11:25:47Z</time>
      </trkpt>
      <trkpt lat="46.5138865" lon="9.7706901">
        <ele>2560.6088867</ele>
        <time>2009-09-05T11:25:57Z</time>
      </trkpt>
      <trkpt lat="46.5140871" lon="9.7707058">
        <ele>2558.6862793</ele>
        <time>2009-09-05T11:26:05Z</time>
      </trkpt>
      <trkpt lat="46.5143408" lon="9.7708332">
        <ele>2556.7636719</ele>
        <time>2009-09-05T11:26:14Z</time>
      </trkpt>
      <trkpt lat="46.5145377" lon="9.7709177">
        <ele>2554.3601074</ele>
        <time>2009-09-05T11:26:20Z</time>
      </trkpt>
      <trkpt lat="46.5146837" lon="9.7709844">
        <ele>2550.9956055</ele>
        <time>2009-09-05T11:26:23Z</time>
      </trkpt>
      <trkpt lat="46.5147153" lon="9.7710121">
        <ele>2550.9956055</ele>
        <time>2009-09-05T11:26:24Z</time>
      </trkpt>
      <trkpt lat="46.5147913" lon="9.7710637">
        <ele>2550.5148926</ele>
        <time>2009-09-05T11:26:26Z</time>
      </trkpt>
      <trkpt lat="46.5151934" lon="9.7712917">
        <ele>2548.5922852</ele>
        <time>2009-09-05T11:26:35Z</time>
      </trkpt>
      <trkpt lat="46.5152476" lon="9.7713123">
        <ele>2549.5537109</ele>
        <time>2009-09-05T11:26:37Z</time>
      </trkpt>
      <trkpt lat="46.5155135" lon="9.7713832">
        <ele>2547.6311035</ele>
        <time>2009-09-05T11:26:47Z</time>
      </trkpt>
      <trkpt lat="46.5157902" lon="9.7714438">
        <ele>2545.2277832</ele>
        <time>2009-09-05T11:26:57Z</time>
      </trkpt>
      <trkpt lat="46.5160542" lon="9.7714783">
        <ele>2544.2663574</ele>
        <time>2009-09-05T11:27:06Z</time>
      </trkpt>
      <trkpt lat="46.5161021" lon="9.7714563">
        <ele>2544.7470703</ele>
        <time>2009-09-05T11:27:08Z</time>
      </trkpt>
      <trkpt lat="46.5162499" lon="9.7714308">
        <ele>2544.2663574</ele>
        <time>2009-09-05T11:27:17Z</time>
      </trkpt>
      <trkpt lat="46.5164175" lon="9.7713536">
        <ele>2542.8244629</ele>
        <time>2009-09-05T11:27:26Z</time>
      </trkpt>
      <trkpt lat="46.5164919" lon="9.7713361">
        <ele>2542.3439941</ele>
        <time>2009-09-05T11:27:30Z</time>
      </trkpt>
      <trkpt lat="46.5166186" lon="9.7713279">
        <ele>2541.8632813</ele>
        <time>2009-09-05T11:27:36Z</time>
      </trkpt>
      <trkpt lat="46.5166498" lon="9.7713334">
        <ele>2541.3825684</ele>
        <time>2009-09-05T11:27:38Z</time>
      </trkpt>
      <trkpt lat="46.5169063" lon="9.7712717">
        <ele>2539.4597168</ele>
        <time>2009-09-05T11:27:48Z</time>
      </trkpt>
      <trkpt lat="46.5169369" lon="9.7712837">
        <ele>2539.4597168</ele>
        <time>2009-09-05T11:27:49Z</time>
      </trkpt>
      <trkpt lat="46.5172331" lon="9.7712252">
        <ele>2539.9404297</ele>
        <time>2009-09-05T11:27:59Z</time>
      </trkpt>
      <trkpt lat="46.5172899" lon="9.7711924">
        <ele>2539.9404297</ele>
        <time>2009-09-05T11:28:03Z</time>
      </trkpt>
      <trkpt lat="46.5175322" lon="9.7712178">
        <ele>2540.4211426</ele>
        <time>2009-09-05T11:28:15Z</time>
      </trkpt>
      <trkpt lat="46.5176840" lon="9.7712640">
        <ele>2538.0178223</ele>
        <time>2009-09-05T11:28:39Z</time>
      </trkpt>
      <trkpt lat="46.5178151" lon="9.7712889">
        <ele>2537.0563965</ele>
        <time>2009-09-05T11:28:45Z</time>
      </trkpt>
      <trkpt lat="46.5178459" lon="9.7713378">
        <ele>2536.0952148</ele>
        <time>2009-09-05T11:28:47Z</time>
      </trkpt>
      <trkpt lat="46.5181408" lon="9.7714639">
        <ele>2533.6918945</ele>
        <time>2009-09-05T11:28:57Z</time>
      </trkpt>
      <trkpt lat="46.5183559" lon="9.7713998">
        <ele>2531.2885742</ele>
        <time>2009-09-05T11:29:03Z</time>
      </trkpt>
      <trkpt lat="46.5186813" lon="9.7714242">
        <ele>2531.2885742</ele>
        <time>2009-09-05T11:29:13Z</time>
      </trkpt>
      <trkpt lat="46.5187718" lon="9.7713783">
        <ele>2532.7304688</ele>
        <time>2009-09-05T11:29:18Z</time>
      </trkpt>
      <trkpt lat="46.5189832" lon="9.7714862">
        <ele>2531.7692871</ele>
        <time>2009-09-05T11:29:29Z</time>
      </trkpt>
      <trkpt lat="46.5191731" lon="9.7715013">
        <ele>2532.2500000</ele>
        <time>2009-09-05T11:29:38Z</time>
      </trkpt>
      <trkpt lat="46.5192132" lon="9.7714980">
        <ele>2532.2500000</ele>
        <time>2009-09-05T11:29:42Z</time>
      </trkpt>
      <trkpt lat="46.5193194" lon="9.7714848">
        <ele>2532.7304688</ele>
        <time>2009-09-05T11:29:51Z</time>
      </trkpt>
      <trkpt lat="46.5193812" lon="9.7714804">
        <ele>2531.7692871</ele>
        <time>2009-09-05T11:30:03Z</time>
      </trkpt>
      <trkpt lat="46.5194194" lon="9.7715078">
        <ele>2531.7692871</ele>
        <time>2009-09-05T11:30:05Z</time>
      </trkpt>
      <trkpt lat="46.5196769" lon="9.7715349">
        <ele>2531.2885742</ele>
        <time>2009-09-05T11:30:18Z</time>
      </trkpt>
      <trkpt lat="46.5199374" lon="9.7716478">
        <ele>2530.3273926</ele>
        <time>2009-09-05T11:30:28Z</time>
      </trkpt>
      <trkpt lat="46.5200745" lon="9.7716339">
        <ele>2528.4047852</ele>
        <time>2009-09-05T11:30:33Z</time>
      </trkpt>
      <trkpt lat="46.5201645" lon="9.7716247">
        <ele>2527.4433594</ele>
        <time>2009-09-05T11:30:35Z</time>
      </trkpt>
      <trkpt lat="46.5202101" lon="9.7716176">
        <ele>2526.9628906</ele>
        <time>2009-09-05T11:30:36Z</time>
      </trkpt>
      <trkpt lat="46.5203486" lon="9.7716003">
        <ele>2527.9240723</ele>
        <time>2009-09-05T11:30:40Z</time>
      </trkpt>
      <trkpt lat="46.5204721" lon="9.7716340">
        <ele>2528.4047852</ele>
        <time>2009-09-05T11:30:47Z</time>
      </trkpt>
      <trkpt lat="46.5205744" lon="9.7716422">
        <ele>2527.4433594</ele>
        <time>2009-09-05T11:30:55Z</time>
      </trkpt>
      <trkpt lat="46.5206058" lon="9.7716441">
        <ele>2527.9240723</ele>
        <time>2009-09-05T11:30:57Z</time>
      </trkpt>
      <trkpt lat="46.5207903" lon="9.7716544">
        <ele>2524.5595703</ele>
        <time>2009-09-05T11:31:05Z</time>
      </trkpt>
      <trkpt lat="46.5211975" lon="9.7718199">
        <ele>2522.1560059</ele>
        <time>2009-09-05T11:31:16Z</time>
      </trkpt>
      <trkpt lat="46.5214621" lon="9.7717698">
        <ele>2519.7526855</ele>
        <time>2009-09-05T11:31:25Z</time>
      </trkpt>
      <trkpt lat="46.5215204" lon="9.7717497">
        <ele>2519.2722168</ele>
        <time>2009-09-05T11:31:27Z</time>
      </trkpt>
      <trkpt lat="46.5218505" lon="9.7717760">
        <ele>2518.7915039</ele>
        <time>2009-09-05T11:31:40Z</time>
      </trkpt>
      <trkpt lat="46.5218943" lon="9.7717546">
        <ele>2518.3107910</ele>
        <time>2009-09-05T11:31:44Z</time>
      </trkpt>
      <trkpt lat="46.5219942" lon="9.7716587">
        <ele>2516.3881836</ele>
        <time>2009-09-05T11:31:48Z</time>
      </trkpt>
      <trkpt lat="46.5220201" lon="9.7716309">
        <ele>2516.3881836</ele>
        <time>2009-09-05T11:31:49Z</time>
      </trkpt>
      <trkpt lat="46.5222403" lon="9.7717829">
        <ele>2514.4655762</ele>
        <time>2009-09-05T11:31:57Z</time>
      </trkpt>
      <trkpt lat="46.5223073" lon="9.7718127">
        <ele>2514.4655762</ele>
        <time>2009-09-05T11:31:59Z</time>
      </trkpt>
      <trkpt lat="46.5224830" lon="9.7719168">
        <ele>2512.0622559</ele>
        <time>2009-09-05T11:32:06Z</time>
      </trkpt>
      <trkpt lat="46.5226429" lon="9.7721150">
        <ele>2509.6589355</ele>
        <time>2009-09-05T11:32:14Z</time>
      </trkpt>
      <trkpt lat="46.5226068" lon="9.7721700">
        <ele>2509.6589355</ele>
        <time>2009-09-05T11:32:17Z</time>
      </trkpt>
      <trkpt lat="46.5226305" lon="9.7722100">
        <ele>2507.2556152</ele>
        <time>2009-09-05T11:32:21Z</time>
      </trkpt>
      <trkpt lat="46.5227522" lon="9.7722207">
        <ele>2502.9296875</ele>
        <time>2009-09-05T11:32:24Z</time>
      </trkpt>
      <trkpt lat="46.5228061" lon="9.7722449">
        <ele>2501.9682617</ele>
        <time>2009-09-05T11:32:25Z</time>
      </trkpt>
      <trkpt lat="46.5229394" lon="9.7723132">
        <ele>2501.4877930</ele>
        <time>2009-09-05T11:32:29Z</time>
      </trkpt>
      <trkpt lat="46.5231530" lon="9.7724397">
        <ele>2498.6037598</ele>
        <time>2009-09-05T11:32:35Z</time>
      </trkpt>
      <trkpt lat="46.5232133" lon="9.7724298">
        <ele>2497.6425781</ele>
        <time>2009-09-05T11:32:39Z</time>
      </trkpt>
      <trkpt lat="46.5233601" lon="9.7726954">
        <ele>2494.2778320</ele>
        <time>2009-09-05T11:32:46Z</time>
      </trkpt>
      <trkpt lat="46.5234422" lon="9.7727859">
        <ele>2490.4323730</ele>
        <time>2009-09-05T11:32:50Z</time>
      </trkpt>
      <trkpt lat="46.5235002" lon="9.7727747">
        <ele>2488.5100098</ele>
        <time>2009-09-05T11:32:53Z</time>
      </trkpt>
      <trkpt lat="46.5235711" lon="9.7729424">
        <ele>2484.1840820</ele>
        <time>2009-09-05T11:33:00Z</time>
      </trkpt>
      <trkpt lat="46.5236146" lon="9.7730007">
        <ele>2484.1840820</ele>
        <time>2009-09-05T11:33:01Z</time>
      </trkpt>
      <trkpt lat="46.5236627" lon="9.7731479">
        <ele>2484.1840820</ele>
        <time>2009-09-05T11:33:08Z</time>
      </trkpt>
      <trkpt lat="46.5236577" lon="9.7731957">
        <ele>2484.1840820</ele>
        <time>2009-09-05T11:33:11Z</time>
      </trkpt>
      <trkpt lat="46.5236066" lon="9.7733868">
        <ele>2483.7033691</ele>
        <time>2009-09-05T11:33:19Z</time>
      </trkpt>
      <trkpt lat="46.5236639" lon="9.7736144">
        <ele>2481.7807617</ele>
        <time>2009-09-05T11:33:29Z</time>
      </trkpt>
      <trkpt lat="46.5240001" lon="9.7738007">
        <ele>2483.2226563</ele>
        <time>2009-09-05T11:33:40Z</time>
      </trkpt>
      <trkpt lat="46.5241633" lon="9.7738828">
        <ele>2483.2226563</ele>
        <time>2009-09-05T11:33:49Z</time>
      </trkpt>
      <trkpt lat="46.5243573" lon="9.7740763">
        <ele>2481.7807617</ele>
        <time>2009-09-05T11:33:58Z</time>
      </trkpt>
      <trkpt lat="46.5245233" lon="9.7742273">
        <ele>2480.8195801</ele>
        <time>2009-09-05T11:34:07Z</time>
      </trkpt>
      <trkpt lat="46.5245876" lon="9.7743022">
        <ele>2480.8195801</ele>
        <time>2009-09-05T11:34:14Z</time>
      </trkpt>
      <trkpt lat="46.5246824" lon="9.7744595">
        <ele>2480.3388672</ele>
        <time>2009-09-05T11:34:24Z</time>
      </trkpt>
      <trkpt lat="46.5246873" lon="9.7744750">
        <ele>2480.3388672</ele>
        <time>2009-09-05T11:34:25Z</time>
      </trkpt>
      <trkpt lat="46.5246570" lon="9.7745808">
        <ele>2481.3000488</ele>
        <time>2009-09-05T11:34:36Z</time>
      </trkpt>
      <trkpt lat="46.5247150" lon="9.7746186">
        <ele>2481.7807617</ele>
        <time>2009-09-05T11:34:50Z</time>
      </trkpt>
      <trkpt lat="46.5247719" lon="9.7746928">
        <ele>2482.7419434</ele>
        <time>2009-09-05T11:35:03Z</time>
      </trkpt>
      <trkpt lat="46.5248387" lon="9.7747821">
        <ele>2483.2226563</ele>
        <time>2009-09-05T11:35:23Z</time>
      </trkpt>
      <trkpt lat="46.5249223" lon="9.7748149">
        <ele>2481.3000488</ele>
        <time>2009-09-05T11:35:36Z</time>
      </trkpt>
      <trkpt lat="46.5250477" lon="9.7748737">
        <ele>2479.3774414</ele>
        <time>2009-09-05T11:35:53Z</time>
      </trkpt>
      <trkpt lat="46.5251071" lon="9.7748596">
        <ele>2476.9743652</ele>
        <time>2009-09-05T11:36:08Z</time>
      </trkpt>
      <trkpt lat="46.5251289" lon="9.7747943">
        <ele>2475.5319824</ele>
        <time>2009-09-05T11:36:24Z</time>
      </trkpt>
      <trkpt lat="46.5251622" lon="9.7747754">
        <ele>2473.1289063</ele>
        <time>2009-09-05T11:36:35Z</time>
      </trkpt>
      <trkpt lat="46.5252709" lon="9.7748086">
        <ele>2470.7255859</ele>
        <time>2009-09-05T11:36:52Z</time>
      </trkpt>
      <trkpt lat="46.5253181" lon="9.7747088">
        <ele>2468.3222656</ele>
        <time>2009-09-05T11:37:11Z</time>
      </trkpt>
      <trkpt lat="46.5254356" lon="9.7747514">
        <ele>2465.4384766</ele>
        <time>2009-09-05T11:37:31Z</time>
      </trkpt>
      <trkpt lat="46.5255177" lon="9.7747474">
        <ele>2463.0351563</ele>
        <time>2009-09-05T11:37:46Z</time>
      </trkpt>
      <trkpt lat="46.5255428" lon="9.7746679">
        <ele>2460.6318359</ele>
        <time>2009-09-05T11:37:59Z</time>
      </trkpt>
      <trkpt lat="46.5256416" lon="9.7747094">
        <ele>2458.2282715</ele>
        <time>2009-09-05T11:38:13Z</time>
      </trkpt>
      <trkpt lat="46.5256613" lon="9.7747149">
        <ele>2457.7478027</ele>
        <time>2009-09-05T11:38:15Z</time>
      </trkpt>
      <trkpt lat="46.5256657" lon="9.7747153">
        <ele>2457.2670898</ele>
        <time>2009-09-05T11:38:17Z</time>
      </trkpt>
      <trkpt lat="46.5256774" lon="9.7747122">
        <ele>2457.7478027</ele>
        <time>2009-09-05T11:38:21Z</time>
      </trkpt>
      <trkpt lat="46.5256942" lon="9.7747170">
        <ele>2456.7863770</ele>
        <time>2009-09-05T11:38:25Z</time>
      </trkpt>
      <trkpt lat="46.5257156" lon="9.7747277">
        <ele>2457.2670898</ele>
        <time>2009-09-05T11:38:27Z</time>
      </trkpt>
      <trkpt lat="46.5257594" lon="9.7747575">
        <ele>2457.2670898</ele>
        <time>2009-09-05T11:38:31Z</time>
      </trkpt>
      <trkpt lat="46.5258531" lon="9.7747748">
        <ele>2456.3056641</ele>
        <time>2009-09-05T11:38:44Z</time>
      </trkpt>
      <trkpt lat="46.5258809" lon="9.7747915">
        <ele>2455.3444824</ele>
        <time>2009-09-05T11:38:47Z</time>
      </trkpt>
      <trkpt lat="46.5259612" lon="9.7748124">
        <ele>2453.9025879</ele>
        <time>2009-09-05T11:38:58Z</time>
      </trkpt>
      <trkpt lat="46.5260484" lon="9.7748134">
        <ele>2451.9797363</ele>
        <time>2009-09-05T11:39:10Z</time>
      </trkpt>
      <trkpt lat="46.5260869" lon="9.7748194">
        <ele>2451.4992676</ele>
        <time>2009-09-05T11:39:17Z</time>
      </trkpt>
      <trkpt lat="46.5261454" lon="9.7748430">
        <ele>2450.5378418</ele>
        <time>2009-09-05T11:39:25Z</time>
      </trkpt>
      <trkpt lat="46.5261960" lon="9.7748358">
        <ele>2449.0959473</ele>
        <time>2009-09-05T11:39:29Z</time>
      </trkpt>
      <trkpt lat="46.5262120" lon="9.7748163">
        <ele>2450.0573730</ele>
        <time>2009-09-05T11:39:49Z</time>
      </trkpt>
      <trkpt lat="46.5261726" lon="9.7747949">
        <ele>2450.0573730</ele>
        <time>2009-09-05T11:40:55Z</time>
      </trkpt>
      <trkpt lat="46.5262504" lon="9.7748177">
        <ele>2450.5378418</ele>
        <time>2009-09-05T11:41:06Z</time>
      </trkpt>
      <trkpt lat="46.5264167" lon="9.7746899">
        <ele>2448.1345215</ele>
        <time>2009-09-05T11:41:17Z</time>
      </trkpt>
      <trkpt lat="46.5266327" lon="9.7747627">
        <ele>2444.2893066</ele>
        <time>2009-09-05T11:41:28Z</time>
      </trkpt>
      <trkpt lat="46.5266880" lon="9.7747504">
        <ele>2443.8085938</ele>
        <time>2009-09-05T11:41:30Z</time>
      </trkpt>
      <trkpt lat="46.5267693" lon="9.7747536">
        <ele>2442.8471680</ele>
        <time>2009-09-05T11:41:32Z</time>
      </trkpt>
      <trkpt lat="46.5268449" lon="9.7747570">
        <ele>2441.4052734</ele>
        <time>2009-09-05T11:41:34Z</time>
      </trkpt>
      <trkpt lat="46.5271150" lon="9.7748609">
        <ele>2439.9633789</ele>
        <time>2009-09-05T11:41:42Z</time>
      </trkpt>
      <trkpt lat="46.5271666" lon="9.7748386">
        <ele>2440.9245605</ele>
        <time>2009-09-05T11:41:44Z</time>
      </trkpt>
      <trkpt lat="46.5271967" lon="9.7748005">
        <ele>2440.9245605</ele>
        <time>2009-09-05T11:41:46Z</time>
      </trkpt>
      <trkpt lat="46.5272262" lon="9.7746759">
        <ele>2441.4052734</ele>
        <time>2009-09-05T11:41:51Z</time>
      </trkpt>
      <trkpt lat="46.5272582" lon="9.7746586">
        <ele>2441.4052734</ele>
        <time>2009-09-05T11:41:53Z</time>
      </trkpt>
      <trkpt lat="46.5272930" lon="9.7746312">
        <ele>2441.8859863</ele>
        <time>2009-09-05T11:42:12Z</time>
      </trkpt>
      <trkpt lat="46.5274491" lon="9.7746789">
        <ele>2440.4438477</ele>
        <time>2009-09-05T11:44:32Z</time>
      </trkpt>
      <trkpt lat="46.5276371" lon="9.7748192">
        <ele>2439.4826660</ele>
        <time>2009-09-05T11:44:39Z</time>
      </trkpt>
      <trkpt lat="46.5277718" lon="9.7748707">
        <ele>2438.0407715</ele>
        <time>2009-09-05T11:44:43Z</time>
      </trkpt>
      <trkpt lat="46.5280015" lon="9.7748798">
        <ele>2438.5214844</ele>
        <time>2009-09-05T11:44:50Z</time>
      </trkpt>
      <trkpt lat="46.5282755" lon="9.7751177">
        <ele>2436.1181641</ele>
        <time>2009-09-05T11:44:59Z</time>
      </trkpt>
      <trkpt lat="46.5283930" lon="9.7752284">
        <ele>2435.6374512</ele>
        <time>2009-09-05T11:45:02Z</time>
      </trkpt>
      <trkpt lat="46.5285807" lon="9.7753561">
        <ele>2436.5986328</ele>
        <time>2009-09-05T11:45:07Z</time>
      </trkpt>
      <trkpt lat="46.5287894" lon="9.7754349">
        <ele>2435.1567383</ele>
        <time>2009-09-05T11:45:13Z</time>
      </trkpt>
      <trkpt lat="46.5289342" lon="9.7755226">
        <ele>2435.6374512</ele>
        <time>2009-09-05T11:45:17Z</time>
      </trkpt>
      <trkpt lat="46.5290933" lon="9.7755576">
        <ele>2434.6762695</ele>
        <time>2009-09-05T11:45:21Z</time>
      </trkpt>
      <trkpt lat="46.5291765" lon="9.7755778">
        <ele>2433.7148438</ele>
        <time>2009-09-05T11:45:23Z</time>
      </trkpt>
      <trkpt lat="46.5295144" lon="9.7756102">
        <ele>2433.2341309</ele>
        <time>2009-09-05T11:45:33Z</time>
      </trkpt>
      <trkpt lat="46.5295881" lon="9.7756093">
        <ele>2433.2341309</ele>
        <time>2009-09-05T11:45:43Z</time>
      </trkpt>
      <trkpt lat="46.5296710" lon="9.7756669">
        <ele>2433.2341309</ele>
        <time>2009-09-05T11:45:53Z</time>
      </trkpt>
      <trkpt lat="46.5296852" lon="9.7756972">
        <ele>2433.2341309</ele>
        <time>2009-09-05T11:45:55Z</time>
      </trkpt>
      <trkpt lat="46.5298243" lon="9.7758951">
        <ele>2431.7922363</ele>
        <time>2009-09-05T11:46:06Z</time>
      </trkpt>
      <trkpt lat="46.5300390" lon="9.7761272">
        <ele>2430.3503418</ele>
        <time>2009-09-05T11:46:14Z</time>
      </trkpt>
      <trkpt lat="46.5301883" lon="9.7761748">
        <ele>2428.9082031</ele>
        <time>2009-09-05T11:46:24Z</time>
      </trkpt>
      <trkpt lat="46.5303283" lon="9.7762230">
        <ele>2427.4660645</ele>
        <time>2009-09-05T11:46:29Z</time>
      </trkpt>
      <trkpt lat="46.5305631" lon="9.7762542">
        <ele>2425.5434570</ele>
        <time>2009-09-05T11:46:38Z</time>
      </trkpt>
      <trkpt lat="46.5308196" lon="9.7762783">
        <ele>2424.1015625</ele>
        <time>2009-09-05T11:46:47Z</time>
      </trkpt>
      <trkpt lat="46.5310947" lon="9.7762767">
        <ele>2421.2175293</ele>
        <time>2009-09-05T11:46:57Z</time>
      </trkpt>
      <trkpt lat="46.5313710" lon="9.7763676">
        <ele>2417.8530273</ele>
        <time>2009-09-05T11:47:05Z</time>
      </trkpt>
      <trkpt lat="46.5313949" lon="9.7763907">
        <ele>2417.8530273</ele>
        <time>2009-09-05T11:47:06Z</time>
      </trkpt>
      <trkpt lat="46.5315263" lon="9.7765072">
        <ele>2414.9692383</ele>
        <time>2009-09-05T11:47:11Z</time>
      </trkpt>
      <trkpt lat="46.5316258" lon="9.7764941">
        <ele>2414.0078125</ele>
        <time>2009-09-05T11:47:14Z</time>
      </trkpt>
      <trkpt lat="46.5318598" lon="9.7764413">
        <ele>2412.0852051</ele>
        <time>2009-09-05T11:47:24Z</time>
      </trkpt>
      <trkpt lat="46.5320378" lon="9.7764283">
        <ele>2408.7204590</ele>
        <time>2009-09-05T11:47:31Z</time>
      </trkpt>
      <trkpt lat="46.5321324" lon="9.7763708">
        <ele>2408.2397461</ele>
        <time>2009-09-05T11:47:34Z</time>
      </trkpt>
      <trkpt lat="46.5322115" lon="9.7763411">
        <ele>2407.2785645</ele>
        <time>2009-09-05T11:47:36Z</time>
      </trkpt>
      <trkpt lat="46.5322454" lon="9.7763243">
        <ele>2406.7978516</ele>
        <time>2009-09-05T11:47:37Z</time>
      </trkpt>
      <trkpt lat="46.5323803" lon="9.7763155">
        <ele>2404.8752441</ele>
        <time>2009-09-05T11:47:40Z</time>
      </trkpt>
      <trkpt lat="46.5325849" lon="9.7763204">
        <ele>2404.8752441</ele>
        <time>2009-09-05T11:47:50Z</time>
      </trkpt>
      <trkpt lat="46.5326815" lon="9.7763535">
        <ele>2403.4333496</ele>
        <time>2009-09-05T11:48:03Z</time>
      </trkpt>
      <trkpt lat="46.5327504" lon="9.7763277">
        <ele>2401.9912109</ele>
        <time>2009-09-05T11:48:16Z</time>
      </trkpt>
      <trkpt lat="46.5328623" lon="9.7763417">
        <ele>2400.0688477</ele>
        <time>2009-09-05T11:48:20Z</time>
      </trkpt>
      <trkpt lat="46.5331484" lon="9.7763348">
        <ele>2398.6267090</ele>
        <time>2009-09-05T11:48:32Z</time>
      </trkpt>
      <trkpt lat="46.5331772" lon="9.7763310">
        <ele>2397.6655273</ele>
        <time>2009-09-05T11:48:33Z</time>
      </trkpt>
      <trkpt lat="46.5334357" lon="9.7763059">
        <ele>2395.2619629</ele>
        <time>2009-09-05T11:48:44Z</time>
      </trkpt>
      <trkpt lat="46.5335711" lon="9.7763277">
        <ele>2394.3005371</ele>
        <time>2009-09-05T11:48:49Z</time>
      </trkpt>
      <trkpt lat="46.5337517" lon="9.7763494">
        <ele>2392.3781738</ele>
        <time>2009-09-05T11:48:55Z</time>
      </trkpt>
      <trkpt lat="46.5339241" lon="9.7763418">
        <ele>2390.4553223</ele>
        <time>2009-09-05T11:49:00Z</time>
      </trkpt>
      <trkpt lat="46.5340028" lon="9.7763568">
        <ele>2389.4941406</ele>
        <time>2009-09-05T11:49:02Z</time>
      </trkpt>
      <trkpt lat="46.5341629" lon="9.7763332">
        <ele>2388.0522461</ele>
        <time>2009-09-05T11:49:06Z</time>
      </trkpt>
      <trkpt lat="46.5342961" lon="9.7762585">
        <ele>2387.5715332</ele>
        <time>2009-09-05T11:49:10Z</time>
      </trkpt>
      <trkpt lat="46.5345209" lon="9.7761848">
        <ele>2385.6489258</ele>
        <time>2009-09-05T11:49:17Z</time>
      </trkpt>
      <trkpt lat="46.5348017" lon="9.7761322">
        <ele>2383.2456055</ele>
        <time>2009-09-05T11:49:27Z</time>
      </trkpt>
      <trkpt lat="46.5351586" lon="9.7763176">
        <ele>2381.8037109</ele>
        <time>2009-09-05T11:49:38Z</time>
      </trkpt>
      <trkpt lat="46.5354028" lon="9.7763665">
        <ele>2380.8425293</ele>
        <time>2009-09-05T11:49:48Z</time>
      </trkpt>
      <trkpt lat="46.5354175" lon="9.7763461">
        <ele>2380.8425293</ele>
        <time>2009-09-05T11:49:56Z</time>
      </trkpt>
      <trkpt lat="46.5356129" lon="9.7761364">
        <ele>2379.4001465</ele>
        <time>2009-09-05T11:50:08Z</time>
      </trkpt>
      <trkpt lat="46.5356704" lon="9.7760813">
        <ele>2379.4001465</ele>
        <time>2009-09-05T11:50:17Z</time>
      </trkpt>
      <trkpt lat="46.5357160" lon="9.7760407">
        <ele>2379.4001465</ele>
        <time>2009-09-05T11:50:21Z</time>
      </trkpt>
      <trkpt lat="46.5357675" lon="9.7759687">
        <ele>2379.4001465</ele>
        <time>2009-09-05T11:50:35Z</time>
      </trkpt>
      <trkpt lat="46.5358336" lon="9.7759681">
        <ele>2378.9194336</ele>
        <time>2009-09-05T11:50:50Z</time>
      </trkpt>
      <trkpt lat="46.5359364" lon="9.7760704">
        <ele>2377.9582520</ele>
        <time>2009-09-05T11:51:19Z</time>
      </trkpt>
      <trkpt lat="46.5360394" lon="9.7760595">
        <ele>2378.4389648</ele>
        <time>2009-09-05T11:51:30Z</time>
      </trkpt>
      <trkpt lat="46.5361063" lon="9.7760890">
        <ele>2378.9194336</ele>
        <time>2009-09-05T11:51:39Z</time>
      </trkpt>
      <trkpt lat="46.5361432" lon="9.7761329">
        <ele>2379.4001465</ele>
        <time>2009-09-05T11:51:55Z</time>
      </trkpt>
      <trkpt lat="46.5362651" lon="9.7762508">
        <ele>2379.4001465</ele>
        <time>2009-09-05T11:52:09Z</time>
      </trkpt>
      <trkpt lat="46.5362673" lon="9.7762334">
        <ele>2379.8808594</ele>
        <time>2009-09-05T11:52:16Z</time>
      </trkpt>
      <trkpt lat="46.5364900" lon="9.7762365">
        <ele>2379.4001465</ele>
        <time>2009-09-05T11:52:29Z</time>
      </trkpt>
      <trkpt lat="46.5367377" lon="9.7762648">
        <ele>2376.0356445</ele>
        <time>2009-09-05T11:52:37Z</time>
      </trkpt>
      <trkpt lat="46.5368700" lon="9.7762354">
        <ele>2375.5549316</ele>
        <time>2009-09-05T11:52:41Z</time>
      </trkpt>
      <trkpt lat="46.5369862" lon="9.7761471">
        <ele>2375.5549316</ele>
        <time>2009-09-05T11:52:49Z</time>
      </trkpt>
      <trkpt lat="46.5370791" lon="9.7760934">
        <ele>2375.5549316</ele>
        <time>2009-09-05T11:52:54Z</time>
      </trkpt>
      <trkpt lat="46.5373198" lon="9.7758597">
        <ele>2374.1130371</ele>
        <time>2009-09-05T11:53:07Z</time>
      </trkpt>
      <trkpt lat="46.5374867" lon="9.7757228">
        <ele>2373.6323242</ele>
        <time>2009-09-05T11:53:17Z</time>
      </trkpt>
      <trkpt lat="46.5376891" lon="9.7756392">
        <ele>2372.1904297</ele>
        <time>2009-09-05T11:53:28Z</time>
      </trkpt>
      <trkpt lat="46.5379047" lon="9.7755801">
        <ele>2371.7097168</ele>
        <time>2009-09-05T11:53:38Z</time>
      </trkpt>
      <trkpt lat="46.5381522" lon="9.7754577">
        <ele>2370.7485352</ele>
        <time>2009-09-05T11:53:49Z</time>
      </trkpt>
      <trkpt lat="46.5384962" lon="9.7752970">
        <ele>2367.8645020</ele>
        <time>2009-09-05T11:54:02Z</time>
      </trkpt>
      <trkpt lat="46.5387278" lon="9.7753390">
        <ele>2365.4614258</ele>
        <time>2009-09-05T11:54:11Z</time>
      </trkpt>
      <trkpt lat="46.5389316" lon="9.7752903">
        <ele>2364.0192871</ele>
        <time>2009-09-05T11:54:19Z</time>
      </trkpt>
      <trkpt lat="46.5391767" lon="9.7753919">
        <ele>2361.6159668</ele>
        <time>2009-09-05T11:54:26Z</time>
      </trkpt>
      <trkpt lat="46.5392037" lon="9.7753924">
        <ele>2361.1352539</ele>
        <time>2009-09-05T11:54:27Z</time>
      </trkpt>
      <trkpt lat="46.5393923" lon="9.7754011">
        <ele>2359.2126465</ele>
        <time>2009-09-05T11:54:33Z</time>
      </trkpt>
      <trkpt lat="46.5396311" lon="9.7753200">
        <ele>2358.7319336</ele>
        <time>2009-09-05T11:54:43Z</time>
      </trkpt>
      <trkpt lat="46.5398429" lon="9.7753312">
        <ele>2357.7707520</ele>
        <time>2009-09-05T11:54:52Z</time>
      </trkpt>
      <trkpt lat="46.5399931" lon="9.7753403">
        <ele>2358.2512207</ele>
        <time>2009-09-05T11:55:00Z</time>
      </trkpt>
      <trkpt lat="46.5400609" lon="9.7752978">
        <ele>2359.2126465</ele>
        <time>2009-09-05T11:55:05Z</time>
      </trkpt>
      <trkpt lat="46.5401219" lon="9.7752430">
        <ele>2357.7707520</ele>
        <time>2009-09-05T11:55:09Z</time>
      </trkpt>
      <trkpt lat="46.5402101" lon="9.7752730">
        <ele>2355.3674316</ele>
        <time>2009-09-05T11:55:13Z</time>
      </trkpt>
      <trkpt lat="46.5403868" lon="9.7751962">
        <ele>2353.4448242</ele>
        <time>2009-09-05T11:55:19Z</time>
      </trkpt>
      <trkpt lat="46.5405885" lon="9.7751908">
        <ele>2351.0415039</ele>
        <time>2009-09-05T11:55:25Z</time>
      </trkpt>
      <trkpt lat="46.5406666" lon="9.7752207">
        <ele>2350.0803223</ele>
        <time>2009-09-05T11:55:28Z</time>
      </trkpt>
      <trkpt lat="46.5407499" lon="9.7752630">
        <ele>2350.0803223</ele>
        <time>2009-09-05T11:55:33Z</time>
      </trkpt>
      <trkpt lat="46.5407738" lon="9.7752247">
        <ele>2349.5996094</ele>
        <time>2009-09-05T11:55:35Z</time>
      </trkpt>
      <trkpt lat="46.5408010" lon="9.7752113">
        <ele>2348.6381836</ele>
        <time>2009-09-05T11:55:37Z</time>
      </trkpt>
      <trkpt lat="46.5408106" lon="9.7752155">
        <ele>2348.1574707</ele>
        <time>2009-09-05T11:55:38Z</time>
      </trkpt>
      <trkpt lat="46.5408816" lon="9.7752239">
        <ele>2348.1574707</ele>
        <time>2009-09-05T11:55:46Z</time>
      </trkpt>
      <trkpt lat="46.5410303" lon="9.7751936">
        <ele>2345.7541504</ele>
        <time>2009-09-05T11:56:03Z</time>
      </trkpt>
      <trkpt lat="46.5410738" lon="9.7751886">
        <ele>2345.2734375</ele>
        <time>2009-09-05T11:56:06Z</time>
      </trkpt>
      <trkpt lat="46.5410922" lon="9.7751524">
        <ele>2343.3508301</ele>
        <time>2009-09-05T11:56:10Z</time>
      </trkpt>
      <trkpt lat="46.5411748" lon="9.7750610">
        <ele>2340.4667969</ele>
        <time>2009-09-05T11:56:18Z</time>
      </trkpt>
      <trkpt lat="46.5412561" lon="9.7750632">
        <ele>2339.5056152</ele>
        <time>2009-09-05T11:56:22Z</time>
      </trkpt>
      <trkpt lat="46.5413922" lon="9.7750124">
        <ele>2336.1411133</ele>
        <time>2009-09-05T11:56:27Z</time>
      </trkpt>
      <trkpt lat="46.5414665" lon="9.7750197">
        <ele>2334.6992188</ele>
        <time>2009-09-05T11:56:30Z</time>
      </trkpt>
      <trkpt lat="46.5415349" lon="9.7750322">
        <ele>2333.2570801</ele>
        <time>2009-09-05T11:56:33Z</time>
      </trkpt>
      <trkpt lat="46.5416443" lon="9.7751412">
        <ele>2330.8537598</ele>
        <time>2009-09-05T11:56:38Z</time>
      </trkpt>
      <trkpt lat="46.5417923" lon="9.7751061">
        <ele>2327.4890137</ele>
        <time>2009-09-05T11:56:47Z</time>
      </trkpt>
      <trkpt lat="46.5419047" lon="9.7750542">
        <ele>2324.6052246</ele>
        <time>2009-09-05T11:56:52Z</time>
      </trkpt>
      <trkpt lat="46.5420377" lon="9.7751339">
        <ele>2322.2019043</ele>
        <time>2009-09-05T11:56:56Z</time>
      </trkpt>
      <trkpt lat="46.5420899" lon="9.7752206">
        <ele>2321.2404785</ele>
        <time>2009-09-05T11:56:59Z</time>
      </trkpt>
      <trkpt lat="46.5421838" lon="9.7751986">
        <ele>2318.8374023</ele>
        <time>2009-09-05T11:57:05Z</time>
      </trkpt>
      <trkpt lat="46.5422693" lon="9.7753133">
        <ele>2316.9147949</ele>
        <time>2009-09-05T11:57:11Z</time>
      </trkpt>
      <trkpt lat="46.5423850" lon="9.7754082">
        <ele>2314.0305176</ele>
        <time>2009-09-05T11:57:15Z</time>
      </trkpt>
      <trkpt lat="46.5425794" lon="9.7754667">
        <ele>2310.6660156</ele>
        <time>2009-09-05T11:57:21Z</time>
      </trkpt>
      <trkpt lat="46.5427777" lon="9.7756143">
        <ele>2307.7822266</ele>
        <time>2009-09-05T11:57:27Z</time>
      </trkpt>
      <trkpt lat="46.5430245" lon="9.7756757">
        <ele>2306.8208008</ele>
        <time>2009-09-05T11:57:35Z</time>
      </trkpt>
      <trkpt lat="46.5430541" lon="9.7756812">
        <ele>2306.8208008</ele>
        <time>2009-09-05T11:57:36Z</time>
      </trkpt>
      <trkpt lat="46.5433699" lon="9.7757801">
        <ele>2304.8981934</ele>
        <time>2009-09-05T11:57:47Z</time>
      </trkpt>
      <trkpt lat="46.5435188" lon="9.7758130">
        <ele>2303.9370117</ele>
        <time>2009-09-05T11:57:54Z</time>
      </trkpt>
      <trkpt lat="46.5436421" lon="9.7756112">
        <ele>2301.5336914</ele>
        <time>2009-09-05T11:58:03Z</time>
      </trkpt>
      <trkpt lat="46.5436627" lon="9.7756102">
        <ele>2301.0529785</ele>
        <time>2009-09-05T11:58:04Z</time>
      </trkpt>
      <trkpt lat="46.5437027" lon="9.7756172">
        <ele>2300.0917969</ele>
        <time>2009-09-05T11:58:06Z</time>
      </trkpt>
      <trkpt lat="46.5437292" lon="9.7756180">
        <ele>2299.6108398</ele>
        <time>2009-09-05T11:58:07Z</time>
      </trkpt>
      <trkpt lat="46.5437432" lon="9.7754355">
        <ele>2299.1301270</ele>
        <time>2009-09-05T11:58:14Z</time>
      </trkpt>
      <trkpt lat="46.5437558" lon="9.7754157">
        <ele>2297.6882324</ele>
        <time>2009-09-05T11:58:35Z</time>
      </trkpt>
      <trkpt lat="46.5437564" lon="9.7754160">
        <ele>2295.7656250</ele>
        <time>2009-09-05T11:58:50Z</time>
      </trkpt>
      <trkpt lat="46.5438331" lon="9.7754791">
        <ele>2293.8430176</ele>
        <time>2009-09-05T11:58:54Z</time>
      </trkpt>
      <trkpt lat="46.5440039" lon="9.7756255">
        <ele>2290.9589844</ele>
        <time>2009-09-05T11:59:00Z</time>
      </trkpt>
      <trkpt lat="46.5440328" lon="9.7754505">
        <ele>2288.0751953</ele>
        <time>2009-09-05T11:59:09Z</time>
      </trkpt>
      <trkpt lat="46.5440549" lon="9.7754238">
        <ele>2287.1137695</ele>
        <time>2009-09-05T11:59:11Z</time>
      </trkpt>
      <trkpt lat="46.5440776" lon="9.7754101">
        <ele>2286.1525879</ele>
        <time>2009-09-05T11:59:13Z</time>
      </trkpt>
      <trkpt lat="46.5441215" lon="9.7754147">
        <ele>2284.7106934</ele>
        <time>2009-09-05T11:59:15Z</time>
      </trkpt>
      <trkpt lat="46.5442765" lon="9.7754652">
        <ele>2282.3071289</ele>
        <time>2009-09-05T11:59:22Z</time>
      </trkpt>
      <trkpt lat="46.5443186" lon="9.7754874">
        <ele>2281.3457031</ele>
        <time>2009-09-05T11:59:25Z</time>
      </trkpt>
      <trkpt lat="46.5444123" lon="9.7755993">
        <ele>2277.9812012</ele>
        <time>2009-09-05T11:59:31Z</time>
      </trkpt>
      <trkpt lat="46.5445064" lon="9.7756479">
        <ele>2277.0200195</ele>
        <time>2009-09-05T11:59:41Z</time>
      </trkpt>
      <trkpt lat="46.5444967" lon="9.7755829">
        <ele>2275.5778809</ele>
        <time>2009-09-05T12:00:09Z</time>
      </trkpt>
      <trkpt lat="46.5445132" lon="9.7755637">
        <ele>2273.6552734</ele>
        <time>2009-09-05T12:00:25Z</time>
      </trkpt>
      <trkpt lat="46.5445909" lon="9.7755542">
        <ele>2271.7326660</ele>
        <time>2009-09-05T12:00:41Z</time>
      </trkpt>
      <trkpt lat="46.5445747" lon="9.7754771">
        <ele>2270.2907715</ele>
        <time>2009-09-05T12:00:48Z</time>
      </trkpt>
      <trkpt lat="46.5445667" lon="9.7754468">
        <ele>2269.8100586</ele>
        <time>2009-09-05T12:00:50Z</time>
      </trkpt>
      <trkpt lat="46.5446040" lon="9.7754045">
        <ele>2268.3681641</ele>
        <time>2009-09-05T12:01:02Z</time>
      </trkpt>
      <trkpt lat="46.5446850" lon="9.7754651">
        <ele>2266.4453125</ele>
        <time>2009-09-05T12:01:08Z</time>
      </trkpt>
      <trkpt lat="46.5447185" lon="9.7754992">
        <ele>2265.4841309</ele>
        <time>2009-09-05T12:01:10Z</time>
      </trkpt>
      <trkpt lat="46.5448179" lon="9.7756048">
        <ele>2263.5612793</ele>
        <time>2009-09-05T12:01:23Z</time>
      </trkpt>
      <trkpt lat="46.5448548" lon="9.7756407">
        <ele>2262.1193848</ele>
        <time>2009-09-05T12:01:41Z</time>
      </trkpt>
      <trkpt lat="46.5449006" lon="9.7757079">
        <ele>2260.6774902</ele>
        <time>2009-09-05T12:01:54Z</time>
      </trkpt>
      <trkpt lat="46.5449707" lon="9.7757412">
        <ele>2258.7548828</ele>
        <time>2009-09-05T12:02:07Z</time>
      </trkpt>
      <trkpt lat="46.5450783" lon="9.7757879">
        <ele>2256.3515625</ele>
        <time>2009-09-05T12:02:22Z</time>
      </trkpt>
      <trkpt lat="46.5451279" lon="9.7757920">
        <ele>2254.9096680</ele>
        <time>2009-09-05T12:02:31Z</time>
      </trkpt>
      <trkpt lat="46.5452143" lon="9.7757858">
        <ele>2252.5063477</ele>
        <time>2009-09-05T12:02:44Z</time>
      </trkpt>
      <trkpt lat="46.5453116" lon="9.7758011">
        <ele>2250.1030273</ele>
        <time>2009-09-05T12:03:01Z</time>
      </trkpt>
      <trkpt lat="46.5453037" lon="9.7757760">
        <ele>2249.6223145</ele>
        <time>2009-09-05T12:03:07Z</time>
      </trkpt>
      <trkpt lat="46.5452424" lon="9.7756159">
        <ele>2247.6997070</ele>
        <time>2009-09-05T12:03:15Z</time>
      </trkpt>
      <trkpt lat="46.5452759" lon="9.7754618">
        <ele>2245.2963867</ele>
        <time>2009-09-05T12:03:27Z</time>
      </trkpt>
      <trkpt lat="46.5452434" lon="9.7754222">
        <ele>2243.3737793</ele>
        <time>2009-09-05T12:03:40Z</time>
      </trkpt>
      <trkpt lat="46.5453086" lon="9.7754064">
        <ele>2240.9704590</ele>
        <time>2009-09-05T12:03:55Z</time>
      </trkpt>
      <trkpt lat="46.5454679" lon="9.7754689">
        <ele>2238.0866699</ele>
        <time>2009-09-05T12:04:04Z</time>
      </trkpt>
      <trkpt lat="46.5454846" lon="9.7754790">
        <ele>2237.1252441</ele>
        <time>2009-09-05T12:04:05Z</time>
      </trkpt>
      <trkpt lat="46.5455110" lon="9.7755263">
        <ele>2235.6831055</ele>
        <time>2009-09-05T12:04:07Z</time>
      </trkpt>
      <trkpt lat="46.5455451" lon="9.7755662">
        <ele>2234.7219238</ele>
        <time>2009-09-05T12:04:09Z</time>
      </trkpt>
      <trkpt lat="46.5456094" lon="9.7756278">
        <ele>2233.7604980</ele>
        <time>2009-09-05T12:04:25Z</time>
      </trkpt>
      <trkpt lat="46.5456339" lon="9.7756527">
        <ele>2232.7990723</ele>
        <time>2009-09-05T12:04:30Z</time>
      </trkpt>
      <trkpt lat="46.5456838" lon="9.7756348">
        <ele>2230.8767090</ele>
        <time>2009-09-05T12:04:47Z</time>
      </trkpt>
      <trkpt lat="46.5456782" lon="9.7755892">
        <ele>2230.3959961</ele>
        <time>2009-09-05T12:04:53Z</time>
      </trkpt>
      <trkpt lat="46.5456760" lon="9.7755299">
        <ele>2228.9538574</ele>
        <time>2009-09-05T12:04:59Z</time>
      </trkpt>
      <trkpt lat="46.5456956" lon="9.7754049">
        <ele>2225.1086426</ele>
        <time>2009-09-05T12:05:14Z</time>
      </trkpt>
      <trkpt lat="46.5457625" lon="9.7754849">
        <ele>2223.6667480</ele>
        <time>2009-09-05T12:05:27Z</time>
      </trkpt>
      <trkpt lat="46.5457720" lon="9.7754990">
        <ele>2223.1862793</ele>
        <time>2009-09-05T12:05:29Z</time>
      </trkpt>
      <trkpt lat="46.5458378" lon="9.7756167">
        <ele>2221.7441406</ele>
        <time>2009-09-05T12:05:43Z</time>
      </trkpt>
      <trkpt lat="46.5458630" lon="9.7756546">
        <ele>2220.3022461</ele>
        <time>2009-09-05T12:05:49Z</time>
      </trkpt>
      <trkpt lat="46.5459097" lon="9.7756979">
        <ele>2218.8601074</ele>
        <time>2009-09-05T12:06:03Z</time>
      </trkpt>
      <trkpt lat="46.5459843" lon="9.7757205">
        <ele>2217.4179688</ele>
        <time>2009-09-05T12:06:18Z</time>
      </trkpt>
      <trkpt lat="46.5459811" lon="9.7756849">
        <ele>2217.4179688</ele>
        <time>2009-09-05T12:06:23Z</time>
      </trkpt>
      <trkpt lat="46.5459736" lon="9.7755841">
        <ele>2215.0148926</ele>
        <time>2009-09-05T12:06:34Z</time>
      </trkpt>
      <trkpt lat="46.5460723" lon="9.7756576">
        <ele>2212.1308594</ele>
        <time>2009-09-05T12:06:47Z</time>
      </trkpt>
      <trkpt lat="46.5460895" lon="9.7756863">
        <ele>2211.6503906</ele>
        <time>2009-09-05T12:06:50Z</time>
      </trkpt>
      <trkpt lat="46.5461382" lon="9.7757338">
        <ele>2209.7275391</ele>
        <time>2009-09-05T12:06:58Z</time>
      </trkpt>
      <trkpt lat="46.5461568" lon="9.7757972">
        <ele>2208.7663574</ele>
        <time>2009-09-05T12:07:03Z</time>
      </trkpt>
      <trkpt lat="46.5461688" lon="9.7759085">
        <ele>2207.8051758</ele>
        <time>2009-09-05T12:07:13Z</time>
      </trkpt>
      <trkpt lat="46.5462423" lon="9.7760482">
        <ele>2205.4018555</ele>
        <time>2009-09-05T12:07:27Z</time>
      </trkpt>
      <trkpt lat="46.5462594" lon="9.7760702">
        <ele>2203.9597168</ele>
        <time>2009-09-05T12:07:29Z</time>
      </trkpt>
      <trkpt lat="46.5463282" lon="9.7761439">
        <ele>2202.0368652</ele>
        <time>2009-09-05T12:07:35Z</time>
      </trkpt>
      <trkpt lat="46.5463580" lon="9.7761836">
        <ele>2201.5563965</ele>
        <time>2009-09-05T12:07:38Z</time>
      </trkpt>
      <trkpt lat="46.5464355" lon="9.7762603">
        <ele>2199.6337891</ele>
        <time>2009-09-05T12:07:45Z</time>
      </trkpt>
      <trkpt lat="46.5466152" lon="9.7764693">
        <ele>2196.2692871</ele>
        <time>2009-09-05T12:07:55Z</time>
      </trkpt>
      <trkpt lat="46.5466822" lon="9.7765124">
        <ele>2194.3464355</ele>
        <time>2009-09-05T12:08:00Z</time>
      </trkpt>
      <trkpt lat="46.5467679" lon="9.7766109">
        <ele>2191.9433594</ele>
        <time>2009-09-05T12:08:04Z</time>
      </trkpt>
      <trkpt lat="46.5468171" lon="9.7766760">
        <ele>2190.5012207</ele>
        <time>2009-09-05T12:08:06Z</time>
      </trkpt>
      <trkpt lat="46.5469467" lon="9.7768051">
        <ele>2187.1364746</ele>
        <time>2009-09-05T12:08:11Z</time>
      </trkpt>
      <trkpt lat="46.5470491" lon="9.7769361">
        <ele>2185.2138672</ele>
        <time>2009-09-05T12:08:16Z</time>
      </trkpt>
      <trkpt lat="46.5471195" lon="9.7770088">
        <ele>2183.7719727</ele>
        <time>2009-09-05T12:08:19Z</time>
      </trkpt>
      <trkpt lat="46.5472773" lon="9.7771242">
        <ele>2181.3686523</ele>
        <time>2009-09-05T12:08:30Z</time>
      </trkpt>
      <trkpt lat="46.5474138" lon="9.7772466">
        <ele>2177.5234375</ele>
        <time>2009-09-05T12:08:38Z</time>
      </trkpt>
      <trkpt lat="46.5475024" lon="9.7774154">
        <ele>2174.6396484</ele>
        <time>2009-09-05T12:08:48Z</time>
      </trkpt>
      <trkpt lat="46.5475126" lon="9.7774320">
        <ele>2174.1589355</ele>
        <time>2009-09-05T12:08:49Z</time>
      </trkpt>
      <trkpt lat="46.5476464" lon="9.7776053">
        <ele>2170.7941895</ele>
        <time>2009-09-05T12:08:57Z</time>
      </trkpt>
      <trkpt lat="46.5477566" lon="9.7777338">
        <ele>2168.3908691</ele>
        <time>2009-09-05T12:09:02Z</time>
      </trkpt>
      <trkpt lat="46.5478611" lon="9.7778904">
        <ele>2165.0263672</ele>
        <time>2009-09-05T12:09:07Z</time>
      </trkpt>
      <trkpt lat="46.5479596" lon="9.7780557">
        <ele>2161.1811523</ele>
        <time>2009-09-05T12:09:13Z</time>
      </trkpt>
      <trkpt lat="46.5479711" lon="9.7780832">
        <ele>2161.1811523</ele>
        <time>2009-09-05T12:09:14Z</time>
      </trkpt>
      <trkpt lat="46.5480499" lon="9.7782295">
        <ele>2158.7778320</ele>
        <time>2009-09-05T12:09:19Z</time>
      </trkpt>
      <trkpt lat="46.5481441" lon="9.7784109">
        <ele>2155.4130859</ele>
        <time>2009-09-05T12:09:25Z</time>
      </trkpt>
      <trkpt lat="46.5481975" lon="9.7784968">
        <ele>2154.4516602</ele>
        <time>2009-09-05T12:09:29Z</time>
      </trkpt>
      <trkpt lat="46.5482788" lon="9.7784882">
        <ele>2153.0097656</ele>
        <time>2009-09-05T12:09:33Z</time>
      </trkpt>
      <trkpt lat="46.5484191" lon="9.7784788">
        <ele>2148.2031250</ele>
        <time>2009-09-05T12:09:37Z</time>
      </trkpt>
      <trkpt lat="46.5484559" lon="9.7784837">
        <ele>2147.7226563</ele>
        <time>2009-09-05T12:09:38Z</time>
      </trkpt>
      <trkpt lat="46.5485428" lon="9.7784800">
        <ele>2146.2807617</ele>
        <time>2009-09-05T12:09:40Z</time>
      </trkpt>
      <trkpt lat="46.5486970" lon="9.7784687">
        <ele>2142.4355469</ele>
        <time>2009-09-05T12:09:44Z</time>
      </trkpt>
      <trkpt lat="46.5487810" lon="9.7785965">
        <ele>2140.9934082</ele>
        <time>2009-09-05T12:09:47Z</time>
      </trkpt>
      <trkpt lat="46.5489382" lon="9.7788028">
        <ele>2140.9934082</ele>
        <time>2009-09-05T12:09:52Z</time>
      </trkpt>
      <trkpt lat="46.5491097" lon="9.7790762">
        <ele>2140.9934082</ele>
        <time>2009-09-05T12:10:02Z</time>
      </trkpt>
      <trkpt lat="46.5491119" lon="9.7790757">
        <ele>2140.0322266</ele>
        <time>2009-09-05T12:10:10Z</time>
      </trkpt>
      <trkpt lat="46.5491896" lon="9.7792781">
        <ele>2137.6286621</ele>
        <time>2009-09-05T12:10:19Z</time>
      </trkpt>
      <trkpt lat="46.5492411" lon="9.7794062">
        <ele>2138.1093750</ele>
        <time>2009-09-05T12:10:23Z</time>
      </trkpt>
      <trkpt lat="46.5493757" lon="9.7796977">
        <ele>2135.2253418</ele>
        <time>2009-09-05T12:10:31Z</time>
      </trkpt>
      <trkpt lat="46.5498634" lon="9.7799616">
        <ele>2133.7834473</ele>
        <time>2009-09-05T12:10:42Z</time>
      </trkpt>
      <trkpt lat="46.5499719" lon="9.7800048">
        <ele>2133.3027344</ele>
        <time>2009-09-05T12:10:51Z</time>
      </trkpt>
      <trkpt lat="46.5499711" lon="9.7800038">
        <ele>2132.3415527</ele>
        <time>2009-09-05T12:11:03Z</time>
      </trkpt>
      <trkpt lat="46.5501088" lon="9.7801945">
        <ele>2130.8996582</ele>
        <time>2009-09-05T12:11:16Z</time>
      </trkpt>
      <trkpt lat="46.5504064" lon="9.7805862">
        <ele>2131.3801270</ele>
        <time>2009-09-05T12:11:28Z</time>
      </trkpt>
      <trkpt lat="46.5505561" lon="9.7809534">
        <ele>2129.4575195</ele>
        <time>2009-09-05T12:11:36Z</time>
      </trkpt>
      <trkpt lat="46.5506646" lon="9.7812343">
        <ele>2126.0930176</ele>
        <time>2009-09-05T12:11:40Z</time>
      </trkpt>
      <trkpt lat="46.5507590" lon="9.7814781">
        <ele>2123.6894531</ele>
        <time>2009-09-05T12:11:43Z</time>
      </trkpt>
      <trkpt lat="46.5508255" lon="9.7818063">
        <ele>2121.2861328</ele>
        <time>2009-09-05T12:11:47Z</time>
      </trkpt>
      <trkpt lat="46.5508862" lon="9.7820541">
        <ele>2118.4023438</ele>
        <time>2009-09-05T12:11:50Z</time>
      </trkpt>
      <trkpt lat="46.5509413" lon="9.7822546">
        <ele>2115.9990234</ele>
        <time>2009-09-05T12:11:52Z</time>
      </trkpt>
      <trkpt lat="46.5510272" lon="9.7824438">
        <ele>2115.0378418</ele>
        <time>2009-09-05T12:11:54Z</time>
      </trkpt>
      <trkpt lat="46.5511437" lon="9.7826847">
        <ele>2115.0378418</ele>
        <time>2009-09-05T12:11:57Z</time>
      </trkpt>
      <trkpt lat="46.5513210" lon="9.7830026">
        <ele>2112.1538086</ele>
        <time>2009-09-05T12:12:01Z</time>
      </trkpt>
      <trkpt lat="46.5514060" lon="9.7832745">
        <ele>2111.6733398</ele>
        <time>2009-09-05T12:12:04Z</time>
      </trkpt>
      <trkpt lat="46.5515602" lon="9.7835376">
        <ele>2111.6733398</ele>
        <time>2009-09-05T12:12:08Z</time>
      </trkpt>
      <trkpt lat="46.5516202" lon="9.7838155">
        <ele>2111.6733398</ele>
        <time>2009-09-05T12:12:12Z</time>
      </trkpt>
      <trkpt lat="46.5516215" lon="9.7843893">
        <ele>2112.6345215</ele>
        <time>2009-09-05T12:12:24Z</time>
      </trkpt>
      <trkpt lat="46.5516313" lon="9.7844845">
        <ele>2110.7119141</ele>
        <time>2009-09-05T12:12:26Z</time>
      </trkpt>
      <trkpt lat="46.5517101" lon="9.7848032">
        <ele>2111.1926270</ele>
        <time>2009-09-05T12:12:33Z</time>
      </trkpt>
      <trkpt lat="46.5516853" lon="9.7848333">
        <ele>2113.1152344</ele>
        <time>2009-09-05T12:12:49Z</time>
      </trkpt>
      <trkpt lat="46.5517609" lon="9.7850494">
        <ele>2109.7504883</ele>
        <time>2009-09-05T12:12:56Z</time>
      </trkpt>
      <trkpt lat="46.5518033" lon="9.7852618">
        <ele>2109.2700195</ele>
        <time>2009-09-05T12:13:01Z</time>
      </trkpt>
      <trkpt lat="46.5519680" lon="9.7858666">
        <ele>2106.3857422</ele>
        <time>2009-09-05T12:13:14Z</time>
      </trkpt>
      <trkpt lat="46.5520080" lon="9.7860667">
        <ele>2107.3471680</ele>
        <time>2009-09-05T12:13:18Z</time>
      </trkpt>
      <trkpt lat="46.5522135" lon="9.7862916">
        <ele>2108.7893066</ele>
        <time>2009-09-05T12:13:28Z</time>
      </trkpt>
      <trkpt lat="46.5524654" lon="9.7860003">
        <ele>2109.2700195</ele>
        <time>2009-09-05T12:13:38Z</time>
      </trkpt>
      <trkpt lat="46.5525949" lon="9.7859910">
        <ele>2107.8278809</ele>
        <time>2009-09-05T12:13:45Z</time>
      </trkpt>
      <trkpt lat="46.5527347" lon="9.7861163">
        <ele>2106.8664551</ele>
        <time>2009-09-05T12:13:50Z</time>
      </trkpt>
      <trkpt lat="46.5528137" lon="9.7861615">
        <ele>2105.9050293</ele>
        <time>2009-09-05T12:13:52Z</time>
      </trkpt>
      <trkpt lat="46.5529590" lon="9.7861886">
        <ele>2105.9050293</ele>
        <time>2009-09-05T12:13:55Z</time>
      </trkpt>
      <trkpt lat="46.5532247" lon="9.7864240">
        <ele>2103.9826660</ele>
        <time>2009-09-05T12:14:02Z</time>
      </trkpt>
      <trkpt lat="46.5535738" lon="9.7870924">
        <ele>2104.9438477</ele>
        <time>2009-09-05T12:14:16Z</time>
      </trkpt>
      <trkpt lat="46.5536302" lon="9.7871755">
        <ele>2105.9050293</ele>
        <time>2009-09-05T12:14:18Z</time>
      </trkpt>
      <trkpt lat="46.5538017" lon="9.7875618">
        <ele>2103.9826660</ele>
        <time>2009-09-05T12:14:26Z</time>
      </trkpt>
      <trkpt lat="46.5538948" lon="9.7878918">
        <ele>2104.4631348</ele>
        <time>2009-09-05T12:14:32Z</time>
      </trkpt>
      <trkpt lat="46.5540204" lon="9.7881272">
        <ele>2107.8278809</ele>
        <time>2009-09-05T12:14:38Z</time>
      </trkpt>
      <trkpt lat="46.5540603" lon="9.7882016">
        <ele>2109.2700195</ele>
        <time>2009-09-05T12:14:41Z</time>
      </trkpt>
      <trkpt lat="46.5540834" lon="9.7882755">
        <ele>2107.8278809</ele>
        <time>2009-09-05T12:14:43Z</time>
      </trkpt>
      <trkpt lat="46.5542312" lon="9.7886438">
        <ele>2104.4631348</ele>
        <time>2009-09-05T12:14:50Z</time>
      </trkpt>
      <trkpt lat="46.5543182" lon="9.7888731">
        <ele>2099.1760254</ele>
        <time>2009-09-05T12:14:53Z</time>
      </trkpt>
      <trkpt lat="46.5543468" lon="9.7889496">
        <ele>2099.1760254</ele>
        <time>2009-09-05T12:14:54Z</time>
      </trkpt>
      <trkpt lat="46.5544564" lon="9.7892284">
        <ele>2099.6567383</ele>
        <time>2009-09-05T12:14:58Z</time>
      </trkpt>
      <trkpt lat="46.5545205" lon="9.7893618">
        <ele>2096.7727051</ele>
        <time>2009-09-05T12:15:00Z</time>
      </trkpt>
      <trkpt lat="46.5546159" lon="9.7896941">
        <ele>2094.3693848</ele>
        <time>2009-09-05T12:15:04Z</time>
      </trkpt>
      <trkpt lat="46.5546572" lon="9.7899032">
        <ele>2091.4853516</ele>
        <time>2009-09-05T12:15:06Z</time>
      </trkpt>
      <trkpt lat="46.5549697" lon="9.7911817">
        <ele>2090.5239258</ele>
        <time>2009-09-05T12:15:20Z</time>
      </trkpt>
      <trkpt lat="46.5549876" lon="9.7915604">
        <ele>2089.5627441</ele>
        <time>2009-09-05T12:15:25Z</time>
      </trkpt>
      <trkpt lat="46.5551631" lon="9.7922593">
        <ele>2087.6401367</ele>
        <time>2009-09-05T12:15:36Z</time>
      </trkpt>
      <trkpt lat="46.5554268" lon="9.7927605">
        <ele>2087.1594238</ele>
        <time>2009-09-05T12:15:47Z</time>
      </trkpt>
      <trkpt lat="46.5558001" lon="9.7931665">
        <ele>2087.6401367</ele>
        <time>2009-09-05T12:16:00Z</time>
      </trkpt>
      <trkpt lat="46.5558990" lon="9.7933682">
        <ele>2086.1982422</ele>
        <time>2009-09-05T12:16:04Z</time>
      </trkpt>
      <trkpt lat="46.5560404" lon="9.7935851">
        <ele>2085.7175293</ele>
        <time>2009-09-05T12:16:09Z</time>
      </trkpt>
      <trkpt lat="46.5561377" lon="9.7937803">
        <ele>2085.2368164</ele>
        <time>2009-09-05T12:16:13Z</time>
      </trkpt>
      <trkpt lat="46.5561932" lon="9.7939491">
        <ele>2084.7563477</ele>
        <time>2009-09-05T12:16:16Z</time>
      </trkpt>
      <trkpt lat="46.5562623" lon="9.7945977">
        <ele>2083.3142090</ele>
        <time>2009-09-05T12:16:26Z</time>
      </trkpt>
      <trkpt lat="46.5563545" lon="9.7952694">
        <ele>2082.3530273</ele>
        <time>2009-09-05T12:16:35Z</time>
      </trkpt>
      <trkpt lat="46.5566463" lon="9.7957293">
        <ele>2081.3916016</ele>
        <time>2009-09-05T12:16:44Z</time>
      </trkpt>
      <trkpt lat="46.5567441" lon="9.7958060">
        <ele>2080.9111328</ele>
        <time>2009-09-05T12:16:46Z</time>
      </trkpt>
      <trkpt lat="46.5568910" lon="9.7958951">
        <ele>2081.8723145</ele>
        <time>2009-09-05T12:16:49Z</time>
      </trkpt>
      <trkpt lat="46.5571010" lon="9.7960431">
        <ele>2082.3530273</ele>
        <time>2009-09-05T12:16:54Z</time>
      </trkpt>
      <trkpt lat="46.5572490" lon="9.7962007">
        <ele>2080.9111328</ele>
        <time>2009-09-05T12:16:58Z</time>
      </trkpt>
      <trkpt lat="46.5574691" lon="9.7964941">
        <ele>2080.9111328</ele>
        <time>2009-09-05T12:17:05Z</time>
      </trkpt>
      <trkpt lat="46.5576398" lon="9.7966651">
        <ele>2078.9882813</ele>
        <time>2009-09-05T12:17:09Z</time>
      </trkpt>
      <trkpt lat="46.5576841" lon="9.7967195">
        <ele>2078.5078125</ele>
        <time>2009-09-05T12:17:10Z</time>
      </trkpt>
      <trkpt lat="46.5577829" lon="9.7968269">
        <ele>2078.9882813</ele>
        <time>2009-09-05T12:17:12Z</time>
      </trkpt>
      <trkpt lat="46.5578984" lon="9.7969082">
        <ele>2078.0270996</ele>
        <time>2009-09-05T12:17:14Z</time>
      </trkpt>
      <trkpt lat="46.5581746" lon="9.7972376">
        <ele>2077.0659180</ele>
        <time>2009-09-05T12:17:20Z</time>
      </trkpt>
      <trkpt lat="46.5583045" lon="9.7975419">
        <ele>2075.1428223</ele>
        <time>2009-09-05T12:17:25Z</time>
      </trkpt>
      <trkpt lat="46.5583708" lon="9.7978808">
        <ele>2072.2590332</ele>
        <time>2009-09-05T12:17:29Z</time>
      </trkpt>
      <trkpt lat="46.5584078" lon="9.7981589">
        <ele>2069.8557129</ele>
        <time>2009-09-05T12:17:32Z</time>
      </trkpt>
      <trkpt lat="46.5584170" lon="9.7985383">
        <ele>2066.0104980</ele>
        <time>2009-09-05T12:17:36Z</time>
      </trkpt>
      <trkpt lat="46.5584098" lon="9.7988579">
        <ele>2065.5300293</ele>
        <time>2009-09-05T12:17:39Z</time>
      </trkpt>
      <trkpt lat="46.5585200" lon="9.7996449">
        <ele>2061.6848145</ele>
        <time>2009-09-05T12:17:46Z</time>
      </trkpt>
      <trkpt lat="46.5586727" lon="9.8000042">
        <ele>2062.1652832</ele>
        <time>2009-09-05T12:17:50Z</time>
      </trkpt>
      <trkpt lat="46.5588191" lon="9.8002126">
        <ele>2061.6848145</ele>
        <time>2009-09-05T12:17:53Z</time>
      </trkpt>
      <trkpt lat="46.5591018" lon="9.8008979">
        <ele>2059.2812500</ele>
        <time>2009-09-05T12:18:03Z</time>
      </trkpt>
      <trkpt lat="46.5592129" lon="9.8011843">
        <ele>2056.3972168</ele>
        <time>2009-09-05T12:18:06Z</time>
      </trkpt>
      <trkpt lat="46.5592716" lon="9.8013652">
        <ele>2055.9165039</ele>
        <time>2009-09-05T12:18:08Z</time>
      </trkpt>
      <trkpt lat="46.5594401" lon="9.8016136">
        <ele>2056.8779297</ele>
        <time>2009-09-05T12:18:12Z</time>
      </trkpt>
      <trkpt lat="46.5598286" lon="9.8017801">
        <ele>2056.8779297</ele>
        <time>2009-09-05T12:18:19Z</time>
      </trkpt>
      <trkpt lat="46.5600785" lon="9.8022568">
        <ele>2056.3972168</ele>
        <time>2009-09-05T12:18:28Z</time>
      </trkpt>
      <trkpt lat="46.5601736" lon="9.8025062">
        <ele>2057.8393555</ele>
        <time>2009-09-05T12:18:38Z</time>
      </trkpt>
      <trkpt lat="46.5601992" lon="9.8026400">
        <ele>2056.3972168</ele>
        <time>2009-09-05T12:18:51Z</time>
      </trkpt>
      <trkpt lat="46.5602684" lon="9.8028908">
        <ele>2053.9941406</ele>
        <time>2009-09-05T12:18:55Z</time>
      </trkpt>
      <trkpt lat="46.5603236" lon="9.8033719">
        <ele>2053.0327148</ele>
        <time>2009-09-05T12:19:01Z</time>
      </trkpt>
      <trkpt lat="46.5604055" lon="9.8038092">
        <ele>2050.1489258</ele>
        <time>2009-09-05T12:19:07Z</time>
      </trkpt>
      <trkpt lat="46.5604776" lon="9.8040860">
        <ele>2050.1489258</ele>
        <time>2009-09-05T12:19:11Z</time>
      </trkpt>
      <trkpt lat="46.5605338" lon="9.8044672">
        <ele>2049.6682129</ele>
        <time>2009-09-05T12:19:17Z</time>
      </trkpt>
      <trkpt lat="46.5607379" lon="9.8051912">
        <ele>2050.1489258</ele>
        <time>2009-09-05T12:19:31Z</time>
      </trkpt>
      <trkpt lat="46.5607885" lon="9.8054260">
        <ele>2049.6682129</ele>
        <time>2009-09-05T12:19:37Z</time>
      </trkpt>
      <trkpt lat="46.5609425" lon="9.8058545">
        <ele>2047.7456055</ele>
        <time>2009-09-05T12:19:44Z</time>
      </trkpt>
      <trkpt lat="46.5610631" lon="9.8061673">
        <ele>2045.8229980</ele>
        <time>2009-09-05T12:19:50Z</time>
      </trkpt>
      <trkpt lat="46.5611710" lon="9.8063770">
        <ele>2042.9387207</ele>
        <time>2009-09-05T12:19:55Z</time>
      </trkpt>
      <trkpt lat="46.5612534" lon="9.8064613">
        <ele>2041.9775391</ele>
        <time>2009-09-05T12:19:57Z</time>
      </trkpt>
      <trkpt lat="46.5614208" lon="9.8067647">
        <ele>2037.6516113</ele>
        <time>2009-09-05T12:20:01Z</time>
      </trkpt>
      <trkpt lat="46.5616365" lon="9.8072545">
        <ele>2037.1708984</ele>
        <time>2009-09-05T12:20:07Z</time>
      </trkpt>
      <trkpt lat="46.5617665" lon="9.8074254">
        <ele>2037.6516113</ele>
        <time>2009-09-05T12:20:10Z</time>
      </trkpt>
      <trkpt lat="46.5618219" lon="9.8077133">
        <ele>2035.7290039</ele>
        <time>2009-09-05T12:20:14Z</time>
      </trkpt>
      <trkpt lat="46.5617991" lon="9.8078651">
        <ele>2034.7678223</ele>
        <time>2009-09-05T12:20:16Z</time>
      </trkpt>
      <trkpt lat="46.5617952" lon="9.8080291">
        <ele>2034.2871094</ele>
        <time>2009-09-05T12:20:18Z</time>
      </trkpt>
      <trkpt lat="46.5617526" lon="9.8084996">
        <ele>2033.3256836</ele>
        <time>2009-09-05T12:20:24Z</time>
      </trkpt>
      <trkpt lat="46.5616978" lon="9.8089834">
        <ele>2029.4804688</ele>
        <time>2009-09-05T12:20:30Z</time>
      </trkpt>
      <trkpt lat="46.5617452" lon="9.8093964">
        <ele>2026.5964355</ele>
        <time>2009-09-05T12:20:34Z</time>
      </trkpt>
      <trkpt lat="46.5618076" lon="9.8096776">
        <ele>2028.0385742</ele>
        <time>2009-09-05T12:20:37Z</time>
      </trkpt>
      <trkpt lat="46.5618305" lon="9.8102133">
        <ele>2025.1542969</ele>
        <time>2009-09-05T12:20:43Z</time>
      </trkpt>
      <trkpt lat="46.5618199" lon="9.8103580">
        <ele>2024.6738281</ele>
        <time>2009-09-05T12:20:45Z</time>
      </trkpt>
      <trkpt lat="46.5618443" lon="9.8106050">
        <ele>2022.7512207</ele>
        <time>2009-09-05T12:20:48Z</time>
      </trkpt>
      <trkpt lat="46.5618756" lon="9.8107738">
        <ele>2022.2705078</ele>
        <time>2009-09-05T12:20:50Z</time>
      </trkpt>
      <trkpt lat="46.5619107" lon="9.8109238">
        <ele>2022.2705078</ele>
        <time>2009-09-05T12:20:52Z</time>
      </trkpt>
      <trkpt lat="46.5620084" lon="9.8111136">
        <ele>2022.2705078</ele>
        <time>2009-09-05T12:21:00Z</time>
      </trkpt>
      <trkpt lat="46.5620055" lon="9.8111689">
        <ele>2022.2705078</ele>
        <time>2009-09-05T12:21:41Z</time>
      </trkpt>
      <trkpt lat="46.5620448" lon="9.8114254">
        <ele>2022.2705078</ele>
        <time>2009-09-05T12:21:49Z</time>
      </trkpt>
      <trkpt lat="46.5620865" lon="9.8119444">
        <ele>2020.8286133</ele>
        <time>2009-09-05T12:21:59Z</time>
      </trkpt>
      <trkpt lat="46.5620822" lon="9.8121975">
        <ele>2018.9060059</ele>
        <time>2009-09-05T12:22:03Z</time>
      </trkpt>
      <trkpt lat="46.5620665" lon="9.8124262">
        <ele>2018.4252930</ele>
        <time>2009-09-05T12:22:06Z</time>
      </trkpt>
      <trkpt lat="46.5620520" lon="9.8126288">
        <ele>2018.4252930</ele>
        <time>2009-09-05T12:22:09Z</time>
      </trkpt>
      <trkpt lat="46.5621848" lon="9.8132711">
        <ele>2015.5415039</ele>
        <time>2009-09-05T12:22:17Z</time>
      </trkpt>
      <trkpt lat="46.5622309" lon="9.8135919">
        <ele>2014.5800781</ele>
        <time>2009-09-05T12:22:21Z</time>
      </trkpt>
      <trkpt lat="46.5623728" lon="9.8138578">
        <ele>2012.1767578</ele>
        <time>2009-09-05T12:22:25Z</time>
      </trkpt>
      <trkpt lat="46.5627162" lon="9.8143346">
        <ele>2011.6960449</ele>
        <time>2009-09-05T12:22:34Z</time>
      </trkpt>
      <trkpt lat="46.5628388" lon="9.8145035">
        <ele>2011.2153320</ele>
        <time>2009-09-05T12:22:38Z</time>
      </trkpt>
      <trkpt lat="46.5629482" lon="9.8147712">
        <ele>2010.2539063</ele>
        <time>2009-09-05T12:22:43Z</time>
      </trkpt>
      <trkpt lat="46.5629755" lon="9.8150532">
        <ele>2010.2539063</ele>
        <time>2009-09-05T12:22:47Z</time>
      </trkpt>
      <trkpt lat="46.5630571" lon="9.8156325">
        <ele>2009.7731934</ele>
        <time>2009-09-05T12:22:58Z</time>
      </trkpt>
      <trkpt lat="46.5630417" lon="9.8158518">
        <ele>2009.7731934</ele>
        <time>2009-09-05T12:23:02Z</time>
      </trkpt>
      <trkpt lat="46.5630529" lon="9.8160872">
        <ele>2007.8508301</ele>
        <time>2009-09-05T12:23:05Z</time>
      </trkpt>
      <trkpt lat="46.5630768" lon="9.8162370">
        <ele>2007.3701172</ele>
        <time>2009-09-05T12:23:07Z</time>
      </trkpt>
      <trkpt lat="46.5630835" lon="9.8163796">
        <ele>2006.8894043</ele>
        <time>2009-09-05T12:23:09Z</time>
      </trkpt>
      <trkpt lat="46.5631139" lon="9.8167902">
        <ele>2006.8894043</ele>
        <time>2009-09-05T12:23:16Z</time>
      </trkpt>
      <trkpt lat="46.5632341" lon="9.8173608">
        <ele>2003.0441895</ele>
        <time>2009-09-05T12:23:24Z</time>
      </trkpt>
      <trkpt lat="46.5632452" lon="9.8174426">
        <ele>2002.5634766</ele>
        <time>2009-09-05T12:23:25Z</time>
      </trkpt>
      <trkpt lat="46.5632339" lon="9.8177871">
        <ele>2000.1604004</ele>
        <time>2009-09-05T12:23:29Z</time>
      </trkpt>
      <trkpt lat="46.5632186" lon="9.8179685">
        <ele>1998.7182617</ele>
        <time>2009-09-05T12:23:31Z</time>
      </trkpt>
      <trkpt lat="46.5632189" lon="9.8181466">
        <ele>1997.7570801</ele>
        <time>2009-09-05T12:23:33Z</time>
      </trkpt>
      <trkpt lat="46.5632379" lon="9.8183290">
        <ele>1995.3535156</ele>
        <time>2009-09-05T12:23:35Z</time>
      </trkpt>
      <trkpt lat="46.5633119" lon="9.8187673">
        <ele>1996.3151855</ele>
        <time>2009-09-05T12:23:40Z</time>
      </trkpt>
      <trkpt lat="46.5633828" lon="9.8191262">
        <ele>1999.1989746</ele>
        <time>2009-09-05T12:23:49Z</time>
      </trkpt>
      <trkpt lat="46.5633782" lon="9.8192697">
        <ele>2000.6408691</ele>
        <time>2009-09-05T12:23:52Z</time>
      </trkpt>
      <trkpt lat="46.5633907" lon="9.8196110">
        <ele>2001.6022949</ele>
        <time>2009-09-05T12:23:58Z</time>
      </trkpt>
      <trkpt lat="46.5633343" lon="9.8203652">
        <ele>2004.0056152</ele>
        <time>2009-09-05T12:24:12Z</time>
      </trkpt>
      <trkpt lat="46.5633326" lon="9.8204208">
        <ele>2003.5249023</ele>
        <time>2009-09-05T12:24:13Z</time>
      </trkpt>
      <trkpt lat="46.5632518" lon="9.8211391">
        <ele>2000.6408691</ele>
        <time>2009-09-05T12:24:23Z</time>
      </trkpt>
      <trkpt lat="46.5631472" lon="9.8217992">
        <ele>1999.6796875</ele>
        <time>2009-09-05T12:24:35Z</time>
      </trkpt>
      <trkpt lat="46.5630909" lon="9.8222279">
        <ele>1996.7956543</ele>
        <time>2009-09-05T12:24:40Z</time>
      </trkpt>
      <trkpt lat="46.5630342" lon="9.8227879">
        <ele>1995.8342285</ele>
        <time>2009-09-05T12:24:46Z</time>
      </trkpt>
      <trkpt lat="46.5630352" lon="9.8229882">
        <ele>1994.3920898</ele>
        <time>2009-09-05T12:24:49Z</time>
      </trkpt>
      <trkpt lat="46.5629592" lon="9.8233308">
        <ele>1992.9501953</ele>
        <time>2009-09-05T12:24:54Z</time>
      </trkpt>
      <trkpt lat="46.5629715" lon="9.8238104">
        <ele>1988.6245117</ele>
        <time>2009-09-05T12:24:59Z</time>
      </trkpt>
      <trkpt lat="46.5629891" lon="9.8239944">
        <ele>1987.1823730</ele>
        <time>2009-09-05T12:25:01Z</time>
      </trkpt>
      <trkpt lat="46.5630521" lon="9.8243854">
        <ele>1983.8178711</ele>
        <time>2009-09-05T12:25:05Z</time>
      </trkpt>
      <trkpt lat="46.5630809" lon="9.8246588">
        <ele>1981.8952637</ele>
        <time>2009-09-05T12:25:08Z</time>
      </trkpt>
      <trkpt lat="46.5631114" lon="9.8249434">
        <ele>1979.9724121</ele>
        <time>2009-09-05T12:25:11Z</time>
      </trkpt>
      <trkpt lat="46.5632117" lon="9.8253477">
        <ele>1975.6464844</ele>
        <time>2009-09-05T12:25:15Z</time>
      </trkpt>
      <trkpt lat="46.5632320" lon="9.8254509">
        <ele>1973.7238770</ele>
        <time>2009-09-05T12:25:16Z</time>
      </trkpt>
      <trkpt lat="46.5632989" lon="9.8259602">
        <ele>1968.4367676</ele>
        <time>2009-09-05T12:25:21Z</time>
      </trkpt>
      <trkpt lat="46.5633238" lon="9.8261380">
        <ele>1967.4753418</ele>
        <time>2009-09-05T12:25:23Z</time>
      </trkpt>
      <trkpt lat="46.5633291" lon="9.8264389">
        <ele>1964.1108398</ele>
        <time>2009-09-05T12:25:27Z</time>
      </trkpt>
      <trkpt lat="46.5633367" lon="9.8266738">
        <ele>1960.7460938</ele>
        <time>2009-09-05T12:25:30Z</time>
      </trkpt>
      <trkpt lat="46.5633294" lon="9.8268667">
        <ele>1957.8623047</ele>
        <time>2009-09-05T12:25:32Z</time>
      </trkpt>
      <trkpt lat="46.5632067" lon="9.8274793">
        <ele>1955.9394531</ele>
        <time>2009-09-05T12:25:38Z</time>
      </trkpt>
      <trkpt lat="46.5631401" lon="9.8279961">
        <ele>1952.0942383</ele>
        <time>2009-09-05T12:25:43Z</time>
      </trkpt>
      <trkpt lat="46.5631311" lon="9.8281120">
        <ele>1951.1330566</ele>
        <time>2009-09-05T12:25:44Z</time>
      </trkpt>
      <trkpt lat="46.5631453" lon="9.8285091">
        <ele>1952.0942383</ele>
        <time>2009-09-05T12:25:48Z</time>
      </trkpt>
      <trkpt lat="46.5631205" lon="9.8288008">
        <ele>1947.7683105</ele>
        <time>2009-09-05T12:25:52Z</time>
      </trkpt>
      <trkpt lat="46.5631289" lon="9.8290623">
        <ele>1943.4423828</ele>
        <time>2009-09-05T12:25:55Z</time>
      </trkpt>
      <trkpt lat="46.5631531" lon="9.8293219">
        <ele>1941.5197754</ele>
        <time>2009-09-05T12:25:58Z</time>
      </trkpt>
      <trkpt lat="46.5630659" lon="9.8296723">
        <ele>1936.7131348</ele>
        <time>2009-09-05T12:26:02Z</time>
      </trkpt>
      <trkpt lat="46.5629876" lon="9.8300353">
        <ele>1933.3486328</ele>
        <time>2009-09-05T12:26:06Z</time>
      </trkpt>
      <trkpt lat="46.5629751" lon="9.8301258">
        <ele>1933.3486328</ele>
        <time>2009-09-05T12:26:07Z</time>
      </trkpt>
      <trkpt lat="46.5629517" lon="9.8304213">
        <ele>1931.9064941</ele>
        <time>2009-09-05T12:26:10Z</time>
      </trkpt>
      <trkpt lat="46.5629106" lon="9.8307667">
        <ele>1929.0224609</ele>
        <time>2009-09-05T12:26:14Z</time>
      </trkpt>
      <trkpt lat="46.5628899" lon="9.8309491">
        <ele>1928.0612793</ele>
        <time>2009-09-05T12:26:16Z</time>
      </trkpt>
      <trkpt lat="46.5628732" lon="9.8311887">
        <ele>1924.2160645</ele>
        <time>2009-09-05T12:26:19Z</time>
      </trkpt>
      <trkpt lat="46.5628682" lon="9.8312619">
        <ele>1922.7741699</ele>
        <time>2009-09-05T12:26:20Z</time>
      </trkpt>
      <trkpt lat="46.5628776" lon="9.8315717">
        <ele>1917.4868164</ele>
        <time>2009-09-05T12:26:24Z</time>
      </trkpt>
      <trkpt lat="46.5629095" lon="9.8317451">
        <ele>1915.0834961</ele>
        <time>2009-09-05T12:26:26Z</time>
      </trkpt>
      <trkpt lat="46.5629545" lon="9.8319750">
        <ele>1912.1994629</ele>
        <time>2009-09-05T12:26:29Z</time>
      </trkpt>
      <trkpt lat="46.5629624" lon="9.8322484">
        <ele>1906.9123535</ele>
        <time>2009-09-05T12:26:33Z</time>
      </trkpt>
      <trkpt lat="46.5629175" lon="9.8323973">
        <ele>1905.4704590</ele>
        <time>2009-09-05T12:26:35Z</time>
      </trkpt>
      <trkpt lat="46.5628399" lon="9.8326130">
        <ele>1902.5864258</ele>
        <time>2009-09-05T12:26:38Z</time>
      </trkpt>
      <trkpt lat="46.5626255" lon="9.8328290">
        <ele>1898.2602539</ele>
        <time>2009-09-05T12:26:43Z</time>
      </trkpt>
      <trkpt lat="46.5624677" lon="9.8329662">
        <ele>1895.8571777</ele>
        <time>2009-09-05T12:26:47Z</time>
      </trkpt>
      <trkpt lat="46.5624138" lon="9.8331200">
        <ele>1893.4538574</ele>
        <time>2009-09-05T12:26:49Z</time>
      </trkpt>
      <trkpt lat="46.5622964" lon="9.8334134">
        <ele>1890.0893555</ele>
        <time>2009-09-05T12:26:53Z</time>
      </trkpt>
      <trkpt lat="46.5622106" lon="9.8337465">
        <ele>1889.1279297</ele>
        <time>2009-09-05T12:26:57Z</time>
      </trkpt>
      <trkpt lat="46.5621792" lon="9.8343328">
        <ele>1888.1667480</ele>
        <time>2009-09-05T12:27:04Z</time>
      </trkpt>
      <trkpt lat="46.5621744" lon="9.8346113">
        <ele>1886.2441406</ele>
        <time>2009-09-05T12:27:07Z</time>
      </trkpt>
      <trkpt lat="46.5621609" lon="9.8348726">
        <ele>1886.7246094</ele>
        <time>2009-09-05T12:27:10Z</time>
      </trkpt>
      <trkpt lat="46.5620630" lon="9.8354793">
        <ele>1882.3986816</ele>
        <time>2009-09-05T12:27:16Z</time>
      </trkpt>
      <trkpt lat="46.5620103" lon="9.8357048">
        <ele>1879.0339355</ele>
        <time>2009-09-05T12:27:18Z</time>
      </trkpt>
      <trkpt lat="46.5619618" lon="9.8359271">
        <ele>1878.5534668</ele>
        <time>2009-09-05T12:27:20Z</time>
      </trkpt>
      <trkpt lat="46.5618014" lon="9.8366104">
        <ele>1879.5146484</ele>
        <time>2009-09-05T12:27:27Z</time>
      </trkpt>
      <trkpt lat="46.5617774" lon="9.8368757">
        <ele>1879.9953613</ele>
        <time>2009-09-05T12:27:30Z</time>
      </trkpt>
      <trkpt lat="46.5617927" lon="9.8374299">
        <ele>1877.1115723</ele>
        <time>2009-09-05T12:27:37Z</time>
      </trkpt>
      <trkpt lat="46.5617910" lon="9.8375176">
        <ele>1877.1115723</ele>
        <time>2009-09-05T12:27:38Z</time>
      </trkpt>
      <trkpt lat="46.5618085" lon="9.8377036">
        <ele>1875.1887207</ele>
        <time>2009-09-05T12:27:40Z</time>
      </trkpt>
      <trkpt lat="46.5617906" lon="9.8379927">
        <ele>1873.2663574</ele>
        <time>2009-09-05T12:27:43Z</time>
      </trkpt>
      <trkpt lat="46.5617952" lon="9.8381703">
        <ele>1872.3049316</ele>
        <time>2009-09-05T12:27:45Z</time>
      </trkpt>
      <trkpt lat="46.5618052" lon="9.8384424">
        <ele>1869.4211426</ele>
        <time>2009-09-05T12:27:48Z</time>
      </trkpt>
      <trkpt lat="46.5617890" lon="9.8388102">
        <ele>1864.1335449</ele>
        <time>2009-09-05T12:27:52Z</time>
      </trkpt>
      <trkpt lat="46.5617811" lon="9.8388983">
        <ele>1863.6528320</ele>
        <time>2009-09-05T12:27:53Z</time>
      </trkpt>
      <trkpt lat="46.5618175" lon="9.8392980">
        <ele>1858.8464355</ele>
        <time>2009-09-05T12:27:57Z</time>
      </trkpt>
      <trkpt lat="46.5618254" lon="9.8394908">
        <ele>1857.4045410</ele>
        <time>2009-09-05T12:27:59Z</time>
      </trkpt>
      <trkpt lat="46.5617278" lon="9.8398105">
        <ele>1853.0786133</ele>
        <time>2009-09-05T12:28:03Z</time>
      </trkpt>
      <trkpt lat="46.5616803" lon="9.8398639">
        <ele>1853.0786133</ele>
        <time>2009-09-05T12:28:04Z</time>
      </trkpt>
      <trkpt lat="46.5616242" lon="9.8399180">
        <ele>1852.5979004</ele>
        <time>2009-09-05T12:28:05Z</time>
      </trkpt>
      <trkpt lat="46.5614616" lon="9.8400433">
        <ele>1850.6750488</ele>
        <time>2009-09-05T12:28:08Z</time>
      </trkpt>
      <trkpt lat="46.5612822" lon="9.8401897">
        <ele>1849.2331543</ele>
        <time>2009-09-05T12:28:11Z</time>
      </trkpt>
      <trkpt lat="46.5611043" lon="9.8403848">
        <ele>1849.7138672</ele>
        <time>2009-09-05T12:28:14Z</time>
      </trkpt>
      <trkpt lat="46.5609523" lon="9.8407072">
        <ele>1848.7524414</ele>
        <time>2009-09-05T12:28:18Z</time>
      </trkpt>
      <trkpt lat="46.5609003" lon="9.8409583">
        <ele>1847.7912598</ele>
        <time>2009-09-05T12:28:21Z</time>
      </trkpt>
      <trkpt lat="46.5607970" lon="9.8412198">
        <ele>1848.2717285</ele>
        <time>2009-09-05T12:28:25Z</time>
      </trkpt>
      <trkpt lat="46.5606517" lon="9.8418813">
        <ele>1848.7524414</ele>
        <time>2009-09-05T12:28:37Z</time>
      </trkpt>
      <trkpt lat="46.5606887" lon="9.8423396">
        <ele>1847.7912598</ele>
        <time>2009-09-05T12:28:45Z</time>
      </trkpt>
      <trkpt lat="46.5606499" lon="9.8424310">
        <ele>1846.3493652</ele>
        <time>2009-09-05T12:28:48Z</time>
      </trkpt>
      <trkpt lat="46.5606190" lon="9.8424582">
        <ele>1845.8686523</ele>
        <time>2009-09-05T12:28:49Z</time>
      </trkpt>
      <trkpt lat="46.5604518" lon="9.8425819">
        <ele>1842.0234375</ele>
        <time>2009-09-05T12:28:53Z</time>
      </trkpt>
      <trkpt lat="46.5602226" lon="9.8427370">
        <ele>1838.1782227</ele>
        <time>2009-09-05T12:28:58Z</time>
      </trkpt>
      <trkpt lat="46.5599963" lon="9.8427880">
        <ele>1835.2939453</ele>
        <time>2009-09-05T12:29:03Z</time>
      </trkpt>
      <trkpt lat="46.5599485" lon="9.8429026">
        <ele>1833.8520508</ele>
        <time>2009-09-05T12:29:05Z</time>
      </trkpt>
      <trkpt lat="46.5598599" lon="9.8431618">
        <ele>1830.0068359</ele>
        <time>2009-09-05T12:29:09Z</time>
      </trkpt>
      <trkpt lat="46.5596909" lon="9.8433448">
        <ele>1828.5649414</ele>
        <time>2009-09-05T12:29:13Z</time>
      </trkpt>
      <trkpt lat="46.5592598" lon="9.8436435">
        <ele>1827.6035156</ele>
        <time>2009-09-05T12:29:22Z</time>
      </trkpt>
      <trkpt lat="46.5592173" lon="9.8436850">
        <ele>1827.1230469</ele>
        <time>2009-09-05T12:29:23Z</time>
      </trkpt>
      <trkpt lat="46.5591461" lon="9.8440652">
        <ele>1826.1616211</ele>
        <time>2009-09-05T12:29:28Z</time>
      </trkpt>
      <trkpt lat="46.5590809" lon="9.8447005">
        <ele>1825.6809082</ele>
        <time>2009-09-05T12:29:38Z</time>
      </trkpt>
      <trkpt lat="46.5590570" lon="9.8449379">
        <ele>1824.7197266</ele>
        <time>2009-09-05T12:29:43Z</time>
      </trkpt>
      <trkpt lat="46.5590344" lon="9.8450702">
        <ele>1824.2390137</ele>
        <time>2009-09-05T12:29:45Z</time>
      </trkpt>
      <trkpt lat="46.5589170" lon="9.8456167">
        <ele>1822.7971191</ele>
        <time>2009-09-05T12:29:56Z</time>
      </trkpt>
      <trkpt lat="46.5587671" lon="9.8461558">
        <ele>1819.9128418</ele>
        <time>2009-09-05T12:30:06Z</time>
      </trkpt>
      <trkpt lat="46.5585998" lon="9.8467064">
        <ele>1817.9902344</ele>
        <time>2009-09-05T12:30:17Z</time>
      </trkpt>
      <trkpt lat="46.5585799" lon="9.8467642">
        <ele>1817.9902344</ele>
        <time>2009-09-05T12:30:19Z</time>
      </trkpt>
      <trkpt lat="46.5584008" lon="9.8473374">
        <ele>1815.5871582</ele>
        <time>2009-09-05T12:30:30Z</time>
      </trkpt>
      <trkpt lat="46.5581104" lon="9.8484461">
        <ele>1814.6257324</ele>
        <time>2009-09-05T12:30:46Z</time>
      </trkpt>
      <trkpt lat="46.5579293" lon="9.8489621">
        <ele>1812.2224121</ele>
        <time>2009-09-05T12:30:58Z</time>
      </trkpt>
      <trkpt lat="46.5578177" lon="9.8495412">
        <ele>1809.3386230</ele>
        <time>2009-09-05T12:31:09Z</time>
      </trkpt>
      <trkpt lat="46.5577441" lon="9.8500522">
        <ele>1807.4160156</ele>
        <time>2009-09-05T12:31:15Z</time>
      </trkpt>
      <trkpt lat="46.5576561" lon="9.8508268">
        <ele>1806.9353027</ele>
        <time>2009-09-05T12:31:26Z</time>
      </trkpt>
      <trkpt lat="46.5576821" lon="9.8508371">
        <ele>1806.9353027</ele>
        <time>2009-09-05T12:31:28Z</time>
      </trkpt>
      <trkpt lat="46.5577060" lon="9.8508216">
        <ele>1805.9738770</ele>
        <time>2009-09-05T12:31:30Z</time>
      </trkpt>
      <trkpt lat="46.5577057" lon="9.8507558">
        <ele>1806.9353027</ele>
        <time>2009-09-05T12:31:50Z</time>
      </trkpt>
      <trkpt lat="46.5577064" lon="9.8507584">
        <ele>1806.9353027</ele>
        <time>2009-09-05T12:32:31Z</time>
      </trkpt>
      <trkpt lat="46.5576636" lon="9.8508722">
        <ele>1806.4545898</ele>
        <time>2009-09-05T12:32:36Z</time>
      </trkpt>
      <trkpt lat="46.5575639" lon="9.8514922">
        <ele>1805.4934082</ele>
        <time>2009-09-05T12:32:50Z</time>
      </trkpt>
      <trkpt lat="46.5575227" lon="9.8521708">
        <ele>1802.6091309</ele>
        <time>2009-09-05T12:33:02Z</time>
      </trkpt>
      <trkpt lat="46.5573558" lon="9.8533495">
        <ele>1799.7253418</ele>
        <time>2009-09-05T12:33:16Z</time>
      </trkpt>
      <trkpt lat="46.5572281" lon="9.8538297">
        <ele>1798.7639160</ele>
        <time>2009-09-05T12:33:21Z</time>
      </trkpt>
      <trkpt lat="46.5569911" lon="9.8546312">
        <ele>1795.3994141</ele>
        <time>2009-09-05T12:33:29Z</time>
      </trkpt>
      <trkpt lat="46.5564990" lon="9.8556061">
        <ele>1793.9575195</ele>
        <time>2009-09-05T12:33:40Z</time>
      </trkpt>
      <trkpt lat="46.5561988" lon="9.8560158">
        <ele>1791.5541992</ele>
        <time>2009-09-05T12:33:45Z</time>
      </trkpt>
      <trkpt lat="46.5561183" lon="9.8562169">
        <ele>1791.0734863</ele>
        <time>2009-09-05T12:33:47Z</time>
      </trkpt>
      <trkpt lat="46.5560448" lon="9.8566640">
        <ele>1790.5927734</ele>
        <time>2009-09-05T12:33:51Z</time>
      </trkpt>
      <trkpt lat="46.5560472" lon="9.8571359">
        <ele>1790.1123047</ele>
        <time>2009-09-05T12:33:55Z</time>
      </trkpt>
      <trkpt lat="46.5558510" lon="9.8581088">
        <ele>1787.2280273</ele>
        <time>2009-09-05T12:34:04Z</time>
      </trkpt>
      <trkpt lat="46.5554378" lon="9.8594729">
        <ele>1784.3442383</ele>
        <time>2009-09-05T12:34:17Z</time>
      </trkpt>
      <trkpt lat="46.5553791" lon="9.8596812">
        <ele>1783.8635254</ele>
        <time>2009-09-05T12:34:19Z</time>
      </trkpt>
      <trkpt lat="46.5552662" lon="9.8609354">
        <ele>1781.9409180</ele>
        <time>2009-09-05T12:34:32Z</time>
      </trkpt>
      <trkpt lat="46.5552597" lon="9.8610333">
        <ele>1781.9409180</ele>
        <time>2009-09-05T12:34:33Z</time>
      </trkpt>
      <trkpt lat="46.5552014" lon="9.8627625">
        <ele>1779.0568848</ele>
        <time>2009-09-05T12:34:50Z</time>
      </trkpt>
      <trkpt lat="46.5550441" lon="9.8637684">
        <ele>1777.1345215</ele>
        <time>2009-09-05T12:35:00Z</time>
      </trkpt>
      <trkpt lat="46.5549687" lon="9.8645551">
        <ele>1774.7312012</ele>
        <time>2009-09-05T12:35:08Z</time>
      </trkpt>
      <trkpt lat="46.5548477" lon="9.8658158">
        <ele>1771.8469238</ele>
        <time>2009-09-05T12:35:20Z</time>
      </trkpt>
      <trkpt lat="46.5547339" lon="9.8662771">
        <ele>1768.9631348</ele>
        <time>2009-09-05T12:35:24Z</time>
      </trkpt>
      <trkpt lat="46.5540370" lon="9.8675655">
        <ele>1766.0791016</ele>
        <time>2009-09-05T12:35:37Z</time>
      </trkpt>
      <trkpt lat="46.5533957" lon="9.8688882">
        <ele>1763.1953125</ele>
        <time>2009-09-05T12:35:51Z</time>
      </trkpt>
      <trkpt lat="46.5528438" lon="9.8702846">
        <ele>1761.2727051</ele>
        <time>2009-09-05T12:36:05Z</time>
      </trkpt>
      <trkpt lat="46.5525021" lon="9.8710990">
        <ele>1759.8305664</ele>
        <time>2009-09-05T12:36:14Z</time>
      </trkpt>
      <trkpt lat="46.5523156" lon="9.8713992">
        <ele>1758.3886719</ele>
        <time>2009-09-05T12:36:18Z</time>
      </trkpt>
      <trkpt lat="46.5521415" lon="9.8716163">
        <ele>1757.4274902</ele>
        <time>2009-09-05T12:36:21Z</time>
      </trkpt>
      <trkpt lat="46.5520229" lon="9.8723278">
        <ele>1760.3112793</ele>
        <time>2009-09-05T12:36:29Z</time>
      </trkpt>
      <trkpt lat="46.5520145" lon="9.8724557">
        <ele>1761.2727051</ele>
        <time>2009-09-05T12:36:31Z</time>
      </trkpt>
      <trkpt lat="46.5519981" lon="9.8725491">
        <ele>1761.7534180</ele>
        <time>2009-09-05T12:36:33Z</time>
      </trkpt>
      <trkpt lat="46.5519944" lon="9.8727397">
        <ele>1762.7145996</ele>
        <time>2009-09-05T12:36:39Z</time>
      </trkpt>
      <trkpt lat="46.5520478" lon="9.8728184">
        <ele>1763.1953125</ele>
        <time>2009-09-05T12:36:43Z</time>
      </trkpt>
      <trkpt lat="46.5520841" lon="9.8728194">
        <ele>1763.1953125</ele>
        <time>2009-09-05T12:37:06Z</time>
      </trkpt>
      <trkpt lat="46.5520852" lon="9.8728167">
        <ele>1763.6757813</ele>
        <time>2009-09-05T12:37:21Z</time>
      </trkpt>
      <trkpt lat="46.5520550" lon="9.8731246">
        <ele>1759.8305664</ele>
        <time>2009-09-05T12:37:28Z</time>
      </trkpt>
      <trkpt lat="46.5520179" lon="9.8733669">
        <ele>1756.4660645</ele>
        <time>2009-09-05T12:37:31Z</time>
      </trkpt>
      <trkpt lat="46.5519406" lon="9.8738099">
        <ele>1752.6206055</ele>
        <time>2009-09-05T12:37:35Z</time>
      </trkpt>
      <trkpt lat="46.5518889" lon="9.8741865">
        <ele>1750.2175293</ele>
        <time>2009-09-05T12:37:38Z</time>
      </trkpt>
      <trkpt lat="46.5518841" lon="9.8743108">
        <ele>1750.2175293</ele>
        <time>2009-09-05T12:37:39Z</time>
      </trkpt>
      <trkpt lat="46.5518879" lon="9.8745378">
        <ele>1750.6979980</ele>
        <time>2009-09-05T12:37:41Z</time>
      </trkpt>
      <trkpt lat="46.5521452" lon="9.8758437">
        <ele>1748.2946777</ele>
        <time>2009-09-05T12:37:53Z</time>
      </trkpt>
      <trkpt lat="46.5521460" lon="9.8764324">
        <ele>1746.3723145</ele>
        <time>2009-09-05T12:37:58Z</time>
      </trkpt>
      <trkpt lat="46.5521491" lon="9.8768093">
        <ele>1747.3334961</ele>
        <time>2009-09-05T12:38:02Z</time>
      </trkpt>
      <trkpt lat="46.5521882" lon="9.8768532">
        <ele>1747.3334961</ele>
        <time>2009-09-05T12:38:03Z</time>
      </trkpt>
      <trkpt lat="46.5523632" lon="9.8770384">
        <ele>1746.3723145</ele>
        <time>2009-09-05T12:38:07Z</time>
      </trkpt>
      <trkpt lat="46.5526580" lon="9.8780065">
        <ele>1742.5270996</ele>
        <time>2009-09-05T12:38:18Z</time>
      </trkpt>
      <trkpt lat="46.5526606" lon="9.8783385">
        <ele>1741.0849609</ele>
        <time>2009-09-05T12:38:21Z</time>
      </trkpt>
      <trkpt lat="46.5526544" lon="9.8789874">
        <ele>1740.1237793</ele>
        <time>2009-09-05T12:38:27Z</time>
      </trkpt>
      <trkpt lat="46.5525046" lon="9.8797675">
        <ele>1737.7202148</ele>
        <time>2009-09-05T12:38:34Z</time>
      </trkpt>
      <trkpt lat="46.5524557" lon="9.8803678">
        <ele>1735.3168945</ele>
        <time>2009-09-05T12:38:39Z</time>
      </trkpt>
      <trkpt lat="46.5525163" lon="9.8810668">
        <ele>1734.3557129</ele>
        <time>2009-09-05T12:38:45Z</time>
      </trkpt>
      <trkpt lat="46.5526767" lon="9.8822549">
        <ele>1731.9523926</ele>
        <time>2009-09-05T12:38:56Z</time>
      </trkpt>
      <trkpt lat="46.5527381" lon="9.8827309">
        <ele>1731.9523926</ele>
        <time>2009-09-05T12:39:07Z</time>
      </trkpt>
      <trkpt lat="46.5527181" lon="9.8830398">
        <ele>1730.9912109</ele>
        <time>2009-09-05T12:39:18Z</time>
      </trkpt>
      <trkpt lat="46.5527399" lon="9.8834161">
        <ele>1730.5104980</ele>
        <time>2009-09-05T12:39:28Z</time>
      </trkpt>
      <trkpt lat="46.5527181" lon="9.8841172">
        <ele>1728.1071777</ele>
        <time>2009-09-05T12:39:42Z</time>
      </trkpt>
      <trkpt lat="46.5527193" lon="9.8844102">
        <ele>1727.6264648</ele>
        <time>2009-09-05T12:39:49Z</time>
      </trkpt>
      <trkpt lat="46.5526865" lon="9.8845013">
        <ele>1727.1459961</ele>
        <time>2009-09-05T12:39:53Z</time>
      </trkpt>
      <trkpt lat="46.5525878" lon="9.8850741">
        <ele>1726.1845703</ele>
        <time>2009-09-05T12:40:06Z</time>
      </trkpt>
      <trkpt lat="46.5525554" lon="9.8852201">
        <ele>1726.1845703</ele>
        <time>2009-09-05T12:40:15Z</time>
      </trkpt>
      <trkpt lat="46.5525560" lon="9.8852197">
        <ele>1726.1845703</ele>
        <time>2009-09-05T12:40:38Z</time>
      </trkpt>
      <trkpt lat="46.5525306" lon="9.8856913">
        <ele>1725.2231445</ele>
        <time>2009-09-05T12:40:51Z</time>
      </trkpt>
      <trkpt lat="46.5525136" lon="9.8859821">
        <ele>1724.7426758</ele>
        <time>2009-09-05T12:40:56Z</time>
      </trkpt>
      <trkpt lat="46.5525472" lon="9.8862203">
        <ele>1724.2619629</ele>
        <time>2009-09-05T12:41:00Z</time>
      </trkpt>
      <trkpt lat="46.5527250" lon="9.8866670">
        <ele>1722.8198242</ele>
        <time>2009-09-05T12:41:09Z</time>
      </trkpt>
      <trkpt lat="46.5527735" lon="9.8870596">
        <ele>1723.3005371</ele>
        <time>2009-09-05T12:41:19Z</time>
      </trkpt>
      <trkpt lat="46.5525782" lon="9.8872042">
        <ele>1722.3391113</ele>
        <time>2009-09-05T12:41:27Z</time>
      </trkpt>
      <trkpt lat="46.5525322" lon="9.8872320">
        <ele>1722.3391113</ele>
        <time>2009-09-05T12:41:28Z</time>
      </trkpt>
      <trkpt lat="46.5519817" lon="9.8874402">
        <ele>1720.8972168</ele>
        <time>2009-09-05T12:41:43Z</time>
      </trkpt>
      <trkpt lat="46.5518826" lon="9.8878660">
        <ele>1720.8972168</ele>
        <time>2009-09-05T12:41:52Z</time>
      </trkpt>
      <trkpt lat="46.5517724" lon="9.8884028">
        <ele>1718.4938965</ele>
        <time>2009-09-05T12:42:00Z</time>
      </trkpt>
      <trkpt lat="46.5516626" lon="9.8887942">
        <ele>1718.9746094</ele>
        <time>2009-09-05T12:42:05Z</time>
      </trkpt>
      <trkpt lat="46.5515660" lon="9.8889713">
        <ele>1719.4553223</ele>
        <time>2009-09-05T12:42:12Z</time>
      </trkpt>
      <trkpt lat="46.5515603" lon="9.8889414">
        <ele>1719.9357910</ele>
        <time>2009-09-05T12:42:36Z</time>
      </trkpt>
      <trkpt lat="46.5515602" lon="9.8889408">
        <ele>1718.9746094</ele>
        <time>2009-09-05T12:42:38Z</time>
      </trkpt>
      <trkpt lat="46.5515036" lon="9.8889326">
        <ele>1718.0131836</ele>
        <time>2009-09-05T12:43:08Z</time>
      </trkpt>
      <trkpt lat="46.5511713" lon="9.8887215">
        <ele>1718.0131836</ele>
        <time>2009-09-05T12:43:20Z</time>
      </trkpt>
      <trkpt lat="46.5506809" lon="9.8884477">
        <ele>1719.9357910</ele>
        <time>2009-09-05T12:43:33Z</time>
      </trkpt>
      <trkpt lat="46.5500296" lon="9.8881284">
        <ele>1720.4165039</ele>
        <time>2009-09-05T12:43:50Z</time>
      </trkpt>
      <trkpt lat="46.5499239" lon="9.8880557">
        <ele>1719.9357910</ele>
        <time>2009-09-05T12:43:53Z</time>
      </trkpt>
      <trkpt lat="46.5491824" lon="9.8876739">
        <ele>1720.4165039</ele>
        <time>2009-09-05T12:44:10Z</time>
      </trkpt>
      <trkpt lat="46.5483789" lon="9.8872308">
        <ele>1718.9746094</ele>
        <time>2009-09-05T12:44:26Z</time>
      </trkpt>
      <trkpt lat="46.5479430" lon="9.8870078">
        <ele>1718.0131836</ele>
        <time>2009-09-05T12:44:34Z</time>
      </trkpt>
      <trkpt lat="46.5478278" lon="9.8869528">
        <ele>1718.9746094</ele>
        <time>2009-09-05T12:44:36Z</time>
      </trkpt>
      <trkpt lat="46.5470307" lon="9.8864741">
        <ele>1718.4938965</ele>
        <time>2009-09-05T12:44:51Z</time>
      </trkpt>
      <trkpt lat="46.5465223" lon="9.8855544">
        <ele>1718.0131836</ele>
        <time>2009-09-05T12:45:05Z</time>
      </trkpt>
      <trkpt lat="46.5459437" lon="9.8846168">
        <ele>1717.0520020</ele>
        <time>2009-09-05T12:45:20Z</time>
      </trkpt>
      <trkpt lat="46.5456102" lon="9.8842509">
        <ele>1715.6101074</ele>
        <time>2009-09-05T12:45:27Z</time>
      </trkpt>
      <trkpt lat="46.5452435" lon="9.8838199">
        <ele>1717.5324707</ele>
        <time>2009-09-05T12:45:35Z</time>
      </trkpt>
      <trkpt lat="46.5450049" lon="9.8834891">
        <ele>1715.6101074</ele>
        <time>2009-09-05T12:45:40Z</time>
      </trkpt>
      <trkpt lat="46.5443102" lon="9.8826971">
        <ele>1716.5712891</ele>
        <time>2009-09-05T12:45:54Z</time>
      </trkpt>
      <trkpt lat="46.5434379" lon="9.8824679">
        <ele>1716.5712891</ele>
        <time>2009-09-05T12:46:08Z</time>
      </trkpt>
      <trkpt lat="46.5426045" lon="9.8819835">
        <ele>1715.6101074</ele>
        <time>2009-09-05T12:46:24Z</time>
      </trkpt>
      <trkpt lat="46.5424106" lon="9.8818003">
        <ele>1716.0905762</ele>
        <time>2009-09-05T12:46:28Z</time>
      </trkpt>
      <trkpt lat="46.5422478" lon="9.8816811">
        <ele>1717.0520020</ele>
        <time>2009-09-05T12:46:31Z</time>
      </trkpt>
      <trkpt lat="46.5421451" lon="9.8815827">
        <ele>1717.0520020</ele>
        <time>2009-09-05T12:46:33Z</time>
      </trkpt>
      <trkpt lat="46.5413668" lon="9.8807725">
        <ele>1716.0905762</ele>
        <time>2009-09-05T12:46:50Z</time>
      </trkpt>
      <trkpt lat="46.5405264" lon="9.8801106">
        <ele>1717.0520020</ele>
        <time>2009-09-05T12:47:06Z</time>
      </trkpt>
      <trkpt lat="46.5398626" lon="9.8793677">
        <ele>1718.0131836</ele>
        <time>2009-09-05T12:47:20Z</time>
      </trkpt>
      <trkpt lat="46.5393146" lon="9.8781663">
        <ele>1716.5712891</ele>
        <time>2009-09-05T12:47:36Z</time>
      </trkpt>
      <trkpt lat="46.5389776" lon="9.8774594">
        <ele>1715.1293945</ele>
        <time>2009-09-05T12:47:45Z</time>
      </trkpt>
      <trkpt lat="46.5384023" lon="9.8767211">
        <ele>1717.0520020</ele>
        <time>2009-09-05T12:47:58Z</time>
      </trkpt>
      <trkpt lat="46.5377068" lon="9.8759211">
        <ele>1717.0520020</ele>
        <time>2009-09-05T12:48:14Z</time>
      </trkpt>
      <trkpt lat="46.5370247" lon="9.8749469">
        <ele>1720.4165039</ele>
        <time>2009-09-05T12:48:31Z</time>
      </trkpt>
      <trkpt lat="46.5365596" lon="9.8739703">
        <ele>1720.8972168</ele>
        <time>2009-09-05T12:48:48Z</time>
      </trkpt>
      <trkpt lat="46.5364769" lon="9.8737459">
        <ele>1722.3391113</ele>
        <time>2009-09-05T12:48:52Z</time>
      </trkpt>
      <trkpt lat="46.5363390" lon="9.8732849">
        <ele>1722.8198242</ele>
        <time>2009-09-05T12:49:00Z</time>
      </trkpt>
      <trkpt lat="46.5361423" lon="9.8729237">
        <ele>1723.7810059</ele>
        <time>2009-09-05T12:49:08Z</time>
      </trkpt>
      <trkpt lat="46.5358284" lon="9.8725293">
        <ele>1724.7426758</ele>
        <time>2009-09-05T12:49:18Z</time>
      </trkpt>
      <trkpt lat="46.5356938" lon="9.8724573">
        <ele>1725.2231445</ele>
        <time>2009-09-05T12:49:21Z</time>
      </trkpt>
      <trkpt lat="46.5355240" lon="9.8723384">
        <ele>1726.1845703</ele>
        <time>2009-09-05T12:49:25Z</time>
      </trkpt>
      <trkpt lat="46.5351512" lon="9.8720183">
        <ele>1727.1459961</ele>
        <time>2009-09-05T12:49:34Z</time>
      </trkpt>
      <trkpt lat="46.5349649" lon="9.8717301">
        <ele>1728.1071777</ele>
        <time>2009-09-05T12:49:40Z</time>
      </trkpt>
      <trkpt lat="46.5346879" lon="9.8713043">
        <ele>1729.5490723</ele>
        <time>2009-09-05T12:49:51Z</time>
      </trkpt>
      <trkpt lat="46.5344764" lon="9.8710242">
        <ele>1730.5104980</ele>
        <time>2009-09-05T12:50:04Z</time>
      </trkpt>
      <trkpt lat="46.5343213" lon="9.8707608">
        <ele>1730.9912109</ele>
        <time>2009-09-05T12:50:15Z</time>
      </trkpt>
      <trkpt lat="46.5341910" lon="9.8706920">
        <ele>1731.4716797</ele>
        <time>2009-09-05T12:50:20Z</time>
      </trkpt>
      <trkpt lat="46.5338578" lon="9.8704551">
        <ele>1731.4716797</ele>
        <time>2009-09-05T12:50:35Z</time>
      </trkpt>
      <trkpt lat="46.5337001" lon="9.8702982">
        <ele>1731.4716797</ele>
        <time>2009-09-05T12:50:41Z</time>
      </trkpt>
      <trkpt lat="46.5336044" lon="9.8701247">
        <ele>1730.9912109</ele>
        <time>2009-09-05T12:50:45Z</time>
      </trkpt>
      <trkpt lat="46.5335103" lon="9.8700341">
        <ele>1730.5104980</ele>
        <time>2009-09-05T12:50:47Z</time>
      </trkpt>
      <trkpt lat="46.5333870" lon="9.8698608">
        <ele>1729.5490723</ele>
        <time>2009-09-05T12:50:51Z</time>
      </trkpt>
      <trkpt lat="46.5332471" lon="9.8696075">
        <ele>1729.0683594</ele>
        <time>2009-09-05T12:50:56Z</time>
      </trkpt>
      <trkpt lat="46.5331614" lon="9.8693982">
        <ele>1727.6264648</ele>
        <time>2009-09-05T12:50:59Z</time>
      </trkpt>
      <trkpt lat="46.5327082" lon="9.8691314">
        <ele>1727.6264648</ele>
        <time>2009-09-05T12:51:09Z</time>
      </trkpt>
      <trkpt lat="46.5326074" lon="9.8691000">
        <ele>1728.5878906</ele>
        <time>2009-09-05T12:51:12Z</time>
      </trkpt>
      <trkpt lat="46.5324712" lon="9.8692511">
        <ele>1727.6264648</ele>
        <time>2009-09-05T12:51:16Z</time>
      </trkpt>
      <trkpt lat="46.5323556" lon="9.8694294">
        <ele>1725.7038574</ele>
        <time>2009-09-05T12:51:19Z</time>
      </trkpt>
      <trkpt lat="46.5321789" lon="9.8697406">
        <ele>1721.8583984</ele>
        <time>2009-09-05T12:51:23Z</time>
      </trkpt>
      <trkpt lat="46.5319077" lon="9.8701700">
        <ele>1718.9746094</ele>
        <time>2009-09-05T12:51:28Z</time>
      </trkpt>
      <trkpt lat="46.5317646" lon="9.8704190">
        <ele>1718.4938965</ele>
        <time>2009-09-05T12:51:31Z</time>
      </trkpt>
      <trkpt lat="46.5316105" lon="9.8705216">
        <ele>1717.5324707</ele>
        <time>2009-09-05T12:51:35Z</time>
      </trkpt>
      <trkpt lat="46.5313019" lon="9.8702986">
        <ele>1718.0131836</ele>
        <time>2009-09-05T12:51:44Z</time>
      </trkpt>
      <trkpt lat="46.5309665" lon="9.8694847">
        <ele>1719.9357910</ele>
        <time>2009-09-05T12:52:00Z</time>
      </trkpt>
      <trkpt lat="46.5306168" lon="9.8685550">
        <ele>1722.3391113</ele>
        <time>2009-09-05T12:52:17Z</time>
      </trkpt>
      <trkpt lat="46.5305297" lon="9.8683433">
        <ele>1723.3005371</ele>
        <time>2009-09-05T12:52:21Z</time>
      </trkpt>
      <trkpt lat="46.5305051" lon="9.8679744">
        <ele>1722.8198242</ele>
        <time>2009-09-05T12:52:27Z</time>
      </trkpt>
      <trkpt lat="46.5305197" lon="9.8676830">
        <ele>1724.7426758</ele>
        <time>2009-09-05T12:52:32Z</time>
      </trkpt>
      <trkpt lat="46.5302747" lon="9.8673599">
        <ele>1722.3391113</ele>
        <time>2009-09-05T12:52:40Z</time>
      </trkpt>
      <trkpt lat="46.5301942" lon="9.8672973">
        <ele>1722.3391113</ele>
        <time>2009-09-05T12:52:42Z</time>
      </trkpt>
      <trkpt lat="46.5301075" lon="9.8672301">
        <ele>1722.8198242</ele>
        <time>2009-09-05T12:52:44Z</time>
      </trkpt>
      <trkpt lat="46.5300579" lon="9.8672045">
        <ele>1722.3391113</ele>
        <time>2009-09-05T12:52:45Z</time>
      </trkpt>
      <trkpt lat="46.5298297" lon="9.8670462">
        <ele>1721.3776855</ele>
        <time>2009-09-05T12:52:50Z</time>
      </trkpt>
      <trkpt lat="46.5296831" lon="9.8669697">
        <ele>1720.4165039</ele>
        <time>2009-09-05T12:52:53Z</time>
      </trkpt>
      <trkpt lat="46.5288927" lon="9.8664597">
        <ele>1718.4938965</ele>
        <time>2009-09-05T12:53:07Z</time>
      </trkpt>
      <trkpt lat="46.5287063" lon="9.8663432">
        <ele>1718.0131836</ele>
        <time>2009-09-05T12:53:10Z</time>
      </trkpt>
      <trkpt lat="46.5281694" lon="9.8659931">
        <ele>1717.0520020</ele>
        <time>2009-09-05T12:53:19Z</time>
      </trkpt>
      <trkpt lat="46.5279173" lon="9.8659019">
        <ele>1716.5712891</ele>
        <time>2009-09-05T12:53:23Z</time>
      </trkpt>
      <trkpt lat="46.5277651" lon="9.8658921">
        <ele>1718.0131836</ele>
        <time>2009-09-05T12:53:26Z</time>
      </trkpt>
      <trkpt lat="46.5276802" lon="9.8658436">
        <ele>1718.4938965</ele>
        <time>2009-09-05T12:53:29Z</time>
      </trkpt>
      <trkpt lat="46.5274445" lon="9.8657036">
        <ele>1718.0131836</ele>
        <time>2009-09-05T12:53:36Z</time>
      </trkpt>
      <trkpt lat="46.5268577" lon="9.8653459">
        <ele>1718.0131836</ele>
        <time>2009-09-05T12:53:51Z</time>
      </trkpt>
      <trkpt lat="46.5262928" lon="9.8649650">
        <ele>1718.0131836</ele>
        <time>2009-09-05T12:54:04Z</time>
      </trkpt>
      <trkpt lat="46.5259338" lon="9.8647383">
        <ele>1718.0131836</ele>
        <time>2009-09-05T12:54:12Z</time>
      </trkpt>
      <trkpt lat="46.5258515" lon="9.8646963">
        <ele>1718.4938965</ele>
        <time>2009-09-05T12:54:14Z</time>
      </trkpt>
      <trkpt lat="46.5254125" lon="9.8644955">
        <ele>1718.0131836</ele>
        <time>2009-09-05T12:54:27Z</time>
      </trkpt>
      <trkpt lat="46.5250907" lon="9.8643048">
        <ele>1718.4938965</ele>
        <time>2009-09-05T12:54:40Z</time>
      </trkpt>
      <trkpt lat="46.5247131" lon="9.8641646">
        <ele>1718.9746094</ele>
        <time>2009-09-05T12:54:56Z</time>
      </trkpt>
      <trkpt lat="46.5244134" lon="9.8640032">
        <ele>1719.4553223</ele>
        <time>2009-09-05T12:55:08Z</time>
      </trkpt>
      <trkpt lat="46.5241612" lon="9.8638677">
        <ele>1720.4165039</ele>
        <time>2009-09-05T12:55:19Z</time>
      </trkpt>
      <trkpt lat="46.5238531" lon="9.8636202">
        <ele>1720.8972168</ele>
        <time>2009-09-05T12:55:33Z</time>
      </trkpt>
      <trkpt lat="46.5236324" lon="9.8633144">
        <ele>1721.3776855</ele>
        <time>2009-09-05T12:55:46Z</time>
      </trkpt>
      <trkpt lat="46.5235967" lon="9.8633083">
        <ele>1721.8583984</ele>
        <time>2009-09-05T12:56:05Z</time>
      </trkpt>
      <trkpt lat="46.5235761" lon="9.8633388">
        <ele>1718.9746094</ele>
        <time>2009-09-05T13:02:46Z</time>
      </trkpt>
      <trkpt lat="46.5235773" lon="9.8633388">
        <ele>1719.9357910</ele>
        <time>2009-09-05T13:03:14Z</time>
      </trkpt>
      <trkpt lat="46.5236458" lon="9.8632832"/>
      <trkpt lat="46.5233763" lon="9.8632284"/>
      <trkpt lat="46.5232415" lon="9.8630090"/>
      <trkpt lat="46.5230619" lon="9.8628446"/>
      <trkpt lat="46.5229720" lon="9.8627897"/>
      <trkpt lat="46.5224779" lon="9.8624608"/>
      <trkpt lat="46.5218042" lon="9.8618028"/>
      <trkpt lat="46.5211754" lon="9.8614738"/>
      <trkpt lat="46.5206813" lon="9.8608706"/>
      <trkpt lat="46.5201872" lon="9.8605965"/>
    </trkseg>
  </trk>

</gpx>
